[[{"header":{"parameterUnit":"m.s-1","parameterCategory":1,"la1":31.0,"la2":29.5877,"lo1":-88.7671,"lo2":-86.6584,"dy":0.0162,"dx":0.0185,"nx":115,"ny":88,"refTime":"2023-08-22T06:00:00:Z","depth":0,"parameterNumber":2,"parameterNumberName":"U-component_of_WINDS"},"data":[0.0,0.0,0.0,0.0,0.0,0.0,0.0,0.0,0.0,0.0,0.0,0.0,0.0,0.0,0.0,0.0,0.0,0.0,0.0,0.0,0.0,0.0,0.0,0.0,0.0,0.0,0.0,0.0,0.0,0.0,0.0,0.0,0.0,0.0,0.0,0.0,0.0,0.0,0.0,0.0,0.0,0.0,0.0,0.0,0.0,0.0,0.0,0.0,0.0,0.0,0.0,0.0,0.0,0.0,0.0,0.0,0.0,0.0,0.0,0.0,0.0,0.0,0.0,0.0,0.0,0.0,0.0,0.0,0.0,0.0,0.0,0.0,0.0,0.0,0.0,0.0,0.0,0.0,0.0,0.0,0.0,0.0,0.0,0.0,0.0,0.0,0.0,0.0,0.0,0.0,0.0,0.0,0.0,0.0,0.0,0.0,0.0,0.0,0.0,0.0,0.0,0.0,0.0,0.0,0.0,0.0,0.0,0.0,0.0,0.0,0.0,0.0,0.0,0.0,0.0,0.0,0.0,0.0,0.0,0.0,0.0,0.0,0.0,0.0,0.0,0.0,0.0,0.0,0.0,0.0,0.0,0.0,0.0,0.0,0.0,0.0,0.0,0.0,0.0,0.0,0.0,0.0,0.0,0.0,0.0,0.0,0.0,0.0,0.0,0.0,0.0,0.0,0.0,0.0,0.0,0.0,0.0,0.0,0.0,0.0,0.0,0.0,0.0,0.0,0.0,0.0,0.0,0.0,0.0,0.0,0.0,0.0,0.0,0.0,0.0,0.0,0.0,0.0,0.0,0.0,0.0,0.0,0.0,0.0,0.0,0.0,0.0,0.0,0.0,0.0,0.0,0.0,0.0,0.0,0.0,0.0,0.0,0.0,0.0,0.0,0.0,0.0,0.0,0.0,0.0,0.0,0.0,0.0,0.0,0.0,0.0,0.0,0.0,0.0,0.0,0.0,0.0,0.0,0.0,0.0,0.0,0.0,0.0,0.0,0.0,0.0,0.0,0.0,0.0,0.0,0.0,0.0,0.0,0.0,0.0,0.0,0.0,0.0,0.0,0.0,0.0,0.0,0.0,0.0,0.0,0.0,0.0,0.0,0.0,0.0,0.0,0.0,0.0,0.0,0.0,0.0,0.0,0.0,0.0,0.0,0.0,0.0,0.0,0.0,0.0,0.0,0.0,0.0,0.0,0.0,0.0,0.0,0.0,0.0,0.0,0.0,0.0,0.0,0.0,0.0,0.0,0.0,0.0,0.0,0.0,0.0,0.0,0.0,0.0,0.0,0.0,0.0,0.0,0.0,0.0,0.0,0.0,0.0,0.0,0.0,0.0,0.0,0.0,0.0,0.0,0.0,0.0,0.0,0.0,0.0,0.0,0.0,0.0,0.0,0.0,0.0,0.0,0.0,0.0,0.0,0.0,0.0,0.0,0.0,0.0,0.0,0.0,0.0,0.0,0.0,0.0,0.0,0.0,0.0,0.0,0.0,0.0,0.0,0.0,0.0,0.0,0.0,0.0,0.0,0.0,0.0,0.0,0.0,0.0,0.0,0.0,0.0,0.0,0.0,0.0,0.0,0.0,0.0,0.0,0.0,0.0,0.0,0.0,0.0,0.0,0.0,0.0,0.0,0.0,0.0,0.0,0.0,0.0,0.0,0.0,0.0,0.0,0.0,0.0,0.0,0.0,0.0,0.0,0.0,0.0,0.0,0.0,0.0,0.0,0.0,0.0,0.0,0.0,0.0,0.0,0.0,0.0,0.0,0.0,0.0,0.0,0.0,0.0,0.0,0.0,0.0,0.0,0.0,0.0,0.0,0.0,0.0,0.0,0.0,0.0,0.0,0.0,0.0,0.0,0.0,0.0,0.0,0.0,0.0,0.0,0.0,0.0,0.0,0.0,0.0,0.0,0.0,0.0,0.0,0.0,0.0,0.0,0.0,0.0,0.0,0.0,0.0,0.0,0.0,0.0,0.0,0.0,0.0,0.0,0.0,0.0,0.0,0.0,0.0,0.0,0.0,0.0,0.0,0.0,0.0,0.0,0.0,0.0,0.0,0.0,0.0,0.0,0.0,0.0,0.0,0.0,0.0,0.0,0.0,0.0,0.0,0.0,0.0,0.0,0.0,0.0,0.0,0.0,0.0,0.0,0.0,0.0,0.0,0.0,0.0,0.0,0.0,0.0,0.0,0.0,0.0,0.0,0.0,0.0,0.0,0.0,0.0,0.0,0.0,0.0,0.0,0.0,0.0,0.0,0.0,0.0,0.0,0.0,0.0,0.0,0.0,0.0,0.0,0.0,0.0,0.0,0.0,0.0,0.0,0.0,0.0,0.0,0.0,0.0,0.0,0.0,0.0,0.0,0.0,0.0,0.0,0.0,0.0,0.0,0.0,0.0,0.0,0.0,0.0,0.0,0.0,0.0,0.0,0.0,0.0,0.0,0.0,0.0,0.0,0.0,0.0,0.0,0.0,0.0,0.0,0.0,0.0,0.0,0.0,0.0,0.0,0.0,0.0,0.0,0.0,0.0,0.0,0.0,0.0,0.0,0.0,0.0,0.0,0.0,0.0,0.0,0.0,0.0,0.0,0.0,0.0,0.0,0.0,0.0,0.0,0.0,0.0,0.0,0.0,0.0,0.0,0.0,0.0,0.0,0.0,0.0,0.0,0.0,0.0,0.0,0.0,0.0,0.0,0.0,0.0,0.0,0.0,0.0,0.0,0.0,0.0,0.0,0.0,0.0,0.0,0.0,0.0,0.0,0.0,0.0,0.0,0.0,0.0,0.0,0.0,0.0,0.0,0.0,0.0,0.0,0.0,0.0,0.0,0.0,0.0,0.0,0.0,0.0,0.0,0.0,0.0,0.0,0.0,0.0,0.0,0.0,0.0,0.0,0.0,0.0,0.0,0.0,0.0,0.0,0.0,0.0,0.0,0.0,0.0,0.0,0.0,0.0,0.0,0.0,0.0,0.0,0.0,0.0,0.0,0.0,0.0,0.0,0.0,0.0,0.0,0.0,0.0,0.0,0.0,0.0,0.0,0.0,0.0,0.0,0.0,0.0,0.0,0.0,0.0,0.0,0.0,0.0,0.0,0.0,0.0,0.0,0.0,0.0,0.0,0.0,0.0,0.0,0.0,0.0,0.0,0.0,0.0,0.0,0.0,0.0,0.0,0.0,0.0,0.0,0.0,0.0,0.0,0.0,0.0,0.0,0.0,0.0,0.0,0.0,0.0,0.0,0.0,0.0,0.0,0.0,0.0,0.0,0.0,0.0,0.0,0.0,0.0,0.0,0.0,0.0,0.0,0.0,0.0,0.0,0.0,0.0,0.0,0.0,0.0,0.0,0.0,0.0,0.0,0.0,0.0,0.0,0.0,0.0,0.0,0.0,0.0,0.0,0.0,0.0,0.0,0.0,0.0,0.0,0.0,0.0,0.0,0.0,0.0,0.0,0.0,0.0,0.0,0.0,0.0,0.0,0.0,0.0,0.0,0.0,0.0,0.0,0.0,0.0,0.0,0.0,0.0,0.0,0.0,0.0,0.0,0.0,0.0,0.0,0.0,0.0,0.0,0.0,0.0,0.0,0.0,0.0,0.0,0.0,0.0,0.0,0.0,0.0,0.0,0.0,0.0,0.0,0.0,0.0,0.0,0.0,0.0,0.0,0.0,0.0,0.0,0.0,0.0,0.0,0.0,0.0,0.0,0.0,0.0,0.0,0.0,0.0,0.0,0.0,0.0,0.0,0.0,0.0,0.0,0.0,0.0,0.0,0.0,0.0,0.0,0.0,0.0,0.0,0.0,0.0,0.0,0.0,0.0,0.0,0.0,0.0,0.0,0.0,0.0,0.0,0.0,0.0,0.0,0.0,0.0,0.0,0.0,0.0,0.0,0.0,0.0,0.0,0.0,0.0,0.0,0.0,0.0,0.0,0.0,0.0,0.0,0.0,0.0,0.0,0.0,0.0,0.0,0.0,0.0,0.0,0.0,0.0,0.0,0.0,0.0,0.0,0.0,0.0,0.0,0.0,0.0,0.0,0.0,0.0,0.0,0.0,0.0,0.0,0.0,0.0,0.0,0.0,0.0,0.0,0.0,0.0,0.0,0.0,0.0,0.0,0.0,0.0,0.0,0.0,0.0,0.0,0.0,0.0,0.0,0.0,0.0,0.0,0.0,0.0,0.0,0.0,0.0,0.0,0.0,0.0,0.0,0.0,0.0,0.0,0.0,0.0,0.0,0.0,0.0,0.0,0.0,0.0,0.0,0.0,0.0,0.0,0.0,-1.9135,0.0,0.0,0.0,0.0,0.0,0.0,0.0,0.0,0.0,0.0,0.0,0.0,0.0,0.0,0.0,0.0,0.0,0.0,0.0,0.0,0.0,0.0,0.0,0.0,0.0,0.0,0.0,0.0,0.0,0.0,0.0,0.0,0.0,0.0,0.0,0.0,0.0,0.0,0.0,0.0,0.0,0.0,0.0,0.0,0.0,0.0,0.0,0.0,0.0,0.0,0.0,0.0,0.0,0.0,0.0,0.0,0.0,0.0,0.0,0.0,0.0,0.0,0.0,0.0,0.0,0.0,0.0,0.0,0.0,0.0,0.0,0.0,0.0,0.0,0.0,0.0,0.0,0.0,0.0,0.0,0.0,0.0,0.0,0.0,0.0,0.0,0.0,0.0,0.0,0.0,0.0,0.0,0.0,0.0,0.0,0.0,0.0,0.0,0.0,0.0,0.0,0.0,0.0,0.0,0.0,0.0,0.0,0.0,0.0,0.0,-2.0955,-2.1824,-2.1062,-2.0606,-2.054,0.0,0.0,0.0,0.0,0.0,0.0,0.0,0.0,0.0,0.0,0.0,0.0,0.0,0.0,0.0,0.0,0.0,0.0,0.0,0.0,0.0,0.0,0.0,0.0,0.0,0.0,0.0,0.0,0.0,0.0,0.0,0.0,0.0,0.0,0.0,0.0,0.0,0.0,0.0,0.0,0.0,0.0,0.0,0.0,0.0,0.0,0.0,0.0,0.0,0.0,0.0,0.0,0.0,0.0,0.0,0.0,0.0,0.0,0.0,0.0,0.0,0.0,0.0,0.0,0.0,0.0,0.0,0.0,0.0,0.0,0.0,0.0,0.0,0.0,0.0,0.0,0.0,0.0,0.0,0.0,0.0,0.0,0.0,0.0,0.0,0.0,0.0,0.0,0.0,0.0,0.0,0.0,0.0,0.0,0.0,0.0,0.0,0.0,0.0,0.0,0.0,0.0,0.0,0.0,0.0,0.0,0.0,0.0,0.0,0.0,0.0,0.0,-2.2861,-2.2088,-2.1868,0.0,0.0,0.0,0.0,0.0,0.0,0.0,0.0,0.0,0.0,0.0,0.0,0.0,0.0,0.0,0.0,0.0,0.0,0.0,0.0,0.0,0.0,0.0,0.0,0.0,0.0,0.0,0.0,0.0,0.0,0.0,0.0,0.0,0.0,0.0,0.0,0.0,0.0,0.0,0.0,0.0,0.0,0.0,0.0,0.0,0.0,0.0,0.0,0.0,0.0,0.0,0.0,0.0,0.0,0.0,0.0,0.0,0.0,0.0,0.0,0.0,0.0,0.0,0.0,0.0,0.0,0.0,0.0,0.0,0.0,0.0,0.0,0.0,0.0,0.0,0.0,0.0,0.0,0.0,0.0,0.0,0.0,0.0,0.0,0.0,0.0,0.0,0.0,0.0,0.0,0.0,0.0,0.0,0.0,0.0,0.0,0.0,0.0,0.0,0.0,0.0,0.0,0.0,0.0,0.0,0.0,0.0,0.0,0.0,0.0,-2.282,-2.5386,-2.456,0.0,-2.2799,0.0,0.0,0.0,0.0,0.0,0.0,0.0,0.0,0.0,0.0,0.0,0.0,0.0,0.0,0.0,0.0,0.0,0.0,0.0,0.0,0.0,0.0,0.0,0.0,0.0,0.0,0.0,0.0,0.0,0.0,0.0,0.0,0.0,0.0,0.0,0.0,0.0,0.0,0.0,0.0,0.0,0.0,0.0,0.0,0.0,0.0,0.0,0.0,0.0,0.0,0.0,0.0,0.0,0.0,0.0,0.0,0.0,0.0,0.0,0.0,0.0,0.0,0.0,0.0,0.0,0.0,0.0,0.0,0.0,0.0,0.0,0.0,0.0,0.0,0.0,0.0,0.0,0.0,0.0,0.0,0.0,0.0,0.0,0.0,0.0,0.0,0.0,0.0,0.0,0.0,0.0,0.0,0.0,0.0,0.0,0.0,0.0,0.0,0.0,0.0,0.0,0.0,0.0,0.0,0.0,0.0,0.0,0.0,0.0,0.0,-2.4795,-2.655,-2.5407,-2.4382,0.0,0.0,0.0,0.0,0.0,0.0,0.0,0.0,0.0,0.0,0.0,0.0,0.0,0.0,0.0,0.0,0.0,0.0,0.0,0.0,0.0,0.0,0.0,0.0,0.0,0.0,0.0,0.0,0.0,0.0,0.0,0.0,0.0,0.0,0.0,0.0,0.0,0.0,0.0,0.0,0.0,0.0,0.0,0.0,0.0,0.0,0.0,0.0,0.0,0.0,0.0,0.0,0.0,0.0,0.0,0.0,0.0,0.0,0.0,0.0,0.0,0.0,0.0,0.0,0.0,0.0,0.0,0.0,0.0,0.0,0.0,0.0,0.0,0.0,0.0,0.0,0.0,0.0,0.0,0.0,0.0,0.0,0.0,0.0,0.0,0.0,0.0,0.0,0.0,0.0,0.0,0.0,0.0,0.0,0.0,0.0,0.0,0.0,0.0,0.0,0.0,0.0,0.0,0.0,0.0,0.0,0.0,0.0,0.0,0.0,-2.5774,-2.6597,-2.7611,-2.6657,-2.5409,-2.3981,0.0,0.0,0.0,0.0,0.0,0.0,0.0,0.0,0.0,0.0,0.0,0.0,0.0,0.0,0.0,0.0,0.0,0.0,0.0,0.0,0.0,0.0,0.0,0.0,0.0,0.0,0.0,0.0,0.0,0.0,0.0,0.0,0.0,0.0,0.0,0.0,0.0,0.0,0.0,0.0,0.0,0.0,0.0,0.0,0.0,0.0,0.0,0.0,0.0,0.0,0.0,0.0,0.0,0.0,0.0,0.0,0.0,0.0,0.0,0.0,0.0,0.0,0.0,0.0,0.0,0.0,0.0,0.0,0.0,0.0,0.0,0.0,0.0,0.0,0.0,0.0,0.0,0.0,0.0,0.0,0.0,0.0,0.0,0.0,0.0,0.0,0.0,0.0,0.0,0.0,0.0,0.0,0.0,0.0,0.0,0.0,0.0,0.0,0.0,0.0,0.0,0.0,0.0,0.0,0.0,0.0,0.0,0.0,-2.9248,-2.7942,-2.7775,-2.911,-2.8746,-2.706,0.0,0.0,0.0,0.0,0.0,0.0,0.0,0.0,0.0,0.0,0.0,0.0,0.0,0.0,0.0,0.0,0.0,0.0,0.0,0.0,0.0,0.0,0.0,0.0,0.0,0.0,0.0,0.0,0.0,0.0,0.0,0.0,0.0,0.0,0.0,0.0,0.0,0.0,0.0,0.0,0.0,0.0,0.0,0.0,0.0,0.0,0.0,0.0,0.0,0.0,0.0,0.0,0.0,0.0,0.0,0.0,0.0,0.0,0.0,0.0,0.0,0.0,0.0,0.0,0.0,0.0,0.0,0.0,0.0,0.0,0.0,0.0,0.0,0.0,0.0,0.0,0.0,0.0,0.0,0.0,0.0,0.0,0.0,0.0,0.0,0.0,0.0,0.0,0.0,0.0,0.0,0.0,0.0,0.0,0.0,0.0,0.0,0.0,0.0,0.0,0.0,0.0,0.0,0.0,0.0,0.0,0.0,0.0,0.0,-2.6408,-2.7465,-2.9476,-3.2376,-2.9602,-2.7608,0.0,0.0,0.0,0.0,0.0,0.0,0.0,0.0,0.0,0.0,0.0,0.0,0.0,0.0,0.0,0.0,0.0,0.0,0.0,0.0,0.0,0.0,0.0,0.0,0.0,0.0,0.0,0.0,0.0,0.0,0.0,0.0,0.0,0.0,0.0,0.0,0.0,0.0,0.0,0.0,0.0,0.0,0.0,0.0,0.0,0.0,0.0,0.0,0.0,0.0,0.0,0.0,0.0,0.0,0.0,0.0,0.0,0.0,0.0,0.0,0.0,0.0,0.0,0.0,0.0,0.0,0.0,0.0,0.0,0.0,0.0,0.0,0.0,0.0,0.0,0.0,0.0,0.0,0.0,0.0,0.0,0.0,0.0,0.0,0.0,0.0,0.0,0.0,0.0,0.0,0.0,0.0,0.0,0.0,0.0,0.0,0.0,0.0,0.0,0.0,0.0,0.0,0.0,0.0,0.0,0.0,0.0,0.0,0.0,-2.6885,0.0,-3.1936,-3.3918,-3.0594,-2.8167,0.0,0.0,0.0,0.0,0.0,0.0,0.0,0.0,0.0,0.0,0.0,0.0,0.0,0.0,0.0,0.0,0.0,0.0,0.0,0.0,0.0,0.0,0.0,0.0,0.0,0.0,0.0,0.0,0.0,0.0,0.0,0.0,0.0,0.0,0.0,0.0,0.0,0.0,0.0,0.0,0.0,0.0,0.0,0.0,0.0,0.0,0.0,0.0,0.0,0.0,0.0,0.0,0.0,0.0,0.0,0.0,0.0,0.0,0.0,0.0,0.0,0.0,0.0,0.0,0.0,0.0,0.0,0.0,0.0,0.0,0.0,0.0,0.0,0.0,0.0,0.0,0.0,0.0,0.0,0.0,0.0,0.0,0.0,0.0,0.0,0.0,0.0,0.0,0.0,0.0,0.0,0.0,0.0,0.0,0.0,0.0,0.0,0.0,0.0,0.0,0.0,0.0,0.0,0.0,0.0,0.0,0.0,0.0,-2.6481,-3.1544,-3.4347,-3.4983,-3.3433,-3.1877,-2.8734,0.0,0.0,0.0,0.0,0.0,0.0,0.0,0.0,0.0,0.0,0.0,0.0,0.0,0.0,0.0,0.0,0.0,0.0,0.0,0.0,0.0,0.0,0.0,0.0,0.0,0.0,0.0,0.0,0.0,0.0,0.0,0.0,0.0,0.0,0.0,0.0,0.0,0.0,0.0,0.0,0.0,0.0,0.0,0.0,0.0,0.0,0.0,0.0,0.0,0.0,0.0,0.0,0.0,0.0,0.0,0.0,0.0,0.0,0.0,0.0,0.0,0.0,0.0,0.0,0.0,0.0,0.0,0.0,0.0,0.0,0.0,0.0,0.0,0.0,0.0,0.0,0.0,0.0,0.0,0.0,0.0,0.0,0.0,0.0,0.0,0.0,0.0,0.0,0.0,0.0,0.0,0.0,0.0,0.0,0.0,0.0,0.0,0.0,0.0,0.0,0.0,0.0,0.0,0.0,0.0,0.0,0.0,0.0,0.0,-3.1518,-3.3508,-3.5515,-3.7257,-3.3076,-3.0479,0.0,0.0,0.0,0.0,0.0,0.0,0.0,0.0,0.0,0.0,0.0,0.0,0.0,0.0,0.0,0.0,0.0,0.0,0.0,0.0,0.0,0.0,0.0,0.0,0.0,0.0,0.0,0.0,0.0,0.0,0.0,0.0,0.0,0.0,0.0,0.0,0.0,0.0,0.0,0.0,0.0,0.0,0.0,0.0,0.0,0.0,0.0,0.0,0.0,0.0,0.0,0.0,0.0,0.0,0.0,0.0,0.0,0.0,0.0,0.0,0.0,0.0,0.0,0.0,0.0,0.0,0.0,0.0,0.0,0.0,0.0,0.0,0.0,0.0,0.0,0.0,0.0,0.0,0.0,0.0,0.0,0.0,0.0,0.0,0.0,0.0,0.0,0.0,0.0,0.0,0.0,0.0,0.0,0.0,0.0,0.0,0.0,0.0,0.0,0.0,0.0,0.0,0.0,0.0,0.0,0.0,0.0,0.0,0.0,-3.4041,-3.5932,-3.7719,-3.9369,-3.4904,-3.2173,-3.1462,0.0,0.0,0.0,0.0,0.0,0.0,0.0,0.0,0.0,0.0,0.0,0.0,0.0,0.0,0.0,0.0,0.0,0.0,0.0,0.0,0.0,0.0,0.0,0.0,0.0,0.0,0.0,0.0,0.0,0.0,0.0,0.0,0.0,0.0,0.0,0.0,0.0,0.0,0.0,0.0,0.0,0.0,0.0,0.0,0.0,0.0,0.0,0.0,0.0,0.0,0.0,0.0,0.0,0.0,0.0,0.0,0.0,0.0,0.0,0.0,0.0,0.0,0.0,0.0,0.0,0.0,0.0,0.0,0.0,0.0,0.0,0.0,0.0,0.0,0.0,0.0,0.0,0.0,0.0,0.0,0.0,0.0,0.0,0.0,0.0,0.0,0.0,0.0,0.0,0.0,0.0,0.0,0.0,0.0,0.0,0.0,0.0,0.0,0.0,0.0,0.0,0.0,0.0,0.0,0.0,0.0,0.0,0.0,-3.8505,-4.095,-4.1412,-3.9771,-3.7228,-3.3922,0.0,0.0,0.0,0.0,0.0,0.0,0.0,0.0,0.0,0.0,0.0,0.0,0.0,0.0,0.0,0.0,0.0,0.0,0.0,0.0,0.0,0.0,0.0,0.0,0.0,0.0,0.0,0.0,0.0,0.0,0.0,0.0,0.0,0.0,0.0,0.0,0.0,0.0,0.0,0.0,0.0,0.0,0.0,0.0,0.0,0.0,0.0,0.0,0.0,0.0,0.0,0.0,0.0,0.0,0.0,0.0,0.0,0.0,0.0,0.0,0.0,0.0,0.0,0.0,0.0,0.0,0.0,0.0,0.0,0.0,0.0,0.0,0.0,0.0,0.0,0.0,0.0,0.0,0.0,0.0,0.0,0.0,0.0,0.0,0.0,0.0,0.0,0.0,0.0,0.0,0.0,0.0,0.0,0.0,0.0,0.0,0.0,0.0,0.0,0.0,0.0,0.0,0.0,0.0,0.0,0.0,0.0,0.0,0.0,-4.11,-4.3145,-4.3938,-4.3386,-3.9172,-3.5986,0.0,0.0,0.0,0.0,0.0,0.0,0.0,0.0,0.0,0.0,0.0,0.0,0.0,0.0,0.0,0.0,0.0,0.0,0.0,0.0,0.0,0.0,0.0,0.0,0.0,0.0,0.0,0.0,0.0,0.0,0.0,0.0,0.0,0.0,0.0,0.0,0.0,0.0,0.0,0.0,0.0,0.0,0.0,0.0,0.0,0.0,0.0,0.0,0.0,0.0,0.0,0.0,0.0,0.0,0.0,0.0,0.0,0.0,0.0,0.0,0.0,0.0,0.0,0.0,0.0,0.0,0.0,0.0,0.0,0.0,0.0,0.0,0.0,0.0,0.0,0.0,0.0,0.0,0.0,0.0,0.0,0.0,0.0,0.0,0.0,0.0,0.0,0.0,0.0,0.0,0.0,0.0,0.0,0.0,0.0,0.0,0.0,0.0,0.0,0.0,0.0,0.0,0.0,0.0,0.0,0.0,0.0,0.0,-3.9941,-4.2749,-4.4534,-4.5459,-4.5434,-4.1495,-3.823,0.0,0.0,0.0,0.0,0.0,0.0,0.0,0.0,0.0,0.0,0.0,0.0,0.0,0.0,0.0,0.0,0.0,0.0,0.0,0.0,0.0,0.0,0.0,0.0,0.0,0.0,0.0,0.0,0.0,0.0,0.0,0.0,0.0,0.0,0.0,0.0,0.0,0.0,0.0,0.0,0.0,0.0,0.0,0.0,0.0,0.0,0.0,0.0,0.0,0.0,0.0,0.0,0.0,0.0,0.0,0.0,0.0,0.0,0.0,0.0,0.0,0.0,0.0,0.0,0.0,0.0,0.0,0.0,0.0,0.0,0.0,0.0,0.0,0.0,0.0,0.0,0.0,0.0,0.0,0.0,0.0,0.0,0.0,0.0,0.0,0.0,0.0,0.0,0.0,0.0,0.0,0.0,0.0,0.0,0.0,0.0,0.0,0.0,0.0,0.0,0.0,0.0,0.0,0.0,0.0,0.0,0.0,0.0,-4.1815,-4.369,-4.533,-4.6202,-4.6132,-4.3768,-4.0468,0.0,0.0,0.0,0.0,0.0,0.0,0.0,0.0,0.0,0.0,0.0,0.0,0.0,0.0,0.0,0.0,0.0,0.0,0.0,0.0,0.0,0.0,0.0,0.0,0.0,0.0,0.0,0.0,0.0,0.0,0.0,0.0,0.0,0.0,0.0,0.0,0.0,0.0,0.0,0.0,0.0,0.0,0.0,0.0,0.0,0.0,0.0,0.0,0.0,0.0,0.0,0.0,0.0,0.0,0.0,0.0,0.0,0.0,0.0,0.0,0.0,0.0,0.0,0.0,0.0,0.0,0.0,0.0,0.0,0.0,0.0,0.0,0.0,0.0,0.0,0.0,0.0,0.0,0.0,0.0,0.0,0.0,0.0,0.0,0.0,0.0,0.0,0.0,0.0,0.0,0.0,0.0,0.0,0.0,0.0,0.0,0.0,0.0,0.0,0.0,0.0,0.0,0.0,0.0,0.0,0.0,0.0,0.0,-4.2124,-4.4547,-4.5662,-4.6209,-4.618,-4.4326,-4.162,0.0,0.0,0.0,0.0,0.0,0.0,0.0,0.0,0.0,0.0,0.0,0.0,0.0,0.0,0.0,0.0,0.0,0.0,0.0,0.0,0.0,0.0,0.0,0.0,0.0,0.0,0.0,0.0,0.0,0.0,0.0,0.0,0.0,0.0,0.0,0.0,0.0,0.0,0.0,0.0,0.0,0.0,0.0,0.0,0.0,0.0,0.0,0.0,-3.2339,0.0,0.0,0.0,0.0,0.0,0.0,0.0,0.0,0.0,0.0,0.0,0.0,0.0,0.0,0.0,0.0,0.0,0.0,0.0,0.0,0.0,0.0,0.0,0.0,0.0,0.0,0.0,0.0,0.0,0.0,0.0,0.0,0.0,0.0,0.0,0.0,0.0,0.0,0.0,0.0,0.0,0.0,0.0,0.0,0.0,0.0,0.0,0.0,0.0,0.0,0.0,0.0,0.0,0.0,0.0,0.0,0.0,0.0,0.0,-4.2455,-4.539,-4.5955,-4.6207,-4.6161,-4.5304,-4.3038,0.0,0.0,0.0,0.0,0.0,0.0,0.0,0.0,0.0,0.0,0.0,0.0,0.0,0.0,0.0,0.0,0.0,0.0,0.0,0.0,0.0,0.0,0.0,0.0,0.0,0.0,0.0,0.0,0.0,0.0,0.0,0.0,0.0,0.0,0.0,0.0,0.0,0.0,0.0,0.0,0.0,0.0,0.0,0.0,0.0,0.0,0.0,0.0,0.0,0.0,0.0,0.0,0.0,0.0,0.0,0.0,0.0,0.0,0.0,0.0,0.0,0.0,0.0,0.0,0.0,0.0,0.0,0.0,0.0,0.0,0.0,0.0,0.0,0.0,0.0,0.0,0.0,0.0,0.0,0.0,0.0,0.0,0.0,0.0,0.0,0.0,0.0,0.0,0.0,0.0,0.0,0.0,0.0,0.0,0.0,0.0,0.0,0.0,0.0,0.0,0.0,0.0,0.0,0.0,0.0,0.0,0.0,-3.9752,-4.2627,-4.6035,-4.6199,-4.6201,-4.6199,-4.6199,-4.4189,-3.9961,0.0,0.0,0.0,0.0,0.0,0.0,0.0,0.0,0.0,0.0,0.0,0.0,0.0,0.0,0.0,0.0,0.0,0.0,0.0,0.0,0.0,0.0,0.0,0.0,0.0,0.0,0.0,0.0,0.0,0.0,0.0,0.0,0.0,0.0,0.0,0.0,0.0,0.0,-2.8532,-3.1554,0.0,0.0,0.0,0.0,0.0,0.0,0.0,0.0,-3.6337,0.0,0.0,0.0,0.0,0.0,0.0,0.0,0.0,0.0,0.0,0.0,0.0,0.0,0.0,0.0,0.0,0.0,0.0,0.0,0.0,0.0,0.0,0.0,0.0,0.0,0.0,0.0,0.0,0.0,0.0,0.0,0.0,0.0,0.0,0.0,0.0,0.0,0.0,0.0,0.0,0.0,0.0,0.0,0.0,0.0,0.0,0.0,0.0,0.0,0.0,0.0,0.0,0.0,0.0,0.0,0.0,-3.9103,-3.9748,-4.2023,-4.6074,-4.6199,-4.6201,-4.6203,-4.6199,-4.4189,-4.0,0.0,0.0,0.0,0.0,0.0,0.0,0.0,0.0,0.0,0.0,0.0,0.0,0.0,0.0,0.0,0.0,0.0,0.0,0.0,0.0,0.0,0.0,0.0,0.0,0.0,0.0,0.0,0.0,0.0,0.0,0.0,0.0,0.0,0.0,0.0,0.0,0.0,0.0,0.0,-3.5106,-3.7657,0.0,0.0,0.0,0.0,0.0,0.0,0.0,0.0,-3.5877,0.0,0.0,0.0,0.0,0.0,0.0,0.0,0.0,0.0,0.0,0.0,0.0,0.0,0.0,0.0,0.0,0.0,0.0,0.0,0.0,0.0,0.0,0.0,0.0,0.0,0.0,0.0,0.0,0.0,0.0,0.0,0.0,0.0,0.0,0.0,0.0,0.0,0.0,0.0,0.0,0.0,0.0,0.0,0.0,0.0,0.0,0.0,0.0,0.0,0.0,0.0,0.0,0.0,0.0,0.0,-3.7468,-3.9509,-4.2109,-4.539,-4.5968,-4.6212,-4.618,-4.5331,-4.3266,0.0,0.0,0.0,0.0,0.0,0.0,0.0,0.0,0.0,0.0,0.0,0.0,0.0,0.0,0.0,0.0,0.0,0.0,0.0,0.0,0.0,0.0,0.0,0.0,0.0,0.0,0.0,0.0,0.0,0.0,0.0,0.0,0.0,0.0,0.0,0.0,0.0,0.0,0.0,0.0,-3.6501,-3.8699,-4.0809,0.0,0.0,0.0,0.0,0.0,0.0,-3.8067,-3.7746,0.0,0.0,0.0,0.0,0.0,0.0,0.0,0.0,0.0,0.0,0.0,0.0,0.0,0.0,0.0,0.0,0.0,0.0,0.0,0.0,0.0,0.0,0.0,0.0,0.0,0.0,0.0,0.0,0.0,0.0,0.0,0.0,0.0,0.0,0.0,0.0,0.0,0.0,0.0,0.0,0.0,0.0,0.0,0.0,0.0,0.0,0.0,0.0,0.0,0.0,0.0,0.0,0.0,0.0,0.0,-3.5853,-3.9155,-4.205,-4.4531,-4.5499,-4.5848,-4.565,-4.4308,-4.2243,0.0,0.0,0.0,0.0,0.0,0.0,0.0,0.0,0.0,0.0,0.0,0.0,0.0,0.0,0.0,0.0,0.0,0.0,0.0,0.0,0.0,0.0,0.0,0.0,0.0,0.0,0.0,0.0,0.0,0.0,0.0,0.0,0.0,0.0,0.0,0.0,0.0,0.0,0.0,0.0,0.0,-3.9701,-4.2399,-4.1919,0.0,0.0,0.0,0.0,-4.0362,-4.0176,0.0,0.0,0.0,0.0,0.0,0.0,0.0,0.0,0.0,0.0,0.0,0.0,0.0,0.0,0.0,0.0,0.0,0.0,0.0,0.0,0.0,0.0,0.0,0.0,0.0,0.0,0.0,0.0,0.0,0.0,0.0,0.0,0.0,0.0,0.0,0.0,0.0,0.0,0.0,0.0,0.0,0.0,0.0,0.0,0.0,0.0,0.0,0.0,0.0,0.0,0.0,0.0,0.0,0.0,0.0,0.0,-3.5816,-3.857,-4.119,-4.3633,-4.4601,-4.4676,-4.3932,-4.3723,-4.1671,0.0,0.0,0.0,0.0,0.0,0.0,0.0,0.0,0.0,0.0,0.0,0.0,0.0,0.0,0.0,0.0,0.0,0.0,0.0,0.0,0.0,0.0,0.0,0.0,0.0,0.0,0.0,0.0,0.0,0.0,0.0,0.0,0.0,0.0,0.0,0.0,0.0,0.0,0.0,0.0,0.0,-4.2112,-4.2118,-4.2692,-4.3121,0.0,0.0,-4.1307,-4.1915,-4.1415,0.0,0.0,0.0,0.0,0.0,0.0,0.0,0.0,0.0,0.0,0.0,0.0,0.0,0.0,0.0,0.0,0.0,0.0,0.0,0.0,0.0,0.0,0.0,0.0,0.0,0.0,0.0,0.0,0.0,0.0,0.0,0.0,0.0,0.0,0.0,0.0,0.0,0.0,0.0,0.0,0.0,0.0,0.0,0.0,0.0,0.0,0.0,0.0,0.0,0.0,0.0,0.0,0.0,0.0,0.0,-3.1621,-3.4491,-3.8003,-4.08,-4.2793,-4.3721,-4.3987,-4.361,-4.2171,-3.9847,0.0,0.0,0.0,0.0,0.0,0.0,0.0,0.0,0.0,0.0,0.0,0.0,0.0,0.0,0.0,0.0,0.0,0.0,0.0,0.0,0.0,0.0,0.0,0.0,0.0,0.0,0.0,0.0,0.0,0.0,0.0,0.0,0.0,0.0,0.0,0.0,0.0,0.0,0.0,0.0,0.0,0.0,-4.4005,-4.4256,0.0,0.0,0.0,-4.3216,-4.3066,0.0,0.0,0.0,0.0,0.0,0.0,0.0,0.0,0.0,0.0,0.0,0.0,0.0,0.0,0.0,0.0,0.0,0.0,0.0,0.0,0.0,0.0,0.0,0.0,0.0,0.0,0.0,0.0,0.0,0.0,0.0,0.0,0.0,0.0,0.0,0.0,0.0,0.0,0.0,0.0,0.0,0.0,0.0,0.0,0.0,0.0,0.0,0.0,0.0,0.0,0.0,0.0,0.0,0.0,0.0,0.0,0.0,-3.3429,-3.7633,-4.0507,-4.1952,-4.2839,-4.3162,-4.2918,-4.0832,0.0,0.0,0.0,0.0,0.0,0.0,0.0,0.0,0.0,0.0,0.0,0.0,0.0,0.0,0.0,0.0,0.0,0.0,0.0,0.0,0.0,0.0,0.0,0.0,0.0,0.0,0.0,-2.6054,0.0,0.0,0.0,0.0,0.0,0.0,0.0,0.0,0.0,0.0,0.0,0.0,0.0,0.0,-4.2421,-4.5021,-4.5275,-4.5232,0.0,0.0,-4.4668,-4.4014,-4.2679,-4.111,0.0,0.0,0.0,0.0,0.0,0.0,0.0,0.0,0.0,0.0,0.0,0.0,0.0,0.0,0.0,0.0,0.0,0.0,0.0,0.0,0.0,0.0,0.0,0.0,0.0,0.0,0.0,0.0,0.0,0.0,0.0,0.0,0.0,0.0,0.0,0.0,0.0,0.0,0.0,0.0,0.0,0.0,0.0,0.0,0.0,0.0,0.0,0.0,0.0,0.0,0.0,0.0,0.0,0.0,0.0,-3.3473,-3.7617,-4.025,-4.1169,-4.1969,-4.1983,-4.1204,-4.021,-3.8459,0.0,0.0,0.0,0.0,0.0,0.0,0.0,0.0,0.0,0.0,0.0,0.0,0.0,0.0,0.0,0.0,0.0,0.0,0.0,0.0,0.0,0.0,0.0,0.0,0.0,0.0,0.0,0.0,0.0,0.0,0.0,0.0,0.0,0.0,0.0,0.0,0.0,0.0,0.0,0.0,0.0,-4.3387,-4.363,-4.5067,-4.6074,0.0,0.0,-4.4845,-4.4733,-4.3981,-4.205,-3.8026,0.0,0.0,0.0,0.0,0.0,0.0,0.0,0.0,0.0,0.0,0.0,0.0,0.0,0.0,0.0,0.0,0.0,0.0,0.0,0.0,0.0,0.0,0.0,0.0,0.0,0.0,0.0,0.0,0.0,0.0,0.0,0.0,0.0,0.0,0.0,0.0,0.0,0.0,0.0,0.0,0.0,0.0,0.0,0.0,0.0,0.0,0.0,0.0,0.0,0.0,0.0,0.0,0.0,-3.1661,-3.34,-3.709,-3.966,-4.0975,-4.1346,-4.133,-4.1011,-4.0139,-3.849,0.0,0.0,0.0,0.0,0.0,0.0,0.0,0.0,0.0,0.0,0.0,0.0,0.0,0.0,0.0,0.0,0.0,0.0,0.0,0.0,0.0,0.0,0.0,0.0,0.0,0.0,0.0,0.0,-2.9448,-2.9434,-2.9437,0.0,0.0,0.0,0.0,0.0,0.0,0.0,0.0,0.0,0.0,-4.3955,-4.5012,-4.5761,0.0,0.0,-4.5834,-4.5445,-4.4889,-4.3225,-4.1264,-3.9093,-3.6984,0.0,0.0,0.0,0.0,0.0,0.0,0.0,0.0,0.0,0.0,0.0,0.0,0.0,0.0,0.0,0.0,0.0,0.0,0.0,0.0,0.0,0.0,0.0,0.0,0.0,0.0,0.0,0.0,0.0,0.0,0.0,0.0,0.0,0.0,0.0,0.0,0.0,0.0,0.0,0.0,0.0,0.0,0.0,0.0,0.0,0.0,0.0,0.0,0.0,0.0,0.0,0.0,-3.2316,-3.3785,-3.7167,-3.9578,-4.101,-4.1022,-4.0988,-4.0964,-4.0155,-3.8587,0.0,0.0,0.0,0.0,0.0,0.0,0.0,0.0,0.0,0.0,0.0,0.0,0.0,0.0,0.0,0.0,0.0,0.0,0.0,0.0,0.0,0.0,0.0,0.0,0.0,0.0,0.0,0.0,-3.0544,-3.0521,-3.0774,0.0,0.0,0.0,0.0,0.0,0.0,0.0,0.0,0.0,0.0,-4.453,-4.5976,-4.5976,-4.5855,-4.6037,-4.5423,-4.4822,-4.4453,-4.2698,-4.0913,-3.952,0.0,0.0,0.0,0.0,0.0,0.0,0.0,0.0,0.0,0.0,0.0,0.0,0.0,0.0,0.0,0.0,0.0,0.0,0.0,0.0,0.0,0.0,0.0,0.0,0.0,0.0,0.0,0.0,0.0,0.0,-3.1845,0.0,0.0,0.0,0.0,0.0,0.0,0.0,0.0,0.0,0.0,0.0,0.0,0.0,0.0,0.0,0.0,0.0,0.0,0.0,0.0,0.0,0.0,-3.3749,-3.4687,-3.8002,-4.0203,-4.1066,-4.1039,-4.0988,-4.097,-4.0171,-3.8871,-3.7094,0.0,0.0,0.0,0.0,0.0,0.0,0.0,0.0,0.0,0.0,0.0,0.0,0.0,0.0,0.0,0.0,0.0,0.0,0.0,0.0,0.0,0.0,0.0,0.0,0.0,0.0,-3.164,-3.092,-3.0779,0.0,0.0,0.0,0.0,0.0,0.0,0.0,0.0,0.0,0.0,-4.4319,-4.5194,-4.6072,-4.5443,-4.5161,-4.5886,-4.3962,-4.2641,-4.3471,-4.2777,-4.132,0.0,0.0,0.0,0.0,0.0,0.0,0.0,0.0,0.0,0.0,0.0,0.0,0.0,0.0,0.0,0.0,0.0,0.0,0.0,0.0,0.0,0.0,0.0,0.0,0.0,0.0,0.0,-3.7564,-3.6707,0.0,0.0,0.0,0.0,0.0,0.0,0.0,0.0,0.0,0.0,0.0,-3.6332,-3.8065,0.0,0.0,0.0,0.0,0.0,0.0,0.0,0.0,0.0,0.0,0.0,0.0,-3.3827,-3.4804,-3.806,-4.022,-4.1082,-4.103,-4.099,-4.098,-4.0725,-3.9241,-3.6389,0.0,0.0,0.0,0.0,0.0,0.0,0.0,0.0,0.0,0.0,0.0,0.0,0.0,0.0,0.0,0.0,0.0,0.0,0.0,0.0,0.0,0.0,0.0,0.0,0.0,-3.2454,0.0,0.0,0.0,0.0,0.0,0.0,0.0,0.0,0.0,0.0,0.0,-4.2233,-4.4193,-4.5214,-4.5871,-4.6108,-4.5862,-4.5741,0.0,0.0,0.0,0.0,0.0,0.0,0.0,0.0,0.0,0.0,0.0,0.0,0.0,0.0,-3.5612,-3.2205,-3.0926,-3.0458,-3.0729,0.0,0.0,0.0,0.0,0.0,0.0,0.0,0.0,0.0,0.0,0.0,0.0,0.0,0.0,0.0,0.0,-3.7896,0.0,0.0,0.0,0.0,0.0,0.0,0.0,0.0,-4.0092,-4.0688,-3.9455,-4.1149,-4.0932,0.0,-3.8964,-3.7506,0.0,0.0,0.0,0.0,0.0,0.0,0.0,0.0,-3.5018,-3.5703,-3.8669,-4.0522,-4.1069,-4.1025,-4.1022,-4.1031,-4.0448,-3.8798,-3.6007,-3.5076,-3.3457,0.0,0.0,0.0,0.0,0.0,0.0,0.0,0.0,0.0,0.0,0.0,0.0,0.0,0.0,0.0,0.0,0.0,0.0,0.0,0.0,0.0,0.0,0.0,-3.2936,0.0,0.0,0.0,0.0,0.0,0.0,0.0,0.0,0.0,-3.9746,-4.1832,-4.3789,-4.5173,-4.5827,-4.6147,-4.6075,0.0,0.0,0.0,0.0,0.0,0.0,0.0,-4.2364,-4.149,-4.0446,-3.9436,-3.8542,-3.8868,-3.8674,-3.6941,0.0,0.0,-3.3818,-3.2659,-3.2172,-3.2482,-3.2708,-3.2989,-3.3574,-3.3896,-3.4471,0.0,0.0,0.0,0.0,0.0,0.0,0.0,0.0,-4.1247,-4.1224,0.0,-4.0234,0.0,0.0,0.0,0.0,0.0,-4.051,0.0,0.0,-4.393,-4.4442,-4.362,-4.3601,-4.3153,-4.2374,-4.2237,-4.1361,-3.963,-3.6415,0.0,0.0,0.0,0.0,0.0,0.0,-3.728,-3.7382,-3.9785,-4.1094,-4.1112,-4.1009,-4.0947,-4.0937,-3.9394,-3.7734,-3.6035,-3.5247,-3.3614,-3.1075,-3.088,0.0,0.0,0.0,0.0,0.0,0.0,0.0,0.0,0.0,0.0,0.0,0.0,0.0,0.0,0.0,0.0,0.0,0.0,0.0,0.0,-3.3202,0.0,0.0,0.0,0.0,0.0,0.0,0.0,0.0,0.0,0.0,-4.2067,-4.3787,-4.5161,-4.5967,0.0,0.0,0.0,0.0,-4.5131,-4.5881,-4.4635,-4.3894,-4.4676,-4.4074,-4.318,-4.2311,0.0,0.0,-3.8911,-3.8464,-3.7955,-3.6203,-3.5985,-3.5829,-3.5752,-3.4964,-3.473,-3.5465,-3.4927,-3.501,-3.6366,-3.5903,-3.6066,-4.4253,0.0,0.0,0.0,0.0,-4.1944,-4.2441,-4.3803,-4.3799,-4.3448,-4.2841,-4.1965,0.0,0.0,0.0,0.0,0.0,0.0,-4.2272,-4.2369,-4.4085,-4.4754,-4.452,-4.454,-4.4072,-4.3231,-4.2588,-4.177,-4.0721,-3.9727,-3.774,-3.4878,0.0,0.0,0.0,0.0,-3.8134,-3.8261,-4.0095,-4.1113,-4.1099,-4.0468,-3.9863,-3.9326,-3.8788,-3.7988,-3.6943,-3.6682,-3.5642,-3.3671,-3.2402,0.0,0.0,0.0,0.0,0.0,0.0,0.0,0.0,0.0,0.0,0.0,0.0,0.0,0.0,0.0,0.0,0.0,0.0,0.0,-3.4084,-3.4223,-3.4284,0.0,0.0,0.0,0.0,0.0,0.0,0.0,0.0,0.0,-4.3,-4.3656,-4.4059,0.0,0.0,-4.5789,-4.5154,-4.5365,-4.5658,-4.5904,0.0,0.0,0.0,-4.4039,-4.3199,-4.235,-4.1684,-4.1024,-4.0305,-3.9723,-3.8965,-3.7819,-3.7046,-3.6415,-3.5771,-3.548,-3.5388,-3.5631,-3.5389,-3.5475,-3.649,-3.6111,-3.6048,-4.5459,-4.4429,-4.3592,-4.3754,-4.4495,-4.3685,-4.4129,-4.5409,-4.5416,-4.5124,-4.4598,-4.4091,-4.2611,-4.0503,-4.0153,0.0,0.0,0.0,-4.3526,-4.3877,-4.4582,-4.4894,-4.4874,-4.454,-4.3936,-4.3075,-4.2549,-4.1887,-4.1107,-4.1107,-3.9864,-3.7525,0.0,0.0,-3.6282,-3.7729,-3.8517,-3.8565,-3.955,-4.0096,-4.0094,-3.9601,-3.8938,-3.8124,-3.8039,-3.7629,-3.6813,-3.6773,-3.613,-3.4744,-3.3378,-3.2051,0.0,0.0,0.0,0.0,0.0,0.0,0.0,0.0,0.0,0.0,0.0,-3.1713,0.0,0.0,0.0,0.0,-3.3336,-3.4664,-3.5591,-3.572,0.0,0.0,0.0,0.0,0.0,0.0,0.0,-4.1719,-4.1437,-4.1456,-4.2436,-4.3131,-4.3497,-4.3475,-4.4617,-4.5248,-4.4731,0.0,-4.5013,-4.5325,-4.5142,-4.4777,-4.4264,-4.3504,-4.2704,-4.182,-4.0985,-4.0305,-3.9917,-3.9237,-3.8369,-3.7482,-3.6833,-3.625,-3.5633,-3.5519,-3.5544,-3.5574,-3.547,-3.5571,-3.615,-3.5783,-3.5785,-4.5982,-4.5924,-4.5196,-4.535,-4.6016,-4.5297,-4.5445,-4.6189,-4.6208,-4.6196,-4.6199,-4.6199,-4.528,-4.3659,-4.2861,0.0,-4.3737,-4.4598,-4.5381,-4.604,-4.5264,-4.4851,-4.4754,-4.3897,-4.3075,-4.2296,-4.2237,-4.1828,-4.1127,-4.1107,-4.0698,-3.9902,-3.9821,-3.9363,-3.8544,-3.8558,-3.8571,-3.8521,-3.857,-3.8553,-3.8494,-3.8494,-3.8063,-3.7223,-3.7204,-3.6774,-3.5953,-3.5895,-3.5504,-3.4627,-3.3768,-3.2576,-3.0956,0.0,0.0,0.0,0.0,0.0,0.0,0.0,0.0,0.0,0.0,0.0,0.0,0.0,0.0,0.0,-3.4581,0.0,-3.7324,-3.7402,0.0,0.0,0.0,-3.7871,-3.8711,-3.9512,-4.0332,-4.1191,0.0,0.0,-4.1097,0.0,-4.3257,-4.3209,-4.4011,-4.4557,-4.4504,-4.3898,-4.3677,-4.4402,-4.3884,-4.3391,-4.3297,-4.2518,-4.1674,-4.0922,-4.013,-3.9353,-3.862,-3.7784,-3.6793,-3.6081,-3.5791,-3.5708,-3.5464,-3.5398,-3.5391,-3.5373,-3.5328,-3.532,-3.5549,-3.5392,-3.5493,-4.5982,-4.5982,-4.5779,-4.5857,-4.609,-4.59,-4.5962,-4.6209,-4.6212,-4.6204,-4.6199,-4.6199,-4.5592,-4.4579,-4.4384,-4.4384,-4.4637,-4.5498,-4.5634,-4.5225,-4.5011,-4.4559,-4.3874,-4.2997,-4.251,-4.2276,-4.1672,-4.1283,-4.1107,-4.1107,-4.101,-4.0779,-4.0133,-3.9379,-3.8561,-3.9156,-3.9164,-3.8505,-3.851,-3.8234,-3.7635,-3.7614,-3.7204,-3.6344,-3.6305,-3.5895,-3.5057,-3.4998,-3.4608,-3.3749,-3.2871,-3.2207,-3.1777,-2.9567,0.0,0.0,0.0,0.0,0.0,0.0,0.0,0.0,0.0,-3.3309,-3.1695,0.0,-3.459,0.0,-3.6788,-3.8046,-3.8262,-3.8281,0.0,0.0,-3.9297,-3.9629,-4.0488,-4.0762,-4.1211,-4.2031,-4.1477,-4.1245,-4.1835,-4.2165,-4.2092,-4.1561,-4.3254,-4.4375,-4.373,-4.3473,-4.3383,-4.3518,-4.3389,-4.3156,-4.2393,-4.1153,-4.0199,-4.0009,-3.9276,-3.8639,-3.8425,-3.7683,-3.7014,-3.6739,-3.6106,-3.5635,-3.5406,-3.5326,-3.5219,-3.5182,-3.5141,-3.5389,-3.6048,-3.5684,-3.543,-4.5982,-4.5982,-4.5982,-4.6026,-4.6061,-4.6071,-4.6114,-4.616,-4.6201,-4.6212,-4.6204,-4.6212,-4.5514,-4.4384,-4.4734,-4.4695,-4.4384,-4.4812,-4.4773,-4.4306,-4.3916,-4.3487,-4.2997,-4.2159,-4.177,-4.175,-4.1322,-4.0893,-4.0542,-4.0523,-4.0331,-3.9941,-3.9454,-3.8789,-3.7979,-3.8401,-3.839,-3.7929,-3.7567,-3.7156,-3.6755,-3.6734,-3.65,-3.6031,-3.6012,-3.5778,-3.531,-3.5291,-3.4881,-3.4022,-3.3144,-3.2675,-3.2636,-3.0626,-2.9767,0.0,0.0,0.0,0.0,0.0,0.0,0.0,0.0,0.0,0.0,0.0,-3.6028,0.0,-3.8357,-3.918,-3.918,-3.9531,-3.9941,-4.043,-4.0469,-4.0684,-4.1152,-4.1191,-4.1367,-4.1797,-4.1371,-4.1169,-4.1594,-4.1873,-4.1835,-4.1396,-4.2241,-4.2725,-4.226,-4.1854,-4.1603,-4.1609,-4.1312,-4.0943,-4.0463,-3.964,-3.9059,-3.9038,-3.8382,-3.7823,-3.7804,-3.71,-3.6505,-3.6406,-3.5979,-3.5415,-3.487,-3.4703,-3.4541,-3.4099,-3.3987,-3.4478,-3.5632,-3.5534,-3.5381,-4.5997,-4.5982,-4.5885,-4.5846,-4.5846,-4.5911,-4.5998,-4.612,-4.6165,-4.6123,-4.6033,-4.6033,-4.514,-4.3659,-4.4403,-4.4325,-4.362,-4.362,-4.3543,-4.3406,-4.2646,-4.2257,-4.2101,-4.1302,-4.0932,-4.0935,-4.0818,-4.037,-3.963,-3.963,-3.926,-3.8519,-3.8383,-3.7954,-3.7233,-3.7088,-3.7025,-3.7039,-3.6355,-3.6012,-3.6012,-3.6012,-3.6012,-3.6012,-3.6012,-3.5934,-3.5836,-3.5836,-3.5426,-3.4569,-3.3807,-3.3396,-3.3357,-3.1856,-3.1259,0.0,-3.1341,0.0,0.0,0.0,0.0,0.0,0.0,0.0,0.0,-3.674,-3.7734,-3.8593,-3.9529,-4.0059,-4.0059,-4.0762,-4.1152,-4.1055,-4.1133,-4.1172,-4.1055,-4.1133,-4.1191,-4.1191,-4.098,-4.0838,-4.0851,-4.1267,-4.1506,-4.1255,-4.0829,-4.0448,-4.0255,-3.9791,-3.9423,-3.921,-3.8553,-3.8402,-3.847,-3.8292,-3.8166,-3.8125,-3.7508,-3.6906,-3.6731,-3.6129,-3.5618,-3.5505,-3.543,-3.5108,-3.4212,-3.4106,-3.3743,-3.3116,-3.288,-3.3255,-3.462,-3.5018,-3.5037,-4.6,-4.5944,-4.5278,-4.5025,-4.5025,-4.503,-4.5459,-4.61,-4.611,-4.5747,-4.5157,-4.5141,-4.4584,-4.364,-4.3776,-4.3776,-4.362,-4.362,-4.3231,-4.2529,-4.2374,-4.1945,-4.1283,-4.0445,-4.0036,-4.0,-3.9334,-3.8909,-3.8733,-3.8733,-3.8656,-3.848,-3.7798,-3.737,-3.7155,0.0,0.0,0.0,-3.6066,-3.6012,-3.6012,-3.6012,-3.6012,-3.6012,-3.6012,0.0,-3.4979,-3.4959,-3.4549,-3.369,-3.3474,0.0,0.0,0.0,0.0,0.0,0.0,0.0,0.0,0.0,0.0,0.0,-3.6184,-3.6373,-3.5976,-3.7992,-3.9429,-3.9628,-4.0429,-4.0937,-4.0957,-4.1094,-4.0918,-4.0254,-4.0762,-4.0937,-4.0273,-4.0742,-4.1191,-4.1191,-4.0455,-3.9964,-3.9919,-3.9389,-3.8972,-3.9056,-3.8792,-3.8386,-3.7812,-3.8179,-3.8179,-3.7522,-3.721,-3.745,-3.8204,-3.7609,-3.7205,-3.7232,-3.6634,-3.5857,-3.5216,-3.4964,-3.475,-3.4702,-3.4638,-3.4693,-3.4937,-3.4539,-3.3788,-3.3664,-3.3037,-3.2931,-3.3998,-3.4243,-3.4216,-4.575,0.0,-4.4962,-4.4559,0.0,-4.4151,-4.4414,-4.4856,-4.5274,-4.4757,-4.3662,-4.4079,-4.3545,-4.2325,-4.276,-4.2744,-4.2374,-4.2374,-4.214,-4.1711,-4.1711,-4.1263,-4.0448,-4.0,-3.9571,-3.9162,-3.8714,-3.8285,-3.7876,-3.7876,-3.7642,-3.7194,-3.6785,-3.6551,-3.6532,-3.6155,-3.5763,-3.535,-3.5791,-3.5778,-3.5408,-3.5778,-3.6012,-3.6012,0.0,0.0,0.0,0.0,0.0,0.0,0.0,0.0,0.0,0.0,0.0,-3.3965,-3.3981,-3.414,-3.4517,-3.4976,-3.5418,-3.5814,-3.6682,-3.7382,-3.7774,-3.9099,-4.0078,-4.0488,-4.0566,-4.0566,-4.0566,-4.0566,-4.0215,-3.9414,-3.9648,-3.9726,-3.9414,-4.0019,-4.0371,-4.0,-3.9825,-3.9594,-3.9145,-3.8638,-3.8272,-3.8218,-3.7846,-3.7386,-3.7038,-3.727,-3.7116,-3.5869,-3.5285,-3.5214,-3.5679,-3.5867,-3.5788,-3.5771,-3.5799,-3.5449,-3.4633,-3.4482,-3.4381,-3.4027,-3.3752,-3.3668,-3.3492,-3.3081,-3.2577,-3.2126,-3.1688,-3.1722,-3.2573,-3.3089,-3.3349,-4.5384,-4.4503,-4.4699,-4.4204,-4.3277,-4.3413,-4.3413,-4.3335,0.0,0.0,0.0,-4.3031,-4.2482,-4.1064,-4.176,-4.163,-4.0893,-4.0874,-4.0776,-4.064,-4.0643,-4.0253,-3.9571,-3.9393,-3.8967,-3.8266,-3.811,-3.7662,-3.6999,-3.696,-3.6532,-3.5752,-3.5675,-3.5577,-3.5482,-3.5507,-3.5108,-3.433,-3.5243,-3.5428,-3.4746,-3.5389,-3.5836,-3.6012,-3.6012,-3.6012,-3.6012,-3.6012,-3.568,-3.4979,-3.494,-3.492,-3.494,-3.492,-3.5251,-3.5914,-3.6012,-3.5983,-3.5921,-3.5977,-3.6044,-3.6127,-3.6852,-3.7948,-3.9479,-3.9626,-3.998,-4.0684,-4.0078,-3.9668,-3.9668,-3.9668,-3.9316,-3.8476,-3.8496,-3.8555,-3.8457,-3.9141,-3.9414,-3.8789,-3.9015,-3.9078,-3.837,-3.7972,-3.7756,-3.7549,-3.6837,-3.6361,-3.627,-3.6082,-3.5637,-3.4472,-3.366,-3.3063,-3.3307,-3.3867,-3.4248,-3.4377,-3.4886,-3.5022,-3.4323,-3.407,-3.3798,-3.3177,-3.2871,-3.2563,-3.2085,-3.1808,-3.113,-3.0288,-3.0023,-3.0109,-3.0701,-3.1458,-3.205,-4.4994,-4.3649,-4.4406,-4.382,-4.2442,-4.318,-4.3083,-4.2461,-4.3302,-4.3122,-4.2231,-4.2348,-4.1887,-4.1009,-4.1146,-4.0747,-3.998,-3.998,-3.9591,0.0,-3.887,-3.8811,-3.8636,-3.7915,-3.7506,-3.7331,-3.6649,-3.6201,-3.6103,-3.6084,-3.5636,-3.4876,-3.4778,-3.445,-3.3809,-3.3774,-3.3335,-3.2533,-3.4054,-3.4822,-3.4707,-3.4822,-3.5252,-3.5973,-3.5973,-3.6012,-3.6012,-3.5992,-3.5934,-3.5836,-3.5817,-3.5817,-3.5817,-3.5817,-3.5875,-3.5992,-3.6012,-3.5991,-3.5988,-3.598,-3.632,-3.7028,-3.7226,-3.7715,-3.8652,-3.8769,-3.8828,-3.8965,-3.8887,-3.8789,-3.8769,-3.8769,-3.8437,-3.7676,-3.8144,-3.8301,-3.7598,-3.8242,-3.8691,-3.8476,-3.7961,-3.7576,-3.7298,-3.6598,-3.5826,-3.5247,-3.5059,-3.4559,-3.3984,-3.3626,-3.3548,-3.3248,-3.2607,-3.2458,-3.2873,-3.3297,-3.3464,-3.3468,-3.3623,-3.3565,-3.2726,-3.2571,-3.2474,-3.2202,-3.2057,-3.211,-3.2433,-3.2084,-3.1076,-3.0173,-2.9509,-2.9032,-2.8676,-2.9108,-2.9961,-4.5176,-4.4102,-4.3995,-4.3299,-4.2208,-4.2126,-4.1859,-4.1548,-4.1917,-4.1864,-4.1524,-4.1522,-4.1092,-4.0315,-4.0287,-3.9854,-3.9091,-3.9111,-3.888,-3.8539,-3.8519,-3.8246,-3.7798,-3.7389,-3.696,-3.6454,-3.5616,-3.519,-3.5168,-3.4778,-3.4333,-3.3963,-3.3943,-3.3748,-3.3419,-3.3384,-3.2964,-3.2143,-3.3332,-3.3768,-3.3319,-3.3749,-3.4197,-3.4567,-3.4587,-3.4821,-3.5271,-3.5291,-3.5504,-3.5973,-3.6012,-3.6012,-3.6012,-3.6012,-3.6012,-3.6012,-3.6012,-3.6012,-3.6012,-3.6003,-3.6186,-3.6541,-3.6582,-3.6758,-3.7148,-3.7617,-3.8086,-3.8516,-3.8203,-3.7891,-3.7891,-3.7891,-3.7539,-3.668,-3.6973,-3.7031,-3.6777,-3.7363,-3.7695,-3.7266,-3.6834,-3.6382,-3.5894,-3.5038,-3.4366,-3.3955,-3.3828,-3.341,-3.2599,-3.2453,-3.2447,-3.2374,-3.177,-3.146,-3.1821,-3.2295,-3.2551,-3.2609,-3.3021,-3.2885,-3.2205,-3.1988,-3.1774,-3.1386,-3.1211,-3.1062,-3.1079,-3.0569,-2.9858,-2.9059,-2.8599,-2.8058,-2.7829,-2.802,-2.8822,-4.5267,-4.4266,-4.387,-4.3103,-4.2149,-4.1267,-4.0888,-4.0888,-4.0713,-4.0635,-4.064,-4.0678,-4.0317,-3.9723,-3.9501,-3.8956,-3.8277,-3.8202,-3.8092,-3.7909,-3.7912,-3.7564,-3.698,-3.6902,-3.6454,-3.5616,-3.4915,-3.4508,-3.4272,-3.369,-3.33,-3.3125,-3.293,-3.283,-3.2832,-3.2814,-3.2473,-3.189,-3.2471,-3.2576,-3.215,-3.2773,-3.3201,-3.3396,-3.3396,-3.371,-3.4374,-3.4588,-3.4998,-3.566,-3.5895,-3.6012,-3.6012,-3.6012,-3.6012,-3.6012,-3.6012,-3.6012,-3.6012,-3.6004,-3.6011,-3.6013,-3.6015,-3.6016,-3.6055,-3.6621,-3.7285,-3.7812,-3.7363,-3.6992,-3.6992,-3.7012,-3.6738,-3.6094,-3.6016,-3.6094,-3.6094,-3.6621,-3.666,-3.5898,-3.5703,-3.5391,-3.4551,-3.3819,-3.3368,-3.3134,-3.2987,-3.2574,-3.1829,-3.1767,-3.188,-3.1557,-3.1092,-3.0808,-3.0749,-3.1254,-3.1658,-3.1697,-3.2011,-3.1856,-3.1386,-3.1231,-3.0881,-3.0182,-3.0036,-2.9763,-2.911,-2.8914,-2.8505,-2.7764,-2.7453,-2.7377,-2.7358,-2.7358,-2.7854,-4.4879,-4.3647,-4.4156,-4.3592,-4.213,-4.1247,-4.0888,-4.0771,-4.0126,-3.9796,-3.98,-3.98,-3.974,-3.9602,-3.8867,-3.8082,-3.7345,-3.7323,-3.692,-3.6261,-3.6137,-3.6086,-3.6025,-3.5986,-3.5558,-3.48,-3.4567,-3.4118,-3.3534,-3.3378,-3.2988,-3.2209,-3.1427,-3.1113,-3.1076,-3.109,-3.1022,-3.0915,-3.0985,-3.1382,-3.207,-3.2189,-3.2597,-3.3357,-3.3377,-3.3435,-3.3533,-3.4276,-3.4725,-3.4861,-3.5543,-3.5973,-3.5973,-3.5992,-3.5973,-3.5973,-3.5973,-3.6012,-3.6012,-3.6019,-3.6007,-3.6011,-3.6013,-3.6015,-3.6016,-3.6094,-3.6133,-3.6309,-3.6211,-3.6191,-3.6133,-3.6172,-3.6172,-3.6055,-3.6016,-3.6016,-3.5976,-3.6074,-3.5801,-3.4922,-3.4766,-3.4492,-3.3691,-3.3254,-3.2918,-3.2229,-3.1863,-3.1589,-3.1155,-3.1345,-3.1559,-3.1041,-3.0713,-3.0713,-3.0713,-3.0733,-3.0884,-3.0826,-3.0243,-3.001,-2.9774,-2.9191,-2.845,-2.8958,-2.8547,-2.8473,-2.8221,-2.8024,-2.7681,-2.6902,-2.6565,-2.6517,-2.6517,-2.6517,-2.6956,-4.4685,-4.406,-4.3911,-4.2877,-4.141,-4.1029,-4.0612,-4.0092,-3.983,-3.9407,-3.8887,-3.8382,-3.8173,-3.8147,-3.7793,-3.7183,-3.6405,-3.6377,-3.6216,-3.5846,-3.5368,-3.5143,-3.509,-3.4645,-3.4216,-3.3865,-3.3378,-3.2969,-3.2599,-3.2129,-3.168,-3.1349,-3.0957,-3.0801,-3.0801,-3.0795,-3.0786,-3.0799,-3.0788,-3.0971,-3.1288,-3.1328,-3.1503,-3.1815,-3.1854,-3.2128,-3.2597,-3.2988,-3.3417,-3.3886,-3.4275,-3.445,-3.445,-3.4435,-3.4413,-3.4488,-3.4959,-3.5467,-3.5973,-3.6019,-3.6005,-3.6007,-3.6011,-3.6013,-3.6015,-3.6015,-3.6015,-3.6016,-3.6016,-3.6016,-3.5996,-3.6016,-3.6016,-3.6016,-3.6016,-3.5801,-3.5273,-3.5234,-3.4902,-3.4062,-3.3496,-3.3125,-3.2617,-3.1776,-3.1259,-3.1024,-3.0519,-2.995,-3.0484,-3.0626,-3.0591,-3.0739,-3.0733,-3.0694,-3.0688,-3.0694,-3.048,-3.003,-2.9661,-2.9327,-2.8667,-2.8434,-2.8123,-2.8065,-2.7987,-2.7734,-2.7369,-2.7245,-2.6962,-2.6202,-2.5746,-2.5682,-2.5682,-2.5682,-2.5892,-4.4581,-4.4427,-4.344,-4.1993,-4.0466,-4.0513,-4.0048,-3.9262,-3.9063,-3.8611,-3.7994,-3.712,-3.6751,-3.6731,-3.6751,-3.639,-3.5858,-3.5803,-3.5705,-3.5503,-3.487,-3.4492,-3.4188,-3.369,-3.3261,-3.2988,-3.2423,-3.1995,-3.1722,-3.1152,-3.0801,-3.0801,-3.0801,-3.0801,-3.0801,-3.0791,-3.0802,-3.0794,-3.0785,-3.0792,-3.0798,-3.08,-3.08,-3.08,-3.08,-3.1094,-3.1699,-3.1974,-3.2383,-3.3007,-3.326,-3.3394,-3.3365,-3.3323,-3.3314,-3.3388,-3.3938,-3.4679,-3.5535,-3.5603,-3.5687,-3.5884,-3.5929,-3.5958,-3.5928,-3.5755,-3.5739,-3.5976,-3.58,-3.5625,-3.5644,-3.543,-3.5293,-3.5293,-3.5293,-3.5,-3.4434,-3.4355,-3.3926,-3.2871,-3.2207,-3.1601,-3.1074,-3.0078,-2.953,-2.9798,-2.9055,-2.8508,-2.9628,-2.9513,-2.94,-3.0,-3.0003,-3.0096,-3.0311,-3.0277,-2.994,-2.9292,-2.8845,-2.8359,-2.7812,-2.7657,-2.7404,-2.6938,-2.7288,-2.7259,-2.6646,-2.6408,-2.6366,-2.5635,-2.529,-2.5269,-2.5327,-2.5233,-2.5229,-4.4581,-4.4291,-4.2808,-4.1065,-3.9586,-3.9638,-3.9165,-3.8307,-3.7613,-3.7219,-3.7038,-3.63,-3.5872,-3.5853,-3.5911,-3.5853,-3.5799,-3.5757,-3.5364,-3.4752,-3.4568,-3.4116,-3.3396,-3.337,-3.2949,-3.2209,-3.2053,-3.1622,-3.0957,-3.084,-3.0801,-3.0801,-3.0801,-3.0801,-3.0801,-3.0801,-3.0789,-3.0784,-3.0794,-3.0785,-3.0792,-3.0798,-3.08,-3.08,-3.08,-3.082,-3.0976,-3.166,-3.2109,-3.2148,-3.2868,-3.3287,-3.3256,-3.3229,-3.3167,-3.318,-3.3229,-3.3656,-3.4415,-3.4577,-3.4853,-3.5502,-3.5584,-3.5783,-3.5713,-3.5084,-3.5079,-3.5912,-3.5229,-3.4743,-3.4687,-3.4316,-3.3867,-3.3809,-3.3633,-3.3594,-3.3496,-3.3457,-3.2676,-3.1465,-3.0937,-3.0312,-2.8867,-2.8437,-2.8437,-2.8516,-2.83,-2.8259,-2.8415,-2.8377,-2.8376,-2.8468,-2.8546,-2.8625,-2.932,-2.9499,-2.9091,-2.8443,-2.7792,-2.7139,-2.6728,-2.6378,-2.6064,-2.5851,-2.6048,-2.6042,-2.5741,-2.5635,-2.5658,-2.5387,-2.5341,-2.5297,-2.5287,-2.5223,-2.5214,-4.1835,-4.1235,-4.0087,-3.9216,-3.8719,-3.8734,-3.8271,-3.7467,-3.7211,-3.6783,-3.6263,-3.5926,-3.5484,-3.4983,-3.5562,-3.5795,-3.5736,-3.5224,-3.4828,-3.4473,-3.3476,-3.2791,-3.2519,-3.2018,-3.1615,-3.133,-3.1252,-3.1113,-3.084,-3.0801,-3.0801,-3.0801,-3.0801,-3.0801,-3.0801,-3.0801,-3.0789,-3.08,-3.0786,-3.0796,-3.0791,-3.0795,-3.0796,-3.08,-3.08,-3.08,-3.08,-3.1114,-3.1262,-3.1223,-3.1531,-3.1648,-3.1582,-3.1572,-3.1815,-3.224,-3.2346,-3.2741,-3.3522,-3.3681,-3.3778,-3.4038,-3.4119,-3.4445,-3.4739,-3.4308,-3.4355,-3.5302,-3.4567,-3.3873,-3.3942,-3.4061,-3.4238,-3.416,-3.3691,-3.3125,-3.2754,-3.2598,-3.1973,-3.0429,-2.9628,-2.8925,-2.8358,-2.7811,-2.7713,-2.8064,-2.7342,-2.7225,-2.7908,-2.7829,-2.7575,-2.8105,-2.8223,-2.8105,-2.7807,-2.8384,-2.8354,-2.7684,-2.7037,-2.6607,-2.6206,-2.6009,-2.5737,-2.5737,-2.5621,-2.5601,-2.5612,-2.5583,-2.5495,-2.5476,-2.5415,-2.5374,-2.537,-2.5307,-2.5266,-3.9887,-3.903,-3.845,-3.8019,-3.7793,-3.7815,-3.7367,-3.6618,-3.6639,-3.6333,-3.5862,-3.5797,-3.5305,-3.4692,-3.5119,-3.5212,-3.4998,-3.4614,-3.4253,-3.3704,-3.2541,-3.1877,-3.1568,-3.1073,-3.0789,-3.0738,-3.0487,-3.0256,-2.9983,-2.9964,-2.9964,-2.9925,-3.0217,-3.0392,-3.0412,-3.0665,-3.0786,-3.0793,-3.0767,-3.0774,-3.0769,-3.0745,-3.0724,-3.0728,-3.073,-3.0737,-3.0747,-3.0757,-3.0717,-3.0669,-3.0664,-3.0636,-3.0587,-3.0548,-3.078,-3.1274,-3.1376,-3.1799,-3.2563,-3.2723,-3.2835,-3.3087,-3.3134,-3.3443,-3.3926,-3.3278,-3.3629,-3.4313,-3.3775,-3.2916,-3.3306,-3.3608,-3.3698,-3.3474,-3.2949,-3.2402,-3.1835,-3.1523,-3.0527,-2.9022,-2.7967,-2.7536,-2.7399,-2.6929,-2.689,-2.7417,-2.6359,-2.6337,-2.7059,-2.7038,-2.6741,-2.7328,-2.7299,-2.7048,-2.6836,-2.7061,-2.7245,-2.6671,-2.6541,-2.6128,-2.5915,-2.5696,-2.5607,-2.5604,-2.5601,-2.5601,-2.5589,-2.5548,-2.5531,-2.5524,-2.5484,-2.5436,-2.5415,-2.5384,-2.5361,-3.8914,-3.816,-3.8174,-3.7593,-3.6961,-3.6909,-3.6455,-3.5857,-3.579,-3.5776,-3.5615,-3.5706,-3.5118,-3.4513,-3.44,-3.407,-3.3468,-3.3895,-3.3511,-3.2302,-3.199,-3.1492,-3.0837,-3.0826,-3.0706,-3.063,-2.992,-2.9124,-2.8459,-2.8457,-2.8437,-2.8478,-2.9131,-2.9477,-2.9472,-3.0144,-3.0636,-3.063,-3.0573,-3.0622,-3.0697,-3.0639,-3.063,-3.061,-3.0607,-3.0633,-3.0682,-3.0639,-3.0607,-3.0597,-3.0597,-3.0556,-3.0486,-3.0455,-3.0416,-3.0504,-3.046,-3.0858,-3.1563,-3.1709,-3.2035,-3.2478,-3.2825,-3.2817,-3.2904,-3.2328,-3.2298,-3.3149,-3.267,-3.2269,-3.284,-3.2551,-3.197,-3.112,-3.1261,-3.1125,-3.0794,-3.0092,-2.8941,-2.7455,-2.6476,-2.5816,-2.5757,-2.5847,-2.5939,-2.592,-2.5822,-2.5743,-2.6055,-2.5998,-2.5805,-2.5844,-2.6121,-2.6202,-2.5931,-2.574,-2.5741,-2.5711,-2.5803,-2.5697,-2.5726,-2.5602,-2.5595,-2.5607,-2.5604,-2.5604,-2.5601,-2.5583,-2.5586,-2.5573,-2.552,-2.5499,-2.5491,-2.5472,-2.5425,-3.6709,-3.6477,-3.6477,-3.6342,-3.6091,-3.6071,-3.5903,-3.5701,-3.5697,-3.5369,-3.4923,-3.4878,-3.4104,-3.3142,-3.3348,-3.2885,-3.1661,-3.2361,-3.2474,-3.1953,-3.1397,-3.0996,-3.0753,-3.0704,-3.0431,-2.9946,-2.9647,-2.9012,-2.8243,-2.8082,-2.8123,-2.8142,-2.8313,-2.8465,-2.8472,-2.8759,-2.9105,-2.9625,-2.9722,-2.9997,-3.0548,-3.0591,-3.0598,-3.0586,-3.056,-3.0543,-3.0564,-3.0598,-3.0587,-3.055,-3.0527,-3.0501,-3.0439,-3.0402,-3.0404,-3.0404,-3.0404,-3.0462,-3.0731,-3.0827,-3.0942,-3.116,-3.1224,-3.153,-3.1956,-3.1395,-3.1603,-3.2748,-3.237,-3.2007,-3.2166,-3.2062,-3.1688,-3.1588,-3.1068,-3.0447,-2.9809,-2.8614,-2.7573,-2.6926,-2.61,-2.5626,-2.557,-2.5565,-2.557,-2.5572,-2.5605,-2.5619,-2.5641,-2.5673,-2.5707,-2.5707,-2.5687,-2.5684,-2.5688,-2.5692,-2.5681,-2.5664,-2.5635,-2.5618,-2.5629,-2.5613,-2.5611,-2.5612,-2.5612,-2.5596,-2.5613,-2.561,-2.5596,-2.561,-2.557,-2.5564,-2.5567,-2.5531,-2.5485,-3.5584,-3.5639,-3.562,-3.5662,-3.5704,-3.5704,-3.5516,-3.5245,-3.5222,-3.4754,-3.4091,-3.4002,-3.3253,-3.2237,-3.254,-3.2007,-3.0849,-3.1292,-3.1506,-3.1444,-3.102,-3.0717,-3.0626,-3.0305,-2.9557,-2.8665,-2.8471,-2.798,-2.7122,-2.7099,-2.7059,-2.7059,-2.7341,-2.752,-2.7558,-2.7849,-2.8294,-2.8696,-2.878,-2.9055,-2.9552,-2.9891,-3.0031,-3.0064,-3.0323,-3.0442,-3.0486,-3.0506,-3.0506,-3.0472,-3.0456,-3.0439,-3.039,-3.0404,-3.0404,-3.0404,-3.0404,-3.0404,-3.0404,-3.0442,-3.0404,-3.0404,-3.0404,-3.0615,-3.1037,-3.0681,-3.1099,-3.1741,-3.1597,-3.1299,-3.1332,-3.1294,-3.1308,-3.1331,-3.0895,-3.0118,-2.9035,-2.7671,-2.6712,-2.6324,-2.5807,-2.5582,-2.5504,-2.5504,-2.5504,-2.551,-2.5534,-2.5556,-2.558,-2.5598,-2.5632,-2.5642,-2.5644,-2.5645,-2.5672,-2.568,-2.5687,-2.568,-2.5664,-2.5661,-2.5657,-2.5621,-2.5603,-2.5602,-2.5611,-2.5615,-2.5609,-2.5598,-2.5615,-2.56,-2.5607,-2.5604,-2.5582,-2.5579,-2.5543,-3.5381,-3.5477,-3.5509,-3.5584,-3.5673,-3.5684,-3.5264,-3.4529,-3.4452,-3.3984,-3.3268,-3.3122,-3.2622,-3.1957,-3.1829,-3.1414,-3.0823,-3.0771,-3.0819,-3.0757,-3.0563,-3.0423,-3.0141,-2.9517,-2.845,-2.7219,-2.6931,-2.6393,-2.5716,-2.5677,-2.5398,-2.5672,-2.629,-2.662,-2.67,-2.7417,-2.7699,-2.7835,-2.7928,-2.8029,-2.8242,-2.8907,-2.9321,-2.9374,-3.0023,-3.0402,-3.0408,-3.0419,-3.0408,-3.0385,-3.0421,-3.0396,-3.0404,-3.0404,-3.0404,-3.0404,-3.0404,-3.0404,-3.0404,-3.0404,-3.0404,-3.0404,-3.0404,-3.0404,-3.0487,-3.0498,-3.0485,-3.0677,-3.0581,-3.0498,-3.0504,-3.0523,-3.051,-3.0439,-3.0268,-2.9547,-2.83,-2.7275,-2.6353,-2.5751,-2.5508,-2.5489,-2.5473,-2.5473,-2.5496,-2.548,-2.5483,-2.5495,-2.5501,-2.5532,-2.5529,-2.5532,-2.5563,-2.5589,-2.56,-2.5605,-2.5636,-2.5627,-2.563,-2.5661,-2.5664,-2.564,-2.5605,-2.5604,-2.5605,-2.5616,-2.5606,-2.5597,-2.5601,-2.5604,-2.5598,-2.5612,-2.5608,-2.5583,-2.5605,-3.5281,-3.5367,-3.545,-3.5528,-3.5559,-3.5656,-3.5182,-3.4452,-3.4355,-3.3455,-3.2426,-3.2237,-3.1777,-3.1009,-3.1014,-3.0878,-3.0723,-3.0699,-3.0638,-3.0453,-2.9907,-2.9246,-2.8736,-2.8403,-2.7716,-2.6796,-2.6571,-2.6217,-2.537,-2.5331,-2.5298,-2.5261,-2.5512,-2.5622,-2.5669,-2.5915,-2.6269,-2.6864,-2.7478,-2.8021,-2.8664,-2.9433,-2.999,-3.0096,-3.0269,-3.0398,-3.0404,-3.0404,-3.0404,-3.0404,-3.0404,-3.0404,-3.0404,-3.0404,-3.0404,-3.0404,-3.0404,-3.0404,-3.0404,-3.0379,-3.0398,-3.0404,-3.0361,-3.0404,-3.0404,-3.0398,-3.0404,-3.0404,-3.0404,-3.0392,-3.0398,-3.0392,-3.0392,-3.0237,-2.9445,-2.855,-2.7894,-2.6626,-2.5584,-2.5406,-2.5357,-2.5361,-2.5365,-2.538,-2.538,-2.537,-2.5406,-2.5441,-2.5448,-2.5457,-2.5467,-2.5492,-2.5521,-2.5524,-2.5529,-2.5537,-2.5561,-2.5566,-2.5582,-2.5636,-2.5654,-2.5683,-2.5641,-2.5613,-2.5617,-2.5615,-2.5609,-2.5602,-2.5608,-2.5616,-2.5636,-2.5658,-2.5636,-2.5624,-2.565,-3.5113,-3.5176,-3.5289,-3.5383,-3.5445,-3.5155,-3.4556,-3.3832,-3.3315,-3.2469,-3.1389,-3.1188,-3.0953,-3.0505,-3.0511,-3.0535,-3.0544,-3.0539,-3.0472,-3.0216,-2.9142,-2.8163,-2.7508,-2.7292,-2.6858,-2.6145,-2.6083,-2.5755,-2.5334,-2.5266,-2.5248,-2.5233,-2.521,-2.521,-2.526,-2.5229,-2.5396,-2.5918,-2.6432,-2.7069,-2.7935,-2.879,-2.9184,-2.9496,-2.9892,-3.0367,-3.0292,-3.0215,-3.0247,-3.0349,-3.0404,-3.0404,-3.0404,-3.0404,-3.0404,-3.0404,-3.0404,-3.0404,-3.0373,-3.0323,-3.0267,-3.0254,-3.0221,-3.0188,-3.0174,-3.02,-3.0181,-3.0174,-3.0181,-3.0181,-3.0181,-3.02,-3.02,-2.9995,-2.8689,-2.7801,-2.7874,-2.6376,-2.5462,-2.5308,-2.5308,-2.5308,-2.5308,-2.5308,-2.5308,-2.5303,-2.5345,-2.5367,-2.5376,-2.5387,-2.5391,-2.5391,-2.542,-2.5431,-2.5451,-2.5463,-2.5504,-2.5507,-2.5518,-2.5589,-2.5653,-2.5674,-2.5662,-2.5625,-2.5625,-2.5643,-2.5642,-2.5641,-2.5658,-2.5675,-2.5692,-2.5684,-2.5671,-2.5658,-2.568,-3.4917,-3.4971,-3.507,-3.5178,-3.5147,-3.4438,-3.3673,-3.2781,-3.2026,-3.1194,-3.0522,-3.0337,-3.0419,-3.0304,-3.0346,-3.0315,-3.0325,-3.0353,-3.0056,-2.9433,-2.8273,-2.7063,-2.6409,-2.6335,-2.5959,-2.5412,-2.5228,-2.5241,-2.5208,-2.5222,-2.5216,-2.521,-2.521,-2.521,-2.521,-2.521,-2.5185,-2.5251,-2.557,-2.6028,-2.6785,-2.765,-2.8211,-2.8236,-2.9347,-3.003,-3.0049,-3.0019,-3.0041,-3.033,-3.0343,-3.0318,-3.033,-3.0336,-3.033,-3.0318,-3.0286,-3.0292,-3.0299,-3.0155,-3.0087,-3.0066,-2.9969,-2.9902,-2.9942,-2.9958,-2.9958,-2.9965,-2.991,-2.9942,-2.995,-2.9918,-2.9942,-2.9749,-2.8484,-2.7819,-2.7558,-2.6383,-2.5269,-2.5293,-2.5274,-2.5308,-2.5308,-2.5308,-2.5303,-2.5233,-2.5239,-2.5229,-2.5219,-2.518,-2.5201,-2.522,-2.526,-2.5335,-2.5368,-2.5402,-2.5434,-2.5473,-2.5473,-2.5518,-2.5603,-2.5633,-2.566,-2.5669,-2.5657,-2.5661,-2.5682,-2.5683,-2.5702,-2.5703,-2.5703,-2.57,-2.5695,-2.5691,-2.569,-3.4798,-3.484,-3.4982,-3.4698,-3.4219,-3.409,-3.3201,-3.1847,-3.159,-3.0963,-3.042,-3.0305,-3.0286,-3.0292,-3.0273,-3.031,-3.0266,-3.0163,-2.96,-2.8071,-2.7063,-2.6077,-2.5482,-2.5368,-2.5272,-2.51,-2.5125,-2.5156,-2.5199,-2.5205,-2.521,-2.521,-2.521,-2.5205,-2.518,-2.5168,-2.5094,-2.5095,-2.5563,-2.5903,-2.6311,-2.7425,-2.7975,-2.7747,-2.8553,-2.9349,-2.9844,-2.9918,-2.9934,-2.9981,-3.0023,-3.0004,-3.0045,-3.0053,-3.0053,-3.006,-3.0026,-3.0019,-2.9996,-2.9981,-2.9912,-2.9847,-2.9761,-2.9902,-2.9913,-2.984,-2.9848,-2.9902,-2.9902,-2.9869,-2.9861,-2.9894,-2.9869,-2.9626,-2.8869,-2.821,-2.8061,-2.6486,-2.5367,-2.5217,-2.5247,-2.5284,-2.5279,-2.5264,-2.5238,-2.5165,-2.5126,-2.5097,-2.5049,-2.5012,-2.5031,-2.508,-2.5113,-2.5186,-2.5216,-2.5269,-2.5327,-2.5372,-2.5406,-2.5425,-2.5518,-2.5572,-2.56,-2.5637,-2.5675,-2.5681,-2.5665,-2.5684,-2.5685,-2.5692,-2.5698,-2.5702,-2.5703,-2.5703,-2.5701,-3.4727,-3.4711,-3.4425,-3.41,-3.3703,-3.301,-3.2226,-3.1448,-3.0927,-3.0517,-3.0192,-3.0116,-3.0116,-3.0116,-3.0118,-3.0107,-2.9999,-2.9676,-2.8847,-2.7587,-2.6548,-2.5635,-2.4964,-2.4805,-2.4811,-2.4987,-2.5075,-2.5119,-2.5162,-2.5174,-2.521,-2.521,-2.5205,-2.515,-2.5063,-2.5057,-2.498,-2.4889,-2.5238,-2.5612,-2.6125,-2.6781,-2.781,-2.7763,-2.8072,-2.8477,-2.9628,-2.9672,-2.9663,-2.9682,-2.9682,-2.9753,-2.9869,-2.9902,-2.9902,-2.9902,-2.9902,-2.9902,-2.9894,-2.9782,-2.958,-2.9211,-2.9104,-2.9052,-2.9062,-2.9062,-2.9325,-2.955,-2.9673,-2.9654,-2.9682,-2.9673,-2.9663,-2.9438,-2.8526,-2.7879,-2.7556,-2.6464,-2.5558,-2.5469,-2.5329,-2.5168,-2.5109,-2.5143,-2.509,-2.5,-2.4993,-2.4968,-2.4994,-2.4961,-2.4948,-2.4968,-2.4975,-2.5012,-2.5043,-2.5107,-2.52,-2.5255,-2.5293,-2.5339,-2.5406,-2.546,-2.5515,-2.5564,-2.5591,-2.5603,-2.5609,-2.5627,-2.5652,-2.5687,-2.5699,-2.5688,-2.5694,-2.5698,-2.5702,-3.4403,-3.432,-3.3566,-3.3289,-3.3086,-3.1793,-3.117,-3.1009,-3.0287,-2.9997,-2.9916,-2.9916,-2.9948,-2.9886,-2.9672,-2.9618,-2.9187,-2.8526,-2.7573,-2.6983,-2.6005,-2.5247,-2.4701,-2.4559,-2.4588,-2.4893,-2.4934,-2.4974,-2.5019,-2.5088,-2.5057,-2.5114,-2.5101,-2.5006,-2.4888,-2.4861,-2.4797,-2.4692,-2.4725,-2.4971,-2.5506,-2.5914,-2.6846,-2.7961,-2.7609,-2.8025,-2.9158,-2.9472,-2.9419,-2.9388,-2.9388,-2.9466,-2.9565,-2.9782,-2.9687,-2.9641,-2.9475,-2.9307,-2.9082,-2.9052,-2.8745,-2.8183,-2.8035,-2.8051,-2.8125,-2.8322,-2.8705,-2.914,-2.9401,-2.9295,-2.9209,-2.9031,-2.8965,-2.8658,-2.7554,-2.695,-2.6711,-2.6347,-2.5844,-2.5643,-2.5258,-2.5019,-2.4968,-2.4974,-2.4922,-2.4855,-2.4842,-2.4835,-2.4828,-2.4832,-2.4782,-2.4804,-2.4825,-2.4903,-2.4949,-2.4968,-2.5061,-2.5115,-2.5171,-2.5203,-2.5234,-2.525,-2.5299,-2.5457,-2.552,-2.5521,-2.5529,-2.5546,-2.5581,-2.5648,-2.566,-2.5629,-2.5644,-2.5679,-2.5689,-3.2982,-3.2982,-3.2415,-3.1815,-3.1268,-3.1082,-3.071,-3.0202,-2.9969,-2.991,-2.9899,-2.9907,-2.9864,-2.9696,-2.8942,-2.8256,-2.7651,-2.6931,-2.6352,-2.5997,-2.522,-2.4571,-2.4479,-2.4363,-2.4424,-2.4491,-2.4562,-2.4651,-2.4757,-2.4783,-2.4823,-2.4805,-2.4813,-2.4764,-2.4742,-2.4719,-2.4631,-2.4485,-2.4451,-2.4584,-2.4726,-2.5245,-2.6274,-2.7706,-2.7202,-2.7768,-2.8938,-2.9368,-2.9388,-2.9388,-2.9388,-2.9028,-2.8817,-2.9136,-2.9089,-2.8651,-2.8427,-2.8212,-2.7876,-2.7503,-2.7326,-2.7158,-2.7129,-2.7472,-2.7843,-2.8113,-2.8452,-2.9008,-2.9174,-2.8924,-2.8215,-2.8294,-2.7655,-2.7149,-2.6859,-2.6492,-2.6319,-2.5822,-2.5226,-2.5022,-2.4885,-2.4821,-2.4723,-2.4663,-2.4625,-2.457,-2.4546,-2.4524,-2.4491,-2.451,-2.4512,-2.4588,-2.466,-2.4787,-2.4895,-2.4902,-2.4929,-2.4955,-2.4994,-2.5,-2.5031,-2.4994,-2.5072,-2.5221,-2.5364,-2.5439,-2.5443,-2.5462,-2.5476,-2.5525,-2.5523,-2.5538,-2.5561,-2.5583,-2.5638,-3.1366,-3.1378,-3.1115,-3.088,-3.0599,-3.0219,-2.9935,-2.9729,-2.9617,-2.9598,-2.9589,-2.9598,-2.9579,-2.9355,-2.8652,-2.7746,-2.6823,-2.607,-2.5735,-2.5494,-2.4755,-2.4238,-2.4211,-2.4127,-2.4117,-2.4145,-2.4211,-2.4353,-2.4583,-2.4673,-2.4657,-2.4689,-2.4681,-2.4642,-2.4569,-2.4534,-2.4434,-2.4321,-2.4294,-2.4266,-2.4182,-2.4639,-2.5583,-2.6554,-2.6863,-2.7365,-2.853,-2.892,-2.8925,-2.8913,-2.8925,-2.8686,-2.8539,-2.8532,-2.8632,-2.7943,-2.7443,-2.7214,-2.7008,-2.6825,-2.6395,-2.6027,-2.6266,-2.6667,-2.7126,-2.7493,-2.8191,-2.8809,-2.9044,-2.8817,-2.845,-2.8212,-2.7823,-2.7166,-2.6626,-2.6166,-2.5681,-2.4985,-2.4581,-2.4312,-2.432,-2.4327,-2.4309,-2.4283,-2.4292,-2.4293,-2.4256,-2.4229,-2.4192,-2.4192,-2.4238,-2.4257,-2.4356,-2.4476,-2.4612,-2.4674,-2.4719,-2.4741,-2.479,-2.4811,-2.4835,-2.4821,-2.4876,-2.498,-2.513,-2.5255,-2.535,-2.5354,-2.5363,-2.5371,-2.541,-2.5443,-2.5453,-2.5493,-2.5543,-2.9899,-3.0039,-2.9575,-2.9727,-3.0016,-2.9259,-2.9103,-2.9339,-2.9334,-2.9184,-2.9081,-2.9202,-2.912,-2.8635,-2.789,-2.7025,-2.6225,-2.5401,-2.5151,-2.4956,-2.4292,-2.3901,-2.3901,-2.3788,-2.3689,-2.3742,-2.3806,-2.405,-2.4373,-2.4503,-2.4545,-2.4459,-2.4485,-2.4407,-2.422,-2.4136,-2.4116,-2.4077,-2.4036,-2.4036,-2.4006,-2.4028,-2.4558,-2.5884,-2.5998,-2.6554,-2.7719,-2.79,-2.807,-2.8197,-2.8263,-2.8251,-2.8232,-2.82,-2.7931,-2.7328,-2.6586,-2.6551,-2.625,-2.6055,-2.5328,-2.4928,-2.5531,-2.5925,-2.6528,-2.7245,-2.8027,-2.8561,-2.8706,-2.853,-2.8246,-2.833,-2.7761,-2.6909,-2.6161,-2.5665,-2.4838,-2.4234,-2.3966,-2.3803,-2.3842,-2.3878,-2.3923,-2.402,-2.4069,-2.4059,-2.402,-2.4001,-2.3988,-2.3947,-2.3958,-2.3947,-2.4009,-2.4135,-2.4247,-2.4355,-2.4415,-2.4483,-2.4543,-2.4575,-2.4636,-2.4697,-2.4723,-2.473,-2.4835,-2.4962,-2.5099,-2.5186,-2.5149,-2.5146,-2.5269,-2.5346,-2.5363,-2.5399,-2.5439,-2.8878,-2.9391,-2.7477,-2.753,-2.8706,-2.8246,-2.8444,-2.9018,-2.9066,-2.8825,-2.8305,-2.88,-2.8381,-2.7267,-2.6249,-2.5121,-2.4306,-2.4071,-2.3992,-2.393,-2.3539,-2.3427,-2.352,-2.3295,-2.3324,-2.3383,-2.3417,-2.3685,-2.4009,-2.4191,-2.4125,-2.3981,-2.3933,-2.3811,-2.3681,-2.3688,-2.3504,-2.3511,-2.3522,-2.3533,-2.3533,-2.3511,-2.4107,-2.4751,-2.5098,-2.5512,-2.6459,-2.6681,-2.6832,-2.7428,-2.7495,-2.7495,-2.7423,-2.7271,-2.6757,-2.6349,-2.5973,-2.5613,-2.4747,-2.44,-2.4364,-2.4288,-2.4793,-2.5427,-2.6357,-2.7367,-2.8185,-2.8444,-2.843,-2.8089,-2.7624,-2.7264,-2.6347,-2.5694,-2.5227,-2.4574,-2.3827,-2.3602,-2.3313,-2.3259,-2.3265,-2.3484,-2.3621,-2.3735,-2.3827,-2.3806,-2.3785,-2.3753,-2.3732,-2.3667,-2.3721,-2.3742,-2.3764,-2.3888,-2.4009,-2.4097,-2.4126,-2.4201,-2.4266,-2.4311,-2.4346,-2.4379,-2.4415,-2.4441,-2.4534,-2.4591,-2.4667,-2.4754,-2.4809,-2.4923,-2.5034,-2.5173,-2.5274,-2.5321,-2.5296,-2.5928,-2.6212,-2.5725,-2.6096,-2.6987,-2.7007,-2.717,-2.7517,-2.7826,-2.7856,-2.7624,-2.7504,-2.6885,-2.5834,-2.5168,-2.4435,-2.3651,-2.3481,-2.3394,-2.3277,-2.3157,-2.3152,-2.323,-2.317,-2.3133,-2.3133,-2.3242,-2.3383,-2.3642,-2.3689,-2.3653,-2.3599,-2.3566,-2.3566,-2.3357,-2.3392,-2.3403,-2.3432,-2.3421,-2.3421,-2.3387,-2.3377,-2.3667,-2.4449,-2.4417,-2.4943,-2.5566,-2.5605,-2.5776,-2.6272,-2.6387,-2.6373,-2.6452,-2.6561,-2.6489,-2.5729,-2.5321,-2.484,-2.4235,-2.3691,-2.3708,-2.4153,-2.4787,-2.5732,-2.6734,-2.7384,-2.7816,-2.7762,-2.7855,-2.7621,-2.7277,-2.7093,-2.6403,-2.5638,-2.4745,-2.4064,-2.3463,-2.2959,-2.2742,-2.2721,-2.2738,-2.2945,-2.3159,-2.3301,-2.3359,-2.3347,-2.3335,-2.333,-2.333,-2.3336,-2.3452,-2.3609,-2.3631,-2.3685,-2.3795,-2.3899,-2.3881,-2.3931,-2.3951,-2.3991,-2.3981,-2.4011,-2.405,-2.404,-2.4041,-2.4118,-2.422,-2.4476,-2.47,-2.4768,-2.4825,-2.4923,-2.5012,-2.4962,-2.4962,-2.3294,-2.3377,-2.4112,-2.4855,-2.5582,-2.5684,-2.5831,-2.6087,-2.6433,-2.6581,-2.6337,-2.5781,-2.5164,-2.4799,-2.4397,-2.3821,-2.3301,-2.3289,-2.3182,-2.3047,-2.2947,-2.2922,-2.2935,-2.2935,-2.2884,-2.2935,-2.2935,-2.298,-2.297,-2.3051,-2.3123,-2.3306,-2.3335,-2.3277,-2.3224,-2.3165,-2.3146,-2.3074,-2.3129,-2.3087,-2.3002,-2.2998,-2.3244,-2.3541,-2.3761,-2.4012,-2.4744,-2.4775,-2.4737,-2.5239,-2.5615,-2.5816,-2.6108,-2.6465,-2.6314,-2.5669,-2.5169,-2.4761,-2.4227,-2.378,-2.3706,-2.4263,-2.5011,-2.5857,-2.6907,-2.7195,-2.7147,-2.7148,-2.7258,-2.7227,-2.7098,-2.6912,-2.614,-2.5401,-2.4766,-2.4047,-2.3363,-2.2773,-2.2422,-2.2453,-2.2426,-2.2344,-2.2556,-2.2773,-2.2854,-2.2854,-2.2854,-2.2884,-2.291,-2.2935,-2.298,-2.3092,-2.3092,-2.3099,-2.3195,-2.3357,-2.3466,-2.3606,-2.3617,-2.3692,-2.3703,-2.3664,-2.3656,-2.3642,-2.3599,-2.3706,-2.3834,-2.4238,-2.4596,-2.4599,-2.4639,-2.4681,-2.4712,-2.4676,-2.4704,-2.1921,-2.1997,-2.26,-2.3698,-2.4955,-2.4309,-2.4534,-2.5134,-2.5349,-2.5086,-2.459,-2.3869,-2.3957,-2.405,-2.3689,-2.3192,-2.2786,-2.2768,-2.2733,-2.264,-2.2515,-2.2504,-2.2497,-2.2422,-2.2374,-2.2415,-2.2436,-2.2364,-2.2265,-2.2341,-2.2643,-2.3028,-2.2943,-2.2897,-2.2807,-2.2712,-2.2634,-2.2598,-2.2634,-2.251,-2.2375,-2.2323,-2.2436,-2.2321,-2.2296,-2.2319,-2.2513,-2.3102,-2.3769,-2.4427,-2.4913,-2.538,-2.5713,-2.6114,-2.588,-2.5413,-2.5013,-2.4662,-2.4273,-2.3877,-2.3793,-2.4371,-2.5015,-2.5659,-2.6438,-2.6674,-2.6691,-2.6573,-2.6539,-2.6607,-2.6421,-2.6132,-2.548,-2.4827,-2.4195,-2.3562,-2.2916,-2.2425,-2.2132,-2.2169,-2.2017,-2.1755,-2.1711,-2.1871,-2.2385,-2.2439,-2.2506,-2.2537,-2.2466,-2.2466,-2.2412,-2.2422,-2.2395,-2.2395,-2.2412,-2.2582,-2.2903,-2.308,-2.3129,-2.3294,-2.3444,-2.3398,-2.3153,-2.3224,-2.3218,-2.3335,-2.35,-2.3852,-2.4155,-2.4355,-2.4434,-2.4425,-2.4503,-2.4555,-2.4586,-2.1198,-2.1214,-2.143,-2.221,-2.3272,-2.3328,-2.3468,-2.3707,-2.4092,-2.3958,-2.343,-2.3353,-2.3498,-2.3611,-2.3443,-2.2994,-2.2788,-2.3182,-2.2687,-2.2235,-2.2082,-2.2098,-2.198,-2.1844,-2.1738,-2.1797,-2.1811,-2.1884,-2.1884,-2.1792,-2.1984,-2.224,-2.2251,-2.2254,-2.2158,-2.2127,-2.2073,-2.2044,-2.2089,-2.2015,-2.194,-2.1715,-2.1668,-2.1607,-2.1425,-2.1809,-2.2312,-2.2215,-2.2806,-2.346,-2.3957,-2.4365,-2.4724,-2.5043,-2.5005,-2.4649,-2.4344,-2.4166,-2.4283,-2.4017,-2.4204,-2.4464,-2.4811,-2.5083,-2.5631,-2.5589,-2.5491,-2.5454,-2.5601,-2.5693,-2.5368,-2.5153,-2.474,-2.4084,-2.349,-2.2924,-2.2457,-2.1956,-2.1666,-2.1601,-2.1215,-2.083,-2.0846,-2.0895,-2.1517,-2.2017,-2.2119,-2.2147,-2.2003,-2.1946,-2.1874,-2.1845,-2.183,-2.1903,-2.1948,-2.2164,-2.2402,-2.2493,-2.2599,-2.2764,-2.2898,-2.2656,-2.2512,-2.2643,-2.2797,-2.2873,-2.3057,-2.3432,-2.3717,-2.3963,-2.4079,-2.4116,-2.4238,-2.4356,-2.4373,-2.0414,-2.0414,-2.0399,-2.0943,-2.1783,-2.2188,-2.229,-2.2262,-2.2622,-2.2702,-2.2436,-2.2676,-2.2822,-2.2834,-2.2698,-2.2486,-2.2418,-2.2734,-2.2442,-2.2199,-2.2037,-2.2037,-2.1746,-2.1424,-2.1279,-2.1295,-2.1182,-2.1213,-2.1118,-2.1228,-2.1165,-2.1134,-2.1197,-2.1244,-2.1597,-2.1491,-2.143,-2.1384,-2.1477,-2.14,-2.1291,-2.118,-2.1022,-2.0975,-2.0798,-2.1,-2.1604,-2.1788,-2.2225,-2.2712,-2.3044,-2.3095,-2.3213,-2.333,-2.3451,-2.3284,-2.3127,-2.3051,-2.3326,-2.4075,-2.4369,-2.4533,-2.4484,-2.4579,-2.4642,-2.4665,-2.4736,-2.4648,-2.4697,-2.4641,-2.4425,-2.4346,-2.4108,-2.351,-2.2788,-2.2232,-2.1886,-2.145,-2.1178,-2.0988,-2.0691,-2.064,-2.0365,-2.0451,-2.0634,-2.1117,-2.118,-2.1227,-2.1227,-2.1211,-2.1273,-2.1273,-2.1304,-2.1411,-2.1547,-2.1577,-2.1637,-2.1857,-2.1972,-2.2116,-2.2158,-2.1979,-2.1982,-2.2164,-2.2286,-2.2381,-2.2556,-2.2784,-2.3195,-2.3628,-2.3724,-2.3808,-2.379,-2.3903,-2.3943,-1.9525,-1.951,-1.9525,-2.0028,-2.0714,-2.0843,-2.0925,-2.1007,-2.1103,-2.123,-2.1352,-2.1404,-2.1438,-2.147,-2.1536,-2.152,-2.1663,-2.2145,-2.2207,-2.2041,-2.2095,-2.2372,-2.1978,-2.1442,-2.0794,-2.1033,-2.0713,-2.0268,-2.0045,-2.0302,-2.0146,-1.9904,-1.9955,-2.0273,-2.1054,-2.0815,-2.0586,-2.0486,-2.0717,-2.0601,-2.0466,-2.0451,-2.0316,-2.0331,-2.0124,-2.024,-2.0768,-2.1269,-2.1703,-2.2174,-2.2222,-2.2316,-2.2474,-2.2077,-2.1817,-2.1404,-2.1723,-2.167,-2.1403,-2.3153,-2.3754,-2.3829,-2.3548,-2.3539,-2.3999,-2.4116,-2.3945,-2.3597,-2.3927,-2.4053,-2.3912,-2.3636,-2.3234,-2.2737,-2.198,-2.1562,-2.1206,-2.0882,-2.0568,-2.0138,-2.0572,-2.087,-2.0395,-2.0089,-2.0019,-2.0143,-2.0225,-2.0311,-2.0466,-2.0616,-2.0749,-2.0781,-2.083,-2.0814,-2.0911,-2.083,-2.0879,-2.1133,-2.1304,-2.1411,-2.1519,-2.1459,-2.1521,-2.169,-2.1763,-2.1803,-2.1922,-2.2068,-2.2542,-2.2984,-2.3369,-2.3511,-2.3459,-2.3482,-2.3613,-1.8841,-1.8826,-1.8826,-1.8849,-1.903,-1.9943,-2.0249,-2.0114,-2.0076,-2.0162,-2.0351,-2.0266,-2.0474,-2.0705,-2.0793,-2.0839,-2.1145,-2.1736,-2.1978,-2.1446,-2.1771,-2.1486,-2.1128,-2.0749,-2.0211,-1.9831,-1.9498,-1.9319,-1.889,-1.9461,-1.9336,-1.9008,-1.8997,-1.9386,-1.9952,-2.0039,-1.9984,-1.9949,-2.0019,-2.0,-1.9821,-1.9573,-1.9502,-1.9714,-1.9454,-1.9564,-2.0073,-2.0547,-2.084,-2.1198,-2.1153,-2.0854,-2.1003,-2.0653,-2.0285,-2.0111,-2.0382,-2.0362,-2.0237,-2.1041,-2.1693,-2.1965,-2.1959,-2.1851,-2.2206,-2.1981,-2.2073,-2.2392,-2.2651,-2.2606,-2.2209,-2.2175,-2.1886,-2.1465,-2.0932,-2.0781,-2.0494,-2.0152,-1.9775,-1.9251,-1.9293,-1.9342,-1.9066,-1.9307,-1.9345,-1.9487,-1.9612,-1.9889,-2.0089,-2.0227,-2.0348,-2.0364,-2.0381,-2.0311,-2.0243,-2.011,-2.0179,-2.0435,-2.0535,-2.0584,-2.0699,-2.0878,-2.0878,-2.091,-2.1071,-2.1213,-2.1368,-2.1567,-2.1909,-2.2317,-2.2703,-2.3076,-2.3165,-2.3288,-2.3448,-1.7565,-1.7585,-1.7619,-1.7483,-1.7471,-1.8759,-1.9203,-1.8964,-1.8877,-1.8989,-1.9126,-1.9016,-1.9116,-1.9469,-1.9624,-1.9845,-2.0167,-2.0777,-2.121,-2.0677,-2.1066,-2.0968,-2.0579,-1.9971,-1.9712,-1.9179,-1.8973,-1.8779,-1.8638,-1.9176,-1.9003,-1.8481,-1.8284,-1.8645,-1.8993,-1.9073,-1.8955,-1.8822,-1.875,-1.8841,-1.876,-1.8731,-1.8689,-1.8994,-1.9024,-1.8973,-1.9338,-1.9489,-1.9516,-1.9704,-1.9364,-1.8899,-1.9012,-1.8796,-1.8351,-1.8193,-1.8102,-1.8107,-1.8188,-1.8059,-1.8791,-1.9895,-1.9633,-2.0348,-2.1111,-2.1331,-2.1338,-2.1441,-2.1293,-2.1331,-2.1307,-2.1259,-2.1051,-2.0691,-2.0505,-2.0351,-2.0114,-1.9779,-1.9347,-1.8776,-1.8532,-1.8308,-1.8206,-1.829,-1.8616,-1.8826,-1.9031,-1.9293,-1.9515,-1.9561,-1.9582,-1.9561,-1.9471,-1.927,-1.927,-1.9361,-1.9489,-1.974,-1.9844,-1.9879,-2.0089,-2.0313,-2.0224,-2.0152,-2.0345,-2.0549,-2.0797,-2.1038,-2.1274,-2.1607,-2.2026,-2.2407,-2.278,-2.2947,-2.3045,-1.5798,-1.5788,-1.5923,-1.5988,-1.616,-1.7158,-1.7605,-1.7592,-1.7605,-1.7652,-1.7692,-1.7698,-1.7746,-1.7719,-1.7679,-1.8009,-1.8535,-1.9163,-1.956,-1.9897,-2.0043,-2.0173,-1.9987,-1.9412,-1.8947,-1.9023,-1.8798,-1.8156,-1.8557,-1.8298,-1.8064,-1.8013,-1.7791,-1.7837,-1.7836,-1.7898,-1.7878,-1.7912,-1.7801,-1.7888,-1.7914,-1.7889,-1.8124,-1.8417,-1.8565,-1.8423,-1.8526,-1.8477,-1.8224,-1.7819,-1.7078,-1.6857,-1.6592,-1.6221,-1.5661,-1.5383,-1.5439,-1.5754,-1.6023,-1.5951,-1.6442,-1.7986,-1.9212,-2.0361,-2.0745,-2.0498,-2.036,-2.0514,-2.0569,-2.083,-2.0977,-2.0904,-2.0817,-2.054,-2.033,-2.0124,-1.9907,-1.9558,-1.913,-1.879,-1.8702,-1.8625,-1.875,-1.874,-1.8226,-1.8227,-1.8357,-1.8174,-1.8351,-1.8414,-1.8419,-1.84,-1.8277,-1.8074,-1.8193,-1.8588,-1.8708,-1.8958,-1.9207,-1.9317,-1.9536,-1.9681,-1.9678,-1.9675,-1.9711,-1.9909,-2.0261,-2.04,-2.0469,-2.0847,-2.1224,-2.1755,-2.2141,-2.2272,-2.2354,-1.5634,-1.5377,-1.541,-1.5141,-1.4687,-1.4801,-1.5694,-1.7016,-1.6938,-1.6833,-1.682,-1.6426,-1.6464,-1.6799,-1.6139,-1.664,-1.7148,-1.7567,-1.7981,-1.8332,-1.8764,-1.8674,-1.852,-1.8289,-1.7864,-1.7545,-1.7268,-1.7198,-1.6721,-1.6675,-1.722,-1.7319,-1.7139,-1.6849,-1.6728,-1.6719,-1.7143,-1.7429,-1.7269,-1.713,-1.7221,-1.7329,-1.76,-1.7795,-1.7994,-1.787,-1.7873,-1.7352,-1.7098,-1.7104,-1.608,-1.5683,-1.6068,-1.5649,-1.52,-1.5165,-1.5165,-1.521,-1.5278,-1.5452,-1.5804,-1.6388,-1.7647,-1.8324,-1.8756,-1.8946,-1.8924,-1.9354,-1.9543,-1.9633,-1.9658,-1.9633,-1.9633,-1.9516,-1.9348,-1.9186,-1.8951,-1.8647,-1.824,-1.81,-1.8048,-1.8298,-1.8536,-1.8539,-1.8035,-1.7901,-1.7685,-1.7432,-1.729,-1.7395,-1.7557,-1.7544,-1.7469,-1.7387,-1.7666,-1.8068,-1.8074,-1.8159,-1.8447,-1.8655,-1.8717,-1.8869,-1.9087,-1.9232,-1.931,-1.9512,-1.9803,-1.9861,-1.9816,-2.0002,-2.0365,-2.0943,-2.1446,-2.1613,-2.1763,-1.4492,-1.4284,-1.4377,-1.4192,-1.3899,-1.3695,-1.4491,-1.5487,-1.5432,-1.5344,-1.531,-1.5005,-1.5142,-1.5453,-1.507,-1.5398,-1.648,-1.6417,-1.6665,-1.7195,-1.7335,-1.7385,-1.7269,-1.723,-1.7197,-1.6721,-1.6607,-1.6859,-1.6127,-1.6174,-1.6693,-1.6782,-1.6481,-1.6222,-1.6116,-1.6214,-1.6548,-1.6822,-1.6819,-1.6469,-1.6457,-1.6659,-1.6857,-1.7027,-1.7171,-1.7165,-1.698,-1.6181,-1.5788,-1.5528,-1.4267,-1.4013,-1.4333,-1.4103,-1.4076,-1.4,-1.3976,-1.3827,-1.3823,-1.4139,-1.4689,-1.5256,-1.5775,-1.614,-1.6918,-1.7415,-1.7867,-1.8347,-1.8248,-1.8201,-1.8147,-1.812,-1.8147,-1.8174,-1.8105,-1.802,-1.7784,-1.7517,-1.7312,-1.714,-1.7241,-1.7508,-1.769,-1.78,-1.7678,-1.7279,-1.7012,-1.6842,-1.6624,-1.6585,-1.6825,-1.7005,-1.693,-1.6854,-1.716,-1.738,-1.7462,-1.7551,-1.7848,-1.7988,-1.7982,-1.8028,-1.8226,-1.8577,-1.8917,-1.9072,-1.9203,-1.9199,-1.9203,-1.9402,-1.9603,-2.0019,-2.06,-2.1055,-2.1197,-1.2788,-1.273,-1.2885,-1.3054,-1.3314,-1.3208,-1.328,-1.3362,-1.3341,-1.3454,-1.3614,-1.3553,-1.3799,-1.4121,-1.3851,-1.4256,-1.4858,-1.4987,-1.5048,-1.5967,-1.5803,-1.5785,-1.5957,-1.6319,-1.5963,-1.6468,-1.6532,-1.5915,-1.6557,-1.6245,-1.5821,-1.617,-1.5957,-1.5691,-1.556,-1.5334,-1.544,-1.5526,-1.5508,-1.5253,-1.515,-1.5414,-1.5913,-1.6055,-1.6055,-1.5921,-1.5433,-1.4633,-1.3671,-1.2954,-1.2439,-1.2351,-1.252,-1.2763,-1.2868,-1.2915,-1.3096,-1.2988,-1.2992,-1.3237,-1.34,-1.3651,-1.37,-1.4497,-1.5511,-1.6236,-1.6774,-1.6925,-1.6834,-1.6817,-1.6817,-1.6789,-1.6817,-1.6845,-1.6785,-1.6903,-1.6956,-1.6977,-1.7226,-1.7143,-1.7368,-1.7568,-1.7557,-1.7716,-1.7696,-1.697,-1.6677,-1.6564,-1.6172,-1.6029,-1.6035,-1.6321,-1.6247,-1.617,-1.629,-1.6518,-1.6774,-1.6964,-1.716,-1.738,-1.7387,-1.738,-1.7372,-1.7787,-1.8226,-1.8392,-1.847,-1.8528,-1.8669,-1.8936,-1.9105,-1.9217,-1.9645,-2.0212,-2.0549,-1.2438,-1.1839,-1.1283,-1.1107,-1.1166,-1.1166,-1.1182,-1.1166,-1.1166,-1.1942,-1.3013,-1.2897,-1.2837,-1.293,-1.2383,-1.2649,-1.3217,-1.3269,-1.313,-1.3467,-1.3652,-1.3891,-1.3879,-1.4159,-1.4266,-1.4293,-1.4382,-1.4523,-1.4582,-1.4484,-1.4396,-1.4218,-1.4231,-1.4291,-1.4291,-1.4039,-1.405,-1.4147,-1.4147,-1.4337,-1.4546,-1.5018,-1.5526,-1.511,-1.4812,-1.4968,-1.4581,-1.4082,-1.3747,-1.346,-1.2811,-1.258,-1.25,-1.2786,-1.2941,-1.2977,-1.2833,-1.2699,-1.2735,-1.286,-1.3165,-1.352,-1.3876,-1.4238,-1.4728,-1.5119,-1.5381,-1.5429,-1.5516,-1.5545,-1.5574,-1.5574,-1.5574,-1.5574,-1.5574,-1.5872,-1.614,-1.6524,-1.6954,-1.7218,-1.7489,-1.7478,-1.739,-1.741,-1.7512,-1.7389,-1.7206,-1.6917,-1.614,-1.5739,-1.5288,-1.5429,-1.5447,-1.5434,-1.5568,-1.569,-1.5964,-1.6095,-1.6222,-1.6471,-1.6761,-1.6879,-1.6942,-1.7186,-1.7475,-1.7754,-1.7935,-1.7982,-1.8147,-1.8397,-1.8611,-1.8712,-1.8808,-1.927,-1.9648,-1.0872,-1.0399,-0.9802,-0.9614,-0.964,-0.964,-0.9658,-0.9633,-0.9633,-1.02,-1.1145,-1.1236,-1.1372,-1.1507,-1.0914,-1.1005,-1.1593,-1.1451,-1.1563,-1.1659,-1.1704,-1.1881,-1.1981,-1.2135,-1.2373,-1.245,-1.2533,-1.2617,-1.2572,-1.2625,-1.2678,-1.2564,-1.2564,-1.2602,-1.2602,-1.2609,-1.2674,-1.2788,-1.2918,-1.3236,-1.3793,-1.4214,-1.4392,-1.3922,-1.3785,-1.3893,-1.3635,-1.3194,-1.2871,-1.2789,-1.2283,-1.2242,-1.2221,-1.2414,-1.2555,-1.2572,-1.2519,-1.2552,-1.2552,-1.2697,-1.2888,-1.2957,-1.3318,-1.3416,-1.2641,-1.3058,-1.4332,-1.451,-1.4864,-1.4952,-1.4952,-1.4952,-1.4952,-1.4952,-1.4952,-1.507,-1.5216,-1.5428,-1.5624,-1.5737,-1.5871,-1.5881,-1.5843,-1.5804,-1.5941,-1.6186,-1.6242,-1.6364,-1.5774,-1.5301,-1.4868,-1.465,-1.4724,-1.4925,-1.5164,-1.5175,-1.5186,-1.5265,-1.532,-1.5555,-1.5842,-1.6269,-1.6582,-1.6731,-1.6976,-1.731,-1.7475,-1.7482,-1.7523,-1.7727,-1.7988,-1.8226,-1.8305,-1.8383,-1.8755,-0.8889,-0.8731,-0.8416,-0.8344,-0.8443,-0.8469,-0.8475,-0.8475,-0.8397,-0.8282,-0.8352,-0.8879,-0.9279,-0.9688,-0.9736,-0.9996,-1.0132,-1.0138,-1.0235,-1.0241,-1.0248,-1.0387,-1.0474,-1.0524,-1.0649,-1.0836,-1.1023,-1.1117,-1.1179,-1.1217,-1.1224,-1.1164,-1.1157,-1.1164,-1.1234,-1.1296,-1.1398,-1.1644,-1.1835,-1.1966,-1.2419,-1.2948,-1.3105,-1.3025,-1.2742,-1.2657,-1.2409,-1.204,-1.1563,-1.1501,-1.1495,-1.1507,-1.1554,-1.1648,-1.1747,-1.1763,-1.1733,-1.1631,-1.1575,-1.1678,-1.151,-1.1458,-1.2028,-1.1934,-1.118,-1.1648,-1.2917,-1.3442,-1.3795,-1.4163,-1.4133,-1.4133,-1.4133,-1.4231,-1.4222,-1.4321,-1.438,-1.4499,-1.4569,-1.461,-1.4619,-1.4638,-1.4608,-1.4558,-1.4669,-1.4867,-1.4965,-1.5028,-1.496,-1.458,-1.4188,-1.4132,-1.4215,-1.444,-1.4588,-1.4616,-1.4511,-1.4559,-1.464,-1.4732,-1.4937,-1.5332,-1.5766,-1.6185,-1.6466,-1.6646,-1.6934,-1.7018,-1.7081,-1.7162,-1.7338,-1.7585,-1.7564,-1.7686,-1.7968,-0.7909,-0.7581,-0.7133,-0.7052,-0.7219,-0.7213,-0.7305,-0.7305,-0.6854,-0.6524,-0.6298,-0.6027,-0.6681,-0.8755,-0.876,-0.8736,-0.8489,-0.8613,-0.879,-0.8892,-0.8581,-0.8811,-0.8869,-0.8585,-0.873,-0.8986,-0.9305,-0.9673,-0.942,-0.9603,-0.9812,-0.9698,-0.9736,-0.9774,-0.9844,-0.9901,-0.9926,-1.0249,-1.0319,-1.0325,-1.0853,-1.1485,-1.2358,-1.2135,-1.1611,-1.1461,-1.1207,-1.0812,-1.0635,-1.0577,-1.0657,-1.0669,-1.0716,-1.081,-1.0911,-1.0979,-1.0956,-1.092,-1.0901,-1.0953,-1.0794,-1.0653,-1.1048,-1.0986,-1.0577,-1.0679,-1.1454,-1.1547,-1.2004,-1.2773,-1.2895,-1.2895,-1.2903,-1.3177,-1.3268,-1.3541,-1.3722,-1.4052,-1.4312,-1.4312,-1.4312,-1.4321,-1.4321,-1.4291,-1.4282,-1.4423,-1.4364,-1.4404,-1.459,-1.4099,-1.3559,-1.3625,-1.3719,-1.3559,-1.3583,-1.3796,-1.3799,-1.3842,-1.3965,-1.4142,-1.4305,-1.4421,-1.4823,-1.5366,-1.5579,-1.57,-1.5986,-1.643,-1.6665,-1.6734,-1.6803,-1.6892,-1.6897,-1.7039,-1.7359]},{"header":{"parameterUnit":"m.s-1","parameterCategory":1,"la1":31.0,"la2":29.5877,"lo1":-88.7671,"lo2":-86.6584,"dy":0.0162,"dx":0.0185,"nx":115,"ny":88,"refTime":"2023-08-22T06:00:00:Z","depth":0,"parameterNumber":3,"parameterNumberName":"V-component_of_WINDS"},"data":[0.0,0.0,0.0,0.0,0.0,0.0,0.0,0.0,0.0,0.0,0.0,0.0,0.0,0.0,0.0,0.0,0.0,0.0,0.0,0.0,0.0,0.0,0.0,0.0,0.0,0.0,0.0,0.0,0.0,0.0,0.0,0.0,0.0,0.0,0.0,0.0,0.0,0.0,0.0,0.0,0.0,0.0,0.0,0.0,0.0,0.0,0.0,0.0,0.0,0.0,0.0,0.0,0.0,0.0,0.0,0.0,0.0,0.0,0.0,0.0,0.0,0.0,0.0,0.0,0.0,0.0,0.0,0.0,0.0,0.0,0.0,0.0,0.0,0.0,0.0,0.0,0.0,0.0,0.0,0.0,0.0,0.0,0.0,0.0,0.0,0.0,0.0,0.0,0.0,0.0,0.0,0.0,0.0,0.0,0.0,0.0,0.0,0.0,0.0,0.0,0.0,0.0,0.0,0.0,0.0,0.0,0.0,0.0,0.0,0.0,0.0,0.0,0.0,0.0,0.0,0.0,0.0,0.0,0.0,0.0,0.0,0.0,0.0,0.0,0.0,0.0,0.0,0.0,0.0,0.0,0.0,0.0,0.0,0.0,0.0,0.0,0.0,0.0,0.0,0.0,0.0,0.0,0.0,0.0,0.0,0.0,0.0,0.0,0.0,0.0,0.0,0.0,0.0,0.0,0.0,0.0,0.0,0.0,0.0,0.0,0.0,0.0,0.0,0.0,0.0,0.0,0.0,0.0,0.0,0.0,0.0,0.0,0.0,0.0,0.0,0.0,0.0,0.0,0.0,0.0,0.0,0.0,0.0,0.0,0.0,0.0,0.0,0.0,0.0,0.0,0.0,0.0,0.0,0.0,0.0,0.0,0.0,0.0,0.0,0.0,0.0,0.0,0.0,0.0,0.0,0.0,0.0,0.0,0.0,0.0,0.0,0.0,0.0,0.0,0.0,0.0,0.0,0.0,0.0,0.0,0.0,0.0,0.0,0.0,0.0,0.0,0.0,0.0,0.0,0.0,0.0,0.0,0.0,0.0,0.0,0.0,0.0,0.0,0.0,0.0,0.0,0.0,0.0,0.0,0.0,0.0,0.0,0.0,0.0,0.0,0.0,0.0,0.0,0.0,0.0,0.0,0.0,0.0,0.0,0.0,0.0,0.0,0.0,0.0,0.0,0.0,0.0,0.0,0.0,0.0,0.0,0.0,0.0,0.0,0.0,0.0,0.0,0.0,0.0,0.0,0.0,0.0,0.0,0.0,0.0,0.0,0.0,0.0,0.0,0.0,0.0,0.0,0.0,0.0,0.0,0.0,0.0,0.0,0.0,0.0,0.0,0.0,0.0,0.0,0.0,0.0,0.0,0.0,0.0,0.0,0.0,0.0,0.0,0.0,0.0,0.0,0.0,0.0,0.0,0.0,0.0,0.0,0.0,0.0,0.0,0.0,0.0,0.0,0.0,0.0,0.0,0.0,0.0,0.0,0.0,0.0,0.0,0.0,0.0,0.0,0.0,0.0,0.0,0.0,0.0,0.0,0.0,0.0,0.0,0.0,0.0,0.0,0.0,0.0,0.0,0.0,0.0,0.0,0.0,0.0,0.0,0.0,0.0,0.0,0.0,0.0,0.0,0.0,0.0,0.0,0.0,0.0,0.0,0.0,0.0,0.0,0.0,0.0,0.0,0.0,0.0,0.0,0.0,0.0,0.0,0.0,0.0,0.0,0.0,0.0,0.0,0.0,0.0,0.0,0.0,0.0,0.0,0.0,0.0,0.0,0.0,0.0,0.0,0.0,0.0,0.0,0.0,0.0,0.0,0.0,0.0,0.0,0.0,0.0,0.0,0.0,0.0,0.0,0.0,0.0,0.0,0.0,0.0,0.0,0.0,0.0,0.0,0.0,0.0,0.0,0.0,0.0,0.0,0.0,0.0,0.0,0.0,0.0,0.0,0.0,0.0,0.0,0.0,0.0,0.0,0.0,0.0,0.0,0.0,0.0,0.0,0.0,0.0,0.0,0.0,0.0,0.0,0.0,0.0,0.0,0.0,0.0,0.0,0.0,0.0,0.0,0.0,0.0,0.0,0.0,0.0,0.0,0.0,0.0,0.0,0.0,0.0,0.0,0.0,0.0,0.0,0.0,0.0,0.0,0.0,0.0,0.0,0.0,0.0,0.0,0.0,0.0,0.0,0.0,0.0,0.0,0.0,0.0,0.0,0.0,0.0,0.0,0.0,0.0,0.0,0.0,0.0,0.0,0.0,0.0,0.0,0.0,0.0,0.0,0.0,0.0,0.0,0.0,0.0,0.0,0.0,0.0,0.0,0.0,0.0,0.0,0.0,0.0,0.0,0.0,0.0,0.0,0.0,0.0,0.0,0.0,0.0,0.0,0.0,0.0,0.0,0.0,0.0,0.0,0.0,0.0,0.0,0.0,0.0,0.0,0.0,0.0,0.0,0.0,0.0,0.0,0.0,0.0,0.0,0.0,0.0,0.0,0.0,0.0,0.0,0.0,0.0,0.0,0.0,0.0,0.0,0.0,0.0,0.0,0.0,0.0,0.0,0.0,0.0,0.0,0.0,0.0,0.0,0.0,0.0,0.0,0.0,0.0,0.0,0.0,0.0,0.0,0.0,0.0,0.0,0.0,0.0,0.0,0.0,0.0,0.0,0.0,0.0,0.0,0.0,0.0,0.0,0.0,0.0,0.0,0.0,0.0,0.0,0.0,0.0,0.0,0.0,0.0,0.0,0.0,0.0,0.0,0.0,0.0,0.0,0.0,0.0,0.0,0.0,0.0,0.0,0.0,0.0,0.0,0.0,0.0,0.0,0.0,0.0,0.0,0.0,0.0,0.0,0.0,0.0,0.0,0.0,0.0,0.0,0.0,0.0,0.0,0.0,0.0,0.0,0.0,0.0,0.0,0.0,0.0,0.0,0.0,0.0,0.0,0.0,0.0,0.0,0.0,0.0,0.0,0.0,0.0,0.0,0.0,0.0,0.0,0.0,0.0,0.0,0.0,0.0,0.0,0.0,0.0,0.0,0.0,0.0,0.0,0.0,0.0,0.0,0.0,0.0,0.0,0.0,0.0,0.0,0.0,0.0,0.0,0.0,0.0,0.0,0.0,0.0,0.0,0.0,0.0,0.0,0.0,0.0,0.0,0.0,0.0,0.0,0.0,0.0,0.0,0.0,0.0,0.0,0.0,0.0,0.0,0.0,0.0,0.0,0.0,0.0,0.0,0.0,0.0,0.0,0.0,0.0,0.0,0.0,0.0,0.0,0.0,0.0,0.0,0.0,0.0,0.0,0.0,0.0,0.0,0.0,0.0,0.0,0.0,0.0,0.0,0.0,0.0,0.0,0.0,0.0,0.0,0.0,0.0,0.0,0.0,0.0,0.0,0.0,0.0,0.0,0.0,0.0,0.0,0.0,0.0,0.0,0.0,0.0,0.0,0.0,0.0,0.0,0.0,0.0,0.0,0.0,0.0,0.0,0.0,0.0,0.0,0.0,0.0,0.0,0.0,0.0,0.0,0.0,0.0,0.0,0.0,0.0,0.0,0.0,0.0,0.0,0.0,0.0,0.0,0.0,0.0,0.0,0.0,0.0,0.0,0.0,0.0,0.0,0.0,0.0,0.0,0.0,0.0,0.0,0.0,0.0,0.0,0.0,0.0,0.0,0.0,0.0,0.0,0.0,0.0,0.0,0.0,0.0,0.0,0.0,0.0,0.0,0.0,0.0,0.0,0.0,0.0,0.0,0.0,0.0,0.0,0.0,0.0,0.0,0.0,0.0,0.0,0.0,0.0,0.0,0.0,0.0,0.0,0.0,0.0,0.0,0.0,0.0,0.0,0.0,0.0,0.0,0.0,0.0,0.0,0.0,0.0,0.0,0.0,0.0,0.0,0.0,0.0,0.0,0.0,0.0,0.0,0.0,0.0,0.0,0.0,0.0,0.0,0.0,0.0,0.0,0.0,0.0,0.0,0.0,0.0,0.0,0.0,0.0,0.0,0.0,0.0,0.0,0.0,0.0,0.0,0.0,0.0,0.0,0.0,0.0,0.0,0.0,0.0,0.0,0.0,0.0,0.0,0.0,0.0,0.0,0.0,0.0,0.0,0.0,0.0,0.0,0.0,0.0,0.0,0.0,0.0,0.0,0.0,0.0,0.0,0.0,0.0,0.0,0.0,0.0,0.0,0.0,0.0,0.0,0.0,0.0,0.0,0.0,0.0,0.0,0.0,0.0,0.0,0.0,0.0,0.0,0.0,0.0,0.0,0.0,0.0,1.8927,0.0,0.0,0.0,0.0,0.0,0.0,0.0,0.0,0.0,0.0,0.0,0.0,0.0,0.0,0.0,0.0,0.0,0.0,0.0,0.0,0.0,0.0,0.0,0.0,0.0,0.0,0.0,0.0,0.0,0.0,0.0,0.0,0.0,0.0,0.0,0.0,0.0,0.0,0.0,0.0,0.0,0.0,0.0,0.0,0.0,0.0,0.0,0.0,0.0,0.0,0.0,0.0,0.0,0.0,0.0,0.0,0.0,0.0,0.0,0.0,0.0,0.0,0.0,0.0,0.0,0.0,0.0,0.0,0.0,0.0,0.0,0.0,0.0,0.0,0.0,0.0,0.0,0.0,0.0,0.0,0.0,0.0,0.0,0.0,0.0,0.0,0.0,0.0,0.0,0.0,0.0,0.0,0.0,0.0,0.0,0.0,0.0,0.0,0.0,0.0,0.0,0.0,0.0,0.0,0.0,0.0,0.0,0.0,0.0,0.0,2.1001,2.0755,1.9684,1.8882,1.8373,0.0,0.0,0.0,0.0,0.0,0.0,0.0,0.0,0.0,0.0,0.0,0.0,0.0,0.0,0.0,0.0,0.0,0.0,0.0,0.0,0.0,0.0,0.0,0.0,0.0,0.0,0.0,0.0,0.0,0.0,0.0,0.0,0.0,0.0,0.0,0.0,0.0,0.0,0.0,0.0,0.0,0.0,0.0,0.0,0.0,0.0,0.0,0.0,0.0,0.0,0.0,0.0,0.0,0.0,0.0,0.0,0.0,0.0,0.0,0.0,0.0,0.0,0.0,0.0,0.0,0.0,0.0,0.0,0.0,0.0,0.0,0.0,0.0,0.0,0.0,0.0,0.0,0.0,0.0,0.0,0.0,0.0,0.0,0.0,0.0,0.0,0.0,0.0,0.0,0.0,0.0,0.0,0.0,0.0,0.0,0.0,0.0,0.0,0.0,0.0,0.0,0.0,0.0,0.0,0.0,0.0,0.0,0.0,0.0,0.0,0.0,0.0,1.8971,1.8127,1.7748,0.0,0.0,0.0,0.0,0.0,0.0,0.0,0.0,0.0,0.0,0.0,0.0,0.0,0.0,0.0,0.0,0.0,0.0,0.0,0.0,0.0,0.0,0.0,0.0,0.0,0.0,0.0,0.0,0.0,0.0,0.0,0.0,0.0,0.0,0.0,0.0,0.0,0.0,0.0,0.0,0.0,0.0,0.0,0.0,0.0,0.0,0.0,0.0,0.0,0.0,0.0,0.0,0.0,0.0,0.0,0.0,0.0,0.0,0.0,0.0,0.0,0.0,0.0,0.0,0.0,0.0,0.0,0.0,0.0,0.0,0.0,0.0,0.0,0.0,0.0,0.0,0.0,0.0,0.0,0.0,0.0,0.0,0.0,0.0,0.0,0.0,0.0,0.0,0.0,0.0,0.0,0.0,0.0,0.0,0.0,0.0,0.0,0.0,0.0,0.0,0.0,0.0,0.0,0.0,0.0,0.0,0.0,0.0,0.0,0.0,1.9233,2.1066,1.9668,0.0,1.6832,0.0,0.0,0.0,0.0,0.0,0.0,0.0,0.0,0.0,0.0,0.0,0.0,0.0,0.0,0.0,0.0,0.0,0.0,0.0,0.0,0.0,0.0,0.0,0.0,0.0,0.0,0.0,0.0,0.0,0.0,0.0,0.0,0.0,0.0,0.0,0.0,0.0,0.0,0.0,0.0,0.0,0.0,0.0,0.0,0.0,0.0,0.0,0.0,0.0,0.0,0.0,0.0,0.0,0.0,0.0,0.0,0.0,0.0,0.0,0.0,0.0,0.0,0.0,0.0,0.0,0.0,0.0,0.0,0.0,0.0,0.0,0.0,0.0,0.0,0.0,0.0,0.0,0.0,0.0,0.0,0.0,0.0,0.0,0.0,0.0,0.0,0.0,0.0,0.0,0.0,0.0,0.0,0.0,0.0,0.0,0.0,0.0,0.0,0.0,0.0,0.0,0.0,0.0,0.0,0.0,0.0,0.0,0.0,0.0,0.0,1.7809,1.8677,1.7584,1.6523,0.0,0.0,0.0,0.0,0.0,0.0,0.0,0.0,0.0,0.0,0.0,0.0,0.0,0.0,0.0,0.0,0.0,0.0,0.0,0.0,0.0,0.0,0.0,0.0,0.0,0.0,0.0,0.0,0.0,0.0,0.0,0.0,0.0,0.0,0.0,0.0,0.0,0.0,0.0,0.0,0.0,0.0,0.0,0.0,0.0,0.0,0.0,0.0,0.0,0.0,0.0,0.0,0.0,0.0,0.0,0.0,0.0,0.0,0.0,0.0,0.0,0.0,0.0,0.0,0.0,0.0,0.0,0.0,0.0,0.0,0.0,0.0,0.0,0.0,0.0,0.0,0.0,0.0,0.0,0.0,0.0,0.0,0.0,0.0,0.0,0.0,0.0,0.0,0.0,0.0,0.0,0.0,0.0,0.0,0.0,0.0,0.0,0.0,0.0,0.0,0.0,0.0,0.0,0.0,0.0,0.0,0.0,0.0,0.0,0.0,1.6066,1.6219,1.6467,1.5624,1.4818,1.4126,0.0,0.0,0.0,0.0,0.0,0.0,0.0,0.0,0.0,0.0,0.0,0.0,0.0,0.0,0.0,0.0,0.0,0.0,0.0,0.0,0.0,0.0,0.0,0.0,0.0,0.0,0.0,0.0,0.0,0.0,0.0,0.0,0.0,0.0,0.0,0.0,0.0,0.0,0.0,0.0,0.0,0.0,0.0,0.0,0.0,0.0,0.0,0.0,0.0,0.0,0.0,0.0,0.0,0.0,0.0,0.0,0.0,0.0,0.0,0.0,0.0,0.0,0.0,0.0,0.0,0.0,0.0,0.0,0.0,0.0,0.0,0.0,0.0,0.0,0.0,0.0,0.0,0.0,0.0,0.0,0.0,0.0,0.0,0.0,0.0,0.0,0.0,0.0,0.0,0.0,0.0,0.0,0.0,0.0,0.0,0.0,0.0,0.0,0.0,0.0,0.0,0.0,0.0,0.0,0.0,0.0,0.0,0.0,1.6801,1.5093,1.4575,1.5478,1.4568,1.3529,0.0,0.0,0.0,0.0,0.0,0.0,0.0,0.0,0.0,0.0,0.0,0.0,0.0,0.0,0.0,0.0,0.0,0.0,0.0,0.0,0.0,0.0,0.0,0.0,0.0,0.0,0.0,0.0,0.0,0.0,0.0,0.0,0.0,0.0,0.0,0.0,0.0,0.0,0.0,0.0,0.0,0.0,0.0,0.0,0.0,0.0,0.0,0.0,0.0,0.0,0.0,0.0,0.0,0.0,0.0,0.0,0.0,0.0,0.0,0.0,0.0,0.0,0.0,0.0,0.0,0.0,0.0,0.0,0.0,0.0,0.0,0.0,0.0,0.0,0.0,0.0,0.0,0.0,0.0,0.0,0.0,0.0,0.0,0.0,0.0,0.0,0.0,0.0,0.0,0.0,0.0,0.0,0.0,0.0,0.0,0.0,0.0,0.0,0.0,0.0,0.0,0.0,0.0,0.0,0.0,0.0,0.0,0.0,0.0,1.3131,1.2734,1.2931,1.3701,1.2337,1.1436,0.0,0.0,0.0,0.0,0.0,0.0,0.0,0.0,0.0,0.0,0.0,0.0,0.0,0.0,0.0,0.0,0.0,0.0,0.0,0.0,0.0,0.0,0.0,0.0,0.0,0.0,0.0,0.0,0.0,0.0,0.0,0.0,0.0,0.0,0.0,0.0,0.0,0.0,0.0,0.0,0.0,0.0,0.0,0.0,0.0,0.0,0.0,0.0,0.0,0.0,0.0,0.0,0.0,0.0,0.0,0.0,0.0,0.0,0.0,0.0,0.0,0.0,0.0,0.0,0.0,0.0,0.0,0.0,0.0,0.0,0.0,0.0,0.0,0.0,0.0,0.0,0.0,0.0,0.0,0.0,0.0,0.0,0.0,0.0,0.0,0.0,0.0,0.0,0.0,0.0,0.0,0.0,0.0,0.0,0.0,0.0,0.0,0.0,0.0,0.0,0.0,0.0,0.0,0.0,0.0,0.0,0.0,0.0,0.0,1.0726,0.0,1.1035,1.1638,1.0126,0.9254,0.0,0.0,0.0,0.0,0.0,0.0,0.0,0.0,0.0,0.0,0.0,0.0,0.0,0.0,0.0,0.0,0.0,0.0,0.0,0.0,0.0,0.0,0.0,0.0,0.0,0.0,0.0,0.0,0.0,0.0,0.0,0.0,0.0,0.0,0.0,0.0,0.0,0.0,0.0,0.0,0.0,0.0,0.0,0.0,0.0,0.0,0.0,0.0,0.0,0.0,0.0,0.0,0.0,0.0,0.0,0.0,0.0,0.0,0.0,0.0,0.0,0.0,0.0,0.0,0.0,0.0,0.0,0.0,0.0,0.0,0.0,0.0,0.0,0.0,0.0,0.0,0.0,0.0,0.0,0.0,0.0,0.0,0.0,0.0,0.0,0.0,0.0,0.0,0.0,0.0,0.0,0.0,0.0,0.0,0.0,0.0,0.0,0.0,0.0,0.0,0.0,0.0,0.0,0.0,0.0,0.0,0.0,0.0,0.9704,0.9984,0.9083,0.8885,0.939,0.8022,0.7064,0.0,0.0,0.0,0.0,0.0,0.0,0.0,0.0,0.0,0.0,0.0,0.0,0.0,0.0,0.0,0.0,0.0,0.0,0.0,0.0,0.0,0.0,0.0,0.0,0.0,0.0,0.0,0.0,0.0,0.0,0.0,0.0,0.0,0.0,0.0,0.0,0.0,0.0,0.0,0.0,0.0,0.0,0.0,0.0,0.0,0.0,0.0,0.0,0.0,0.0,0.0,0.0,0.0,0.0,0.0,0.0,0.0,0.0,0.0,0.0,0.0,0.0,0.0,0.0,0.0,0.0,0.0,0.0,0.0,0.0,0.0,0.0,0.0,0.0,0.0,0.0,0.0,0.0,0.0,0.0,0.0,0.0,0.0,0.0,0.0,0.0,0.0,0.0,0.0,0.0,0.0,0.0,0.0,0.0,0.0,0.0,0.0,0.0,0.0,0.0,0.0,0.0,0.0,0.0,0.0,0.0,0.0,0.0,0.0,0.7349,0.7314,0.7064,0.6569,0.5646,0.5306,0.0,0.0,0.0,0.0,0.0,0.0,0.0,0.0,0.0,0.0,0.0,0.0,0.0,0.0,0.0,0.0,0.0,0.0,0.0,0.0,0.0,0.0,0.0,0.0,0.0,0.0,0.0,0.0,0.0,0.0,0.0,0.0,0.0,0.0,0.0,0.0,0.0,0.0,0.0,0.0,0.0,0.0,0.0,0.0,0.0,0.0,0.0,0.0,0.0,0.0,0.0,0.0,0.0,0.0,0.0,0.0,0.0,0.0,0.0,0.0,0.0,0.0,0.0,0.0,0.0,0.0,0.0,0.0,0.0,0.0,0.0,0.0,0.0,0.0,0.0,0.0,0.0,0.0,0.0,0.0,0.0,0.0,0.0,0.0,0.0,0.0,0.0,0.0,0.0,0.0,0.0,0.0,0.0,0.0,0.0,0.0,0.0,0.0,0.0,0.0,0.0,0.0,0.0,0.0,0.0,0.0,0.0,0.0,0.0,0.5315,0.5611,0.5679,0.5314,0.4363,0.4164,0.4737,0.0,0.0,0.0,0.0,0.0,0.0,0.0,0.0,0.0,0.0,0.0,0.0,0.0,0.0,0.0,0.0,0.0,0.0,0.0,0.0,0.0,0.0,0.0,0.0,0.0,0.0,0.0,0.0,0.0,0.0,0.0,0.0,0.0,0.0,0.0,0.0,0.0,0.0,0.0,0.0,0.0,0.0,0.0,0.0,0.0,0.0,0.0,0.0,0.0,0.0,0.0,0.0,0.0,0.0,0.0,0.0,0.0,0.0,0.0,0.0,0.0,0.0,0.0,0.0,0.0,0.0,0.0,0.0,0.0,0.0,0.0,0.0,0.0,0.0,0.0,0.0,0.0,0.0,0.0,0.0,0.0,0.0,0.0,0.0,0.0,0.0,0.0,0.0,0.0,0.0,0.0,0.0,0.0,0.0,0.0,0.0,0.0,0.0,0.0,0.0,0.0,0.0,0.0,0.0,0.0,0.0,0.0,0.0,0.3792,0.4078,0.4535,0.5104,0.3995,0.3491,0.0,0.0,0.0,0.0,0.0,0.0,0.0,0.0,0.0,0.0,0.0,0.0,0.0,0.0,0.0,0.0,0.0,0.0,0.0,0.0,0.0,0.0,0.0,0.0,0.0,0.0,0.0,0.0,0.0,0.0,0.0,0.0,0.0,0.0,0.0,0.0,0.0,0.0,0.0,0.0,0.0,0.0,0.0,0.0,0.0,0.0,0.0,0.0,0.0,0.0,0.0,0.0,0.0,0.0,0.0,0.0,0.0,0.0,0.0,0.0,0.0,0.0,0.0,0.0,0.0,0.0,0.0,0.0,0.0,0.0,0.0,0.0,0.0,0.0,0.0,0.0,0.0,0.0,0.0,0.0,0.0,0.0,0.0,0.0,0.0,0.0,0.0,0.0,0.0,0.0,0.0,0.0,0.0,0.0,0.0,0.0,0.0,0.0,0.0,0.0,0.0,0.0,0.0,0.0,0.0,0.0,0.0,0.0,0.0,0.328,0.2592,0.2735,0.3605,0.3126,0.303,0.0,0.0,0.0,0.0,0.0,0.0,0.0,0.0,0.0,0.0,0.0,0.0,0.0,0.0,0.0,0.0,0.0,0.0,0.0,0.0,0.0,0.0,0.0,0.0,0.0,0.0,0.0,0.0,0.0,0.0,0.0,0.0,0.0,0.0,0.0,0.0,0.0,0.0,0.0,0.0,0.0,0.0,0.0,0.0,0.0,0.0,0.0,0.0,0.0,0.0,0.0,0.0,0.0,0.0,0.0,0.0,0.0,0.0,0.0,0.0,0.0,0.0,0.0,0.0,0.0,0.0,0.0,0.0,0.0,0.0,0.0,0.0,0.0,0.0,0.0,0.0,0.0,0.0,0.0,0.0,0.0,0.0,0.0,0.0,0.0,0.0,0.0,0.0,0.0,0.0,0.0,0.0,0.0,0.0,0.0,0.0,0.0,0.0,0.0,0.0,0.0,0.0,0.0,0.0,0.0,0.0,0.0,0.0,0.3758,0.2334,0.1798,0.1637,0.1785,0.154,0.1544,0.0,0.0,0.0,0.0,0.0,0.0,0.0,0.0,0.0,0.0,0.0,0.0,0.0,0.0,0.0,0.0,0.0,0.0,0.0,0.0,0.0,0.0,0.0,0.0,0.0,0.0,0.0,0.0,0.0,0.0,0.0,0.0,0.0,0.0,0.0,0.0,0.0,0.0,0.0,0.0,0.0,0.0,0.0,0.0,0.0,0.0,0.0,0.0,0.0,0.0,0.0,0.0,0.0,0.0,0.0,0.0,0.0,0.0,0.0,0.0,0.0,0.0,0.0,0.0,0.0,0.0,0.0,0.0,0.0,0.0,0.0,0.0,0.0,0.0,0.0,0.0,0.0,0.0,0.0,0.0,0.0,0.0,0.0,0.0,0.0,0.0,0.0,0.0,0.0,0.0,0.0,0.0,0.0,0.0,0.0,0.0,0.0,0.0,0.0,0.0,0.0,0.0,0.0,0.0,0.0,0.0,0.0,0.0,0.3153,0.1335,0.1385,0.0907,-0.0252,-0.0286,-0.0265,0.0,0.0,0.0,0.0,0.0,0.0,0.0,0.0,0.0,0.0,0.0,0.0,0.0,0.0,0.0,0.0,0.0,0.0,0.0,0.0,0.0,0.0,0.0,0.0,0.0,0.0,0.0,0.0,0.0,0.0,0.0,0.0,0.0,0.0,0.0,0.0,0.0,0.0,0.0,0.0,0.0,0.0,0.0,0.0,0.0,0.0,0.0,0.0,0.0,0.0,0.0,0.0,0.0,0.0,0.0,0.0,0.0,0.0,0.0,0.0,0.0,0.0,0.0,0.0,0.0,0.0,0.0,0.0,0.0,0.0,0.0,0.0,0.0,0.0,0.0,0.0,0.0,0.0,0.0,0.0,0.0,0.0,0.0,0.0,0.0,0.0,0.0,0.0,0.0,0.0,0.0,0.0,0.0,0.0,0.0,0.0,0.0,0.0,0.0,0.0,0.0,0.0,0.0,0.0,0.0,0.0,0.0,0.0,0.2946,0.0583,0.0398,-0.0454,-0.2168,-0.0919,-0.0227,0.0,0.0,0.0,0.0,0.0,0.0,0.0,0.0,0.0,0.0,0.0,0.0,0.0,0.0,0.0,0.0,0.0,0.0,0.0,0.0,0.0,0.0,0.0,0.0,0.0,0.0,0.0,0.0,0.0,0.0,0.0,0.0,0.0,0.0,0.0,0.0,0.0,0.0,0.0,0.0,0.0,0.0,0.0,0.0,0.0,0.0,0.0,0.0,1.0821,0.0,0.0,0.0,0.0,0.0,0.0,0.0,0.0,0.0,0.0,0.0,0.0,0.0,0.0,0.0,0.0,0.0,0.0,0.0,0.0,0.0,0.0,0.0,0.0,0.0,0.0,0.0,0.0,0.0,0.0,0.0,0.0,0.0,0.0,0.0,0.0,0.0,0.0,0.0,0.0,0.0,0.0,0.0,0.0,0.0,0.0,0.0,0.0,0.0,0.0,0.0,0.0,0.0,0.0,0.0,0.0,0.0,0.0,0.0,0.1946,0.0198,-0.0451,-0.1462,-0.2874,-0.2077,-0.155,0.0,0.0,0.0,0.0,0.0,0.0,0.0,0.0,0.0,0.0,0.0,0.0,0.0,0.0,0.0,0.0,0.0,0.0,0.0,0.0,0.0,0.0,0.0,0.0,0.0,0.0,0.0,0.0,0.0,0.0,0.0,0.0,0.0,0.0,0.0,0.0,0.0,0.0,0.0,0.0,0.0,0.0,0.0,0.0,0.0,0.0,0.0,0.0,0.0,0.0,0.0,0.0,0.0,0.0,0.0,0.0,0.0,0.0,0.0,0.0,0.0,0.0,0.0,0.0,0.0,0.0,0.0,0.0,0.0,0.0,0.0,0.0,0.0,0.0,0.0,0.0,0.0,0.0,0.0,0.0,0.0,0.0,0.0,0.0,0.0,0.0,0.0,0.0,0.0,0.0,0.0,0.0,0.0,0.0,0.0,0.0,0.0,0.0,0.0,0.0,0.0,0.0,0.0,0.0,0.0,0.0,0.0,0.204,0.0884,0.0,-0.1058,-0.2118,-0.318,-0.318,-0.309,-0.2794,0.0,0.0,0.0,0.0,0.0,0.0,0.0,0.0,0.0,0.0,0.0,0.0,0.0,0.0,0.0,0.0,0.0,0.0,0.0,0.0,0.0,0.0,0.0,0.0,0.0,0.0,0.0,0.0,0.0,0.0,0.0,0.0,0.0,0.0,0.0,0.0,0.0,0.0,1.2554,1.1641,0.0,0.0,0.0,0.0,0.0,0.0,0.0,0.0,0.6162,0.0,0.0,0.0,0.0,0.0,0.0,0.0,0.0,0.0,0.0,0.0,0.0,0.0,0.0,0.0,0.0,0.0,0.0,0.0,0.0,0.0,0.0,0.0,0.0,0.0,0.0,0.0,0.0,0.0,0.0,0.0,0.0,0.0,0.0,0.0,0.0,0.0,0.0,0.0,0.0,0.0,0.0,0.0,0.0,0.0,0.0,0.0,0.0,0.0,0.0,0.0,0.0,0.0,0.0,0.0,0.0,0.3894,0.2127,0.0825,0.0,-0.1058,-0.2118,-0.313,-0.318,-0.309,-0.2797,0.0,0.0,0.0,0.0,0.0,0.0,0.0,0.0,0.0,0.0,0.0,0.0,0.0,0.0,0.0,0.0,0.0,0.0,0.0,0.0,0.0,0.0,0.0,0.0,0.0,0.0,0.0,0.0,0.0,0.0,0.0,0.0,0.0,0.0,0.0,0.0,0.0,0.0,0.0,1.1027,1.0311,0.0,0.0,0.0,0.0,0.0,0.0,0.0,0.0,0.3573,0.0,0.0,0.0,0.0,0.0,0.0,0.0,0.0,0.0,0.0,0.0,0.0,0.0,0.0,0.0,0.0,0.0,0.0,0.0,0.0,0.0,0.0,0.0,0.0,0.0,0.0,0.0,0.0,0.0,0.0,0.0,0.0,0.0,0.0,0.0,0.0,0.0,0.0,0.0,0.0,0.0,0.0,0.0,0.0,0.0,0.0,0.0,0.0,0.0,0.0,0.0,0.0,0.0,0.0,0.0,0.3113,0.1337,0.023,-0.0099,-0.1605,-0.2675,-0.3179,-0.3269,-0.312,0.0,0.0,0.0,0.0,0.0,0.0,0.0,0.0,0.0,0.0,0.0,0.0,0.0,0.0,0.0,0.0,0.0,0.0,0.0,0.0,0.0,0.0,0.0,0.0,0.0,0.0,0.0,0.0,0.0,0.0,0.0,0.0,0.0,0.0,0.0,0.0,0.0,0.0,0.0,0.0,0.9567,0.8801,0.7563,0.0,0.0,0.0,0.0,0.0,0.0,0.1704,0.1442,0.0,0.0,0.0,0.0,0.0,0.0,0.0,0.0,0.0,0.0,0.0,0.0,0.0,0.0,0.0,0.0,0.0,0.0,0.0,0.0,0.0,0.0,0.0,0.0,0.0,0.0,0.0,0.0,0.0,0.0,0.0,0.0,0.0,0.0,0.0,0.0,0.0,0.0,0.0,0.0,0.0,0.0,0.0,0.0,0.0,0.0,0.0,0.0,0.0,0.0,0.0,0.0,0.0,0.0,0.0,0.2468,0.0598,-0.0275,-0.0194,-0.2086,-0.3156,-0.3192,-0.3341,-0.3186,0.0,0.0,0.0,0.0,0.0,0.0,0.0,0.0,0.0,0.0,0.0,0.0,0.0,0.0,0.0,0.0,0.0,0.0,0.0,0.0,0.0,0.0,0.0,0.0,0.0,0.0,0.0,0.0,0.0,0.0,0.0,0.0,0.0,0.0,0.0,0.0,0.0,0.0,0.0,0.0,0.0,0.7537,0.7095,0.5985,0.0,0.0,0.0,0.0,0.0837,-0.0088,0.0,0.0,0.0,0.0,0.0,0.0,0.0,0.0,0.0,0.0,0.0,0.0,0.0,0.0,0.0,0.0,0.0,0.0,0.0,0.0,0.0,0.0,0.0,0.0,0.0,0.0,0.0,0.0,0.0,0.0,0.0,0.0,0.0,0.0,0.0,0.0,0.0,0.0,0.0,0.0,0.0,0.0,0.0,0.0,0.0,0.0,0.0,0.0,0.0,0.0,0.0,0.0,0.0,0.0,0.0,0.0,0.2426,0.0589,-0.027,-0.0095,-0.2045,-0.3124,-0.312,-0.3297,-0.3234,0.0,0.0,0.0,0.0,0.0,0.0,0.0,0.0,0.0,0.0,0.0,0.0,0.0,0.0,0.0,0.0,0.0,0.0,0.0,0.0,0.0,0.0,0.0,0.0,0.0,0.0,0.0,0.0,0.0,0.0,0.0,0.0,0.0,0.0,0.0,0.0,0.0,0.0,0.0,0.0,0.0,0.771,0.5826,0.4864,0.3725,0.0,0.0,-0.036,-0.1235,-0.2035,0.0,0.0,0.0,0.0,0.0,0.0,0.0,0.0,0.0,0.0,0.0,0.0,0.0,0.0,0.0,0.0,0.0,0.0,0.0,0.0,0.0,0.0,0.0,0.0,0.0,0.0,0.0,0.0,0.0,0.0,0.0,0.0,0.0,0.0,0.0,0.0,0.0,0.0,0.0,0.0,0.0,0.0,0.0,0.0,0.0,0.0,0.0,0.0,0.0,0.0,0.0,0.0,0.0,0.0,0.0,0.2489,0.2336,0.058,-0.0223,-0.014,-0.2052,-0.3172,-0.3241,-0.3365,-0.3267,0.0,0.0,0.0,0.0,0.0,0.0,0.0,0.0,0.0,0.0,0.0,0.0,0.0,0.0,0.0,0.0,0.0,0.0,0.0,0.0,0.0,0.0,0.0,0.0,0.0,0.0,0.0,0.0,0.0,0.0,0.0,0.0,0.0,0.0,0.0,0.0,0.0,0.0,0.0,0.0,0.0,0.0,0.4722,0.324,0.0,0.0,0.0,-0.1509,-0.1833,0.0,0.0,0.0,0.0,0.0,0.0,0.0,0.0,0.0,0.0,0.0,0.0,0.0,0.0,0.0,0.0,0.0,0.0,0.0,0.0,0.0,0.0,0.0,0.0,0.0,0.0,0.0,0.0,0.0,0.0,0.0,0.0,0.0,0.0,0.0,0.0,0.0,0.0,0.0,0.0,0.0,0.0,0.0,0.0,0.0,0.0,0.0,0.0,0.0,0.0,0.0,0.0,0.0,0.0,0.0,0.0,0.0,0.2118,0.0493,-0.0309,-0.0229,-0.2105,-0.3208,-0.3331,-0.3438,0.0,0.0,0.0,0.0,0.0,0.0,0.0,0.0,0.0,0.0,0.0,0.0,0.0,0.0,0.0,0.0,0.0,0.0,0.0,0.0,0.0,0.0,0.0,0.0,0.0,0.0,0.0,0.5271,0.0,0.0,0.0,0.0,0.0,0.0,0.0,0.0,0.0,0.0,0.0,0.0,0.0,0.0,0.4085,0.3494,0.1828,0.0444,0.0,0.0,-0.2292,-0.2451,-0.2844,-0.3145,0.0,0.0,0.0,0.0,0.0,0.0,0.0,0.0,0.0,0.0,0.0,0.0,0.0,0.0,0.0,0.0,0.0,0.0,0.0,0.0,0.0,0.0,0.0,0.0,0.0,0.0,0.0,0.0,0.0,0.0,0.0,0.0,0.0,0.0,0.0,0.0,0.0,0.0,0.0,0.0,0.0,0.0,0.0,0.0,0.0,0.0,0.0,0.0,0.0,0.0,0.0,0.0,0.0,0.0,0.0,0.1681,0.0205,-0.0527,-0.0449,-0.2291,-0.3258,-0.3198,-0.3606,-0.3661,0.0,0.0,0.0,0.0,0.0,0.0,0.0,0.0,0.0,0.0,0.0,0.0,0.0,0.0,0.0,0.0,0.0,0.0,0.0,0.0,0.0,0.0,0.0,0.0,0.0,0.0,0.0,0.0,0.0,0.0,0.0,0.0,0.0,0.0,0.0,0.0,0.0,0.0,0.0,0.0,0.0,0.3081,0.1905,0.0983,-0.0201,0.0,0.0,-0.2939,-0.3668,-0.3751,-0.3633,-0.3243,0.0,0.0,0.0,0.0,0.0,0.0,0.0,0.0,0.0,0.0,0.0,0.0,0.0,0.0,0.0,0.0,0.0,0.0,0.0,0.0,0.0,0.0,0.0,0.0,0.0,0.0,0.0,0.0,0.0,0.0,0.0,0.0,0.0,0.0,0.0,0.0,0.0,0.0,0.0,0.0,0.0,0.0,0.0,0.0,0.0,0.0,0.0,0.0,0.0,0.0,0.0,0.0,0.0,0.1555,0.1093,0.0,-0.0779,-0.1297,-0.2574,-0.3343,-0.3633,-0.3732,-0.3749,0.0,0.0,0.0,0.0,0.0,0.0,0.0,0.0,0.0,0.0,0.0,0.0,0.0,0.0,0.0,0.0,0.0,0.0,0.0,0.0,0.0,0.0,0.0,0.0,0.0,0.0,0.0,0.0,0.5192,0.5157,0.5025,0.0,0.0,0.0,0.0,0.0,0.0,0.0,0.0,0.0,0.0,0.2448,0.0835,-0.02,0.0,0.0,-0.3356,-0.3826,-0.4125,-0.3877,-0.3656,-0.3592,-0.3276,0.0,0.0,0.0,0.0,0.0,0.0,0.0,0.0,0.0,0.0,0.0,0.0,0.0,0.0,0.0,0.0,0.0,0.0,0.0,0.0,0.0,0.0,0.0,0.0,0.0,0.0,0.0,0.0,0.0,0.0,0.0,0.0,0.0,0.0,0.0,0.0,0.0,0.0,0.0,0.0,0.0,0.0,0.0,0.0,0.0,0.0,0.0,0.0,0.0,0.0,0.0,0.0,0.134,0.0516,-0.0284,-0.095,-0.1432,-0.2734,-0.3451,-0.3494,-0.3778,-0.3758,0.0,0.0,0.0,0.0,0.0,0.0,0.0,0.0,0.0,0.0,0.0,0.0,0.0,0.0,0.0,0.0,0.0,0.0,0.0,0.0,0.0,0.0,0.0,0.0,0.0,0.0,0.0,0.0,0.5386,0.5176,0.484,0.0,0.0,0.0,0.0,0.0,0.0,0.0,0.0,0.0,0.0,0.1361,-0.0251,-0.1354,-0.2403,-0.3522,-0.4074,-0.4415,-0.4378,-0.4064,-0.3849,-0.3849,0.0,0.0,0.0,0.0,0.0,0.0,0.0,0.0,0.0,0.0,0.0,0.0,0.0,0.0,0.0,0.0,0.0,0.0,0.0,0.0,0.0,0.0,0.0,0.0,0.0,0.0,0.0,0.0,0.0,0.0,0.3452,0.0,0.0,0.0,0.0,0.0,0.0,0.0,0.0,0.0,0.0,0.0,0.0,0.0,0.0,0.0,0.0,0.0,0.0,0.0,0.0,0.0,0.0,0.1179,0.0114,-0.0663,-0.0965,-0.0806,-0.278,-0.3451,-0.264,-0.3603,-0.3657,-0.2635,0.0,0.0,0.0,0.0,0.0,0.0,0.0,0.0,0.0,0.0,0.0,0.0,0.0,0.0,0.0,0.0,0.0,0.0,0.0,0.0,0.0,0.0,0.0,0.0,0.0,0.0,0.5472,0.5278,0.4806,0.0,0.0,0.0,0.0,0.0,0.0,0.0,0.0,0.0,0.0,0.1209,-0.0345,-0.1408,-0.2431,-0.3455,-0.457,-0.4572,-0.4435,-0.4569,-0.4449,-0.4297,0.0,0.0,0.0,0.0,0.0,0.0,0.0,0.0,0.0,0.0,0.0,0.0,0.0,0.0,0.0,0.0,0.0,0.0,0.0,0.0,0.0,0.0,0.0,0.0,0.0,0.0,0.0,0.2627,0.2567,0.0,0.0,0.0,0.0,0.0,0.0,0.0,0.0,0.0,0.0,0.0,0.3538,0.3247,0.0,0.0,0.0,0.0,0.0,0.0,0.0,0.0,0.0,0.0,0.0,0.0,0.1181,0.0114,-0.0706,-0.1053,-0.0986,-0.2285,-0.2911,-0.2776,-0.2491,-0.2099,-0.1629,0.0,0.0,0.0,0.0,0.0,0.0,0.0,0.0,0.0,0.0,0.0,0.0,0.0,0.0,0.0,0.0,0.0,0.0,0.0,0.0,0.0,0.0,0.0,0.0,0.0,0.4273,0.0,0.0,0.0,0.0,0.0,0.0,0.0,0.0,0.0,0.0,0.0,0.106,0.0723,0.0148,-0.0851,-0.2416,-0.2956,-0.355,0.0,0.0,0.0,0.0,0.0,0.0,0.0,0.0,0.0,0.0,0.0,0.0,0.0,0.0,-0.2803,-0.1617,-0.1384,-0.1363,-0.1409,0.0,0.0,0.0,0.0,0.0,0.0,0.0,0.0,0.0,0.0,0.0,0.0,0.0,0.0,0.0,0.0,0.265,0.0,0.0,0.0,0.0,0.0,0.0,0.0,0.0,0.3816,0.3515,0.3495,0.3148,0.2907,0.0,0.2767,0.2623,0.0,0.0,0.0,0.0,0.0,0.0,0.0,0.0,0.1223,0.0156,-0.0422,-0.0663,-0.0627,-0.1567,-0.206,-0.1881,-0.128,-0.0889,-0.0786,-0.0383,0.0036,0.0,0.0,0.0,0.0,0.0,0.0,0.0,0.0,0.0,0.0,0.0,0.0,0.0,0.0,0.0,0.0,0.0,0.0,0.0,0.0,0.0,0.0,0.0,0.3534,0.0,0.0,0.0,0.0,0.0,0.0,0.0,0.0,0.0,0.1258,0.0593,-0.0096,-0.0493,-0.11,-0.2015,-0.3272,0.0,0.0,0.0,0.0,0.0,0.0,0.0,-0.4453,-0.4361,-0.4206,-0.4101,-0.4008,-0.4085,-0.4065,-0.3923,0.0,0.0,-0.2439,-0.2212,-0.2179,-0.2236,-0.2359,-0.2524,-0.2569,-0.2705,-0.3092,0.0,0.0,0.0,0.0,0.0,0.0,0.0,0.0,0.2884,0.2928,0.0,0.2813,0.0,0.0,0.0,0.0,0.0,0.4347,0.0,0.0,0.3409,0.3108,0.3098,0.3097,0.3065,0.301,0.3,0.2938,0.2771,0.2546,0.0,0.0,0.0,0.0,0.0,0.0,0.1343,0.0245,0.0043,0.009,0.0359,-0.0716,-0.0893,-0.0045,-0.0086,-0.0123,-0.0118,0.0692,0.1137,0.1085,0.1078,0.0,0.0,0.0,0.0,0.0,0.0,0.0,0.0,0.0,0.0,0.0,0.0,0.0,0.0,0.0,0.0,0.0,0.0,0.0,0.0,0.3234,0.0,0.0,0.0,0.0,0.0,0.0,0.0,0.0,0.0,0.0,0.0551,-0.043,-0.1133,-0.0953,0.0,0.0,0.0,0.0,-0.4843,-0.5177,-0.4888,-0.4662,-0.4696,-0.4632,-0.4538,-0.44,0.0,0.0,-0.4047,-0.4,-0.3989,-0.3845,-0.3862,-0.3845,-0.3837,-0.3675,-0.365,-0.3767,-0.4173,-0.4609,-0.4788,-0.5006,-0.5511,0.4212,0.0,0.0,0.0,0.0,0.3255,0.3154,0.3015,0.3063,0.3038,0.3043,0.298,0.0,0.0,0.0,0.0,0.0,0.0,0.3327,0.3335,0.3179,0.3129,0.3113,0.3115,0.3082,0.307,0.3025,0.2967,0.2847,0.2778,0.2639,0.2401,0.0,0.0,0.0,0.0,0.0874,0.025,-0.0437,-0.0179,0.1076,0.0132,0.0,0.0901,0.0254,0.0207,0.0846,0.1121,0.1245,0.1176,0.1132,0.0,0.0,0.0,0.0,0.0,0.0,0.0,0.0,0.0,0.0,0.0,0.0,0.0,0.0,0.0,0.0,0.0,0.0,0.0,0.2271,0.1532,0.0935,0.0,0.0,0.0,0.0,0.0,0.0,0.0,0.0,0.0,-0.0797,-0.1191,-0.1924,0.0,0.0,-0.4359,-0.4995,-0.5219,-0.5404,-0.5484,0.0,0.0,0.0,-0.4774,-0.454,-0.4404,-0.4381,-0.4312,-0.4236,-0.4175,-0.4095,-0.3975,-0.4385,-0.4713,-0.467,-0.4632,-0.458,-0.4533,-0.5013,-0.55,-0.5576,-0.5598,-0.5871,0.4527,0.4425,0.4149,0.3876,0.3697,0.3534,0.3376,0.3275,0.3176,0.3155,0.3119,0.3083,0.298,0.2877,0.2852,0.0,0.0,0.0,0.3044,0.3068,0.3069,0.309,0.3089,0.3115,0.3072,0.3059,0.3022,0.2975,0.292,0.292,0.2788,0.2624,0.0,0.0,0.1386,0.1359,0.1177,0.0841,0.0216,0.035,0.1356,0.0821,0.0765,0.1248,0.0747,0.0739,0.1286,0.1324,0.1262,0.1213,0.1166,0.1119,0.0,0.0,0.0,0.0,0.0,0.0,0.0,0.0,0.0,0.0,0.0,0.5271,0.0,0.0,0.0,0.0,0.2843,0.2082,0.101,0.0468,0.0,0.0,0.0,0.0,0.0,0.0,0.0,0.0,-0.0814,-0.1538,-0.1946,-0.2496,-0.3185,-0.4138,-0.4689,-0.5205,-0.574,0.0,-0.5527,-0.5716,-0.5443,-0.5201,-0.5043,-0.4812,-0.4583,-0.4395,-0.4308,-0.4236,-0.4195,-0.4124,-0.416,-0.4353,-0.4522,-0.4772,-0.5365,-0.5467,-0.5431,-0.5237,-0.5777,-0.6232,-0.6212,-0.6269,-0.6592,0.4782,0.4776,0.4203,0.4017,0.4026,0.3714,0.3577,0.3584,0.3332,0.323,0.318,0.318,0.3166,0.3101,0.3044,0.0,0.3106,0.3119,0.3124,0.3219,0.3116,0.3136,0.3129,0.307,0.3059,0.3004,0.3,0.2971,0.2921,0.292,0.2891,0.279,0.2828,0.2666,0.2315,0.2063,0.1811,0.1598,0.1347,0.1262,0.1302,0.1302,0.1329,0.13,0.1299,0.1284,0.1295,0.1293,0.1279,0.1209,0.1179,0.1173,0.1115,0.0,0.0,0.0,0.0,0.0,0.0,0.0,0.0,0.0,0.0,0.0,0.0,0.0,0.0,0.0,0.1812,0.0,0.0081,0.0,0.0,0.0,0.0,0.0,0.0,0.0,0.0,0.0,0.0,0.0,-0.2784,0.0,-0.4737,-0.4637,-0.5355,-0.6014,-0.6255,-0.5779,-0.5508,-0.5846,-0.5583,-0.528,-0.5077,-0.4844,-0.4656,-0.4346,-0.4218,-0.4136,-0.4017,-0.393,-0.4192,-0.471,-0.4355,-0.4384,-0.5935,-0.6202,-0.624,-0.6118,-0.6588,-0.6945,-0.6789,-0.708,-0.7463,0.4782,0.4782,0.466,0.4466,0.4286,0.4218,0.3971,0.3586,0.3536,0.3383,0.318,0.318,0.3188,0.3117,0.3104,0.3104,0.3121,0.3132,0.3141,0.3113,0.3098,0.3116,0.3116,0.3054,0.3019,0.3003,0.296,0.2932,0.292,0.292,0.2913,0.2852,0.285,0.2409,0.1599,0.1367,0.1111,0.0882,0.063,0.0793,0.1273,0.1313,0.1299,0.1309,0.1307,0.1293,0.1224,0.1222,0.1209,0.1179,0.1148,0.1125,0.111,0.1162,0.0,0.0,0.0,0.0,0.0,0.0,0.0,0.0,0.0,0.4793,0.3892,0.0,0.3293,0.0,0.0803,0.0166,0.0,0.0,0.0,0.0,0.0,0.0,0.0,0.0,0.0,0.0,-0.1494,-0.2613,-0.288,-0.4478,-0.5588,-0.5426,-0.5887,-0.6187,-0.6146,-0.6013,-0.5952,-0.5971,-0.576,-0.5586,-0.5393,-0.4916,-0.4491,-0.4249,-0.4128,-0.4019,-0.3996,-0.3961,-0.3972,-0.4145,-0.4513,-0.5087,-0.6044,-0.6707,-0.7246,-0.7518,-0.771,-0.7765,-0.758,-0.7504,-0.7571,0.4782,0.4782,0.4782,0.4736,0.4587,0.4487,0.4237,0.3937,0.3687,0.3536,0.3383,0.3282,0.3183,0.3104,0.3128,0.3125,0.3104,0.3134,0.3131,0.3098,0.3071,0.3041,0.3054,0.2994,0.2967,0.2965,0.2935,0.2904,0.2879,0.2878,0.282,0.2793,0.2759,0.2457,0.1907,0.1677,0.1466,0.1242,0.0902,0.0932,0.1284,0.1323,0.1314,0.1298,0.1297,0.1288,0.1233,0.1232,0.1218,0.1188,0.1157,0.1141,0.114,0.1069,0.1495,0.0,0.0,0.0,0.0,0.0,0.0,0.0,0.0,0.0,0.0,0.0,0.2994,0.0,0.046,0.0,0.0,0.0,0.0,0.0,0.0,0.0,0.0,0.0,0.0,0.0,-0.1716,-0.2879,-0.2954,-0.4632,-0.588,-0.5772,-0.5937,-0.6005,-0.5939,-0.5882,-0.5847,-0.5802,-0.5668,-0.5481,-0.5237,-0.4736,-0.4321,-0.4146,-0.4034,-0.3934,-0.3932,-0.3899,-0.3958,-0.4309,-0.4737,-0.5372,-0.6384,-0.6942,-0.7342,-0.7716,-0.7768,-0.7722,-0.7655,-0.7553,-0.7521,0.4834,0.4782,0.4772,0.4768,0.4768,0.4522,0.4429,0.439,0.3887,0.3681,0.3572,0.332,0.3206,0.3101,0.3105,0.31,0.3098,0.3098,0.3093,0.3083,0.3029,0.3001,0.299,0.2933,0.2907,0.2862,0.2854,0.2823,0.2771,0.2771,0.2745,0.2694,0.2684,0.2654,0.2604,0.2431,0.2184,0.1941,0.1508,0.1297,0.1297,0.1297,0.1297,0.1297,0.1297,0.1294,0.1291,0.1291,0.1276,0.1207,0.1181,0.1203,0.1201,0.1112,0.1365,0.0,0.202,0.0,0.0,0.0,0.0,0.0,0.0,0.0,0.0,0.3376,0.2721,0.1263,0.0431,0.0,0.0,0.0,0.0,0.0,0.0,0.0,0.0,0.0,0.0,0.0,-0.17,-0.2856,-0.2946,-0.4611,-0.5833,-0.5798,-0.5738,-0.564,-0.5613,-0.5548,-0.5497,-0.5467,-0.5375,-0.5184,-0.4809,-0.449,-0.4222,-0.4049,-0.3942,-0.3879,-0.3861,-0.3797,-0.3979,-0.4595,-0.4861,-0.5443,-0.6805,-0.6939,-0.7057,-0.7456,-0.744,-0.7372,-0.7438,-0.7443,-0.7447,0.4987,0.4778,0.4759,0.4732,0.4732,0.4683,0.4527,0.4388,0.4288,0.3952,0.3504,0.3454,0.3313,0.3099,0.3109,0.3109,0.3098,0.3098,0.307,0.3021,0.301,0.2979,0.2932,0.2873,0.2843,0.2797,0.2794,0.2721,0.2709,0.2709,0.2703,0.2691,0.2643,0.2613,0.2598,0.0,0.0,0.0,0.1417,0.1297,0.1297,0.1297,0.1297,0.1297,0.1297,0.0,0.1221,0.1221,0.1206,0.1176,0.1206,0.0,0.0,0.0,0.0,0.0,0.0,0.0,0.0,0.0,0.0,0.0,0.3007,0.2583,0.1689,0.1078,0.0602,0.0259,0.0088,0.0,0.0,0.0,0.0,0.0,0.0,0.0,0.0,0.0,0.0,0.0,-0.1634,-0.2751,-0.2835,-0.4357,-0.5477,-0.5445,-0.5495,-0.5438,-0.5314,-0.5366,-0.5366,-0.5273,-0.5105,-0.493,-0.4733,-0.4451,-0.4198,-0.3954,-0.385,-0.3769,-0.3701,-0.3675,-0.3652,-0.3915,-0.4445,-0.5185,-0.6003,-0.6557,-0.7028,-0.7425,-0.7362,-0.7301,-0.7265,-0.724,-0.7273,0.5112,0.0,0.4775,0.4683,0.0,0.464,0.457,0.4467,0.4409,0.4063,0.358,0.3517,0.3331,0.3145,0.3084,0.3036,0.301,0.301,0.2993,0.2962,0.2962,0.2931,0.2828,0.2797,0.2767,0.2738,0.2707,0.2677,0.2649,0.2649,0.2632,0.2601,0.2572,0.2556,0.2555,0.233,0.2031,0.1698,0.1445,0.1288,0.1236,0.1288,0.1297,0.1297,0.0,0.0,0.0,0.0,0.0,0.0,0.0,0.0,0.0,0.0,0.0,0.1631,0.1707,0.2013,0.2527,0.2101,0.1895,0.2151,0.1642,0.1224,0.1195,0.0469,0.0,0.0,0.0,0.0,0.0,0.0,0.0,0.0,0.0,0.0,0.0,0.0,0.0,0.0,-0.1217,-0.2075,-0.2052,-0.3635,-0.4657,-0.4777,-0.5067,-0.5254,-0.5205,-0.5238,-0.5216,-0.4961,-0.4763,-0.4558,-0.4302,-0.4206,-0.4038,-0.3839,-0.3763,-0.3726,-0.364,-0.3586,-0.3614,-0.3614,-0.4443,-0.5295,-0.553,-0.6281,-0.6999,-0.7049,-0.6952,-0.6887,-0.6924,-0.7033,-0.7126,0.5221,0.5021,0.4846,0.4695,0.4549,0.4563,0.4563,0.4555,0.0,0.0,0.0,0.3623,0.339,0.3232,0.3103,0.3002,0.2904,0.2903,0.2896,0.2886,0.2842,0.2815,0.2767,0.2798,0.2725,0.2676,0.2665,0.2634,0.2587,0.2585,0.2555,0.25,0.2495,0.2488,0.2442,0.2055,0.184,0.1762,0.1462,0.1237,0.1175,0.1236,0.1291,0.1297,0.1297,0.1297,0.1297,0.1297,0.1285,0.1221,0.122,0.1219,0.122,0.1219,0.1269,0.1293,0.1297,0.1532,0.2,0.1178,0.0865,0.1341,0.0523,0.029,0.1034,0.0432,0.0,0.0,0.0,0.0,0.0,0.0,0.0,0.0,0.0,0.0,0.0,0.0,0.0,0.0,-0.0809,-0.1365,-0.1466,-0.2947,-0.401,-0.4112,-0.4645,-0.511,-0.5057,-0.4991,-0.4929,-0.4653,-0.4394,-0.4133,-0.3905,-0.3821,-0.3751,-0.3651,-0.3667,-0.3681,-0.3607,-0.3581,-0.3552,-0.3487,-0.4547,-0.5157,-0.5297,-0.6075,-0.6759,-0.668,-0.6519,-0.64,-0.6526,-0.6722,-0.6849,0.5525,0.4925,0.501,0.4799,0.4461,0.4538,0.4528,0.4463,0.4503,0.4342,0.402,0.4031,0.3711,0.3183,0.3193,0.3028,0.2796,0.2796,0.2768,0.0,0.2718,0.2714,0.2702,0.2651,0.2623,0.261,0.2563,0.2531,0.2525,0.2523,0.2492,0.2439,0.2432,0.2371,0.229,0.1918,0.1711,0.1705,0.1375,0.1216,0.1174,0.1216,0.1231,0.1295,0.1295,0.1297,0.1297,0.1296,0.1294,0.1291,0.129,0.129,0.129,0.129,0.1292,0.1296,0.1297,0.1335,0.1414,0.106,0.0753,0.0485,0.0162,0.0082,0.0169,0.0085,0.0,0.0,0.0,0.0,0.0,0.0,0.0,0.0,0.0,0.0,0.0,0.0,0.0,0.0,-0.0787,-0.1271,-0.1384,-0.272,-0.3686,-0.3782,-0.4227,-0.4742,-0.4625,-0.4502,-0.4491,-0.4377,-0.4004,-0.377,-0.3745,-0.3647,-0.3554,-0.3518,-0.3534,-0.3528,-0.3476,-0.3459,-0.3449,-0.342,-0.4149,-0.4763,-0.5101,-0.5766,-0.6252,-0.6379,-0.6306,-0.6204,-0.6095,-0.622,-0.6437,0.5797,0.5415,0.5159,0.4886,0.4623,0.4474,0.44,0.4367,0.4406,0.4354,0.4227,0.4044,0.3821,0.3527,0.3392,0.318,0.2905,0.2906,0.2847,0.2695,0.2694,0.2674,0.2643,0.2614,0.2585,0.2549,0.2491,0.2422,0.2459,0.2432,0.2363,0.2338,0.2336,0.2323,0.2264,0.1896,0.1692,0.1685,0.1346,0.1179,0.1164,0.1179,0.1232,0.1245,0.1246,0.1254,0.1232,0.1232,0.1279,0.1295,0.1297,0.1297,0.1297,0.1297,0.1297,0.1297,0.1297,0.1297,0.1297,0.0943,0.0632,0.0319,0.012,0.0,0.0,0.0,0.0,0.0,0.0,0.0,0.0,0.0,0.0,0.0,0.0,0.0,0.0,0.0,0.0,0.0,-0.0362,-0.0595,-0.0587,-0.1683,-0.2441,-0.2449,-0.3257,-0.4028,-0.4219,-0.4129,-0.402,-0.3975,-0.376,-0.355,-0.3485,-0.3466,-0.3457,-0.3463,-0.3471,-0.3456,-0.3385,-0.3397,-0.3375,-0.3333,-0.3832,-0.4365,-0.4784,-0.5356,-0.577,-0.6077,-0.6079,-0.5996,-0.5947,-0.5988,-0.6159,0.601,0.5828,0.5387,0.5054,0.4802,0.4428,0.4297,0.4297,0.4279,0.4271,0.4227,0.4051,0.3926,0.3781,0.363,0.3365,0.3054,0.3007,0.2914,0.2734,0.2693,0.2627,0.2586,0.258,0.2549,0.2491,0.2441,0.2375,0.2397,0.2319,0.2292,0.228,0.2267,0.2296,0.226,0.1935,0.1737,0.1671,0.1382,0.1173,0.1088,0.1144,0.1196,0.1203,0.1203,0.1177,0.12,0.1208,0.1222,0.1284,0.1293,0.1297,0.1297,0.1297,0.1297,0.1297,0.1297,0.1297,0.1297,0.0904,0.0589,0.0393,0.0196,0.0,0.0,0.0,0.0,0.0,0.0,0.0,0.0,0.0,0.0,0.0,0.0,0.0,0.0,0.0,0.0,0.0,0.0,0.0,0.0,-0.0775,-0.142,-0.1809,-0.256,-0.3424,-0.3767,-0.3619,-0.3491,-0.3561,-0.3508,-0.3408,-0.3232,-0.3285,-0.3362,-0.3366,-0.3365,-0.3348,-0.3333,-0.3317,-0.328,-0.3206,-0.3455,-0.3918,-0.4351,-0.4839,-0.5251,-0.5586,-0.5741,-0.5819,-0.5815,-0.5815,-0.5921,0.6108,0.5746,0.5764,0.5401,0.48,0.4426,0.4297,0.4285,0.4262,0.4227,0.4183,0.4183,0.4002,0.3813,0.37,0.3499,0.3185,0.2978,0.2865,0.2774,0.2606,0.2484,0.2519,0.2516,0.2486,0.2395,0.2379,0.2348,0.2308,0.2297,0.2271,0.2217,0.2198,0.221,0.2173,0.197,0.1796,0.162,0.1387,0.1233,0.112,0.1089,0.1138,0.1201,0.1202,0.1204,0.1208,0.1197,0.1213,0.1217,0.128,0.1295,0.1295,0.1296,0.1295,0.1295,0.1295,0.1297,0.1297,0.1061,0.0786,0.0589,0.0393,0.0196,0.0039,0.0,0.0,0.0,0.0,0.0,0.0,0.0,0.0,0.0,0.0,0.0,0.0,0.0,0.0,0.0,0.0,0.0,0.0,-0.0689,-0.1437,-0.1901,-0.2403,-0.2868,-0.2897,-0.2742,-0.2761,-0.3057,-0.3194,-0.3194,-0.3194,-0.3196,-0.3246,-0.324,-0.3179,-0.3154,-0.3162,-0.31,-0.3053,-0.3076,-0.3063,-0.337,-0.3809,-0.4219,-0.4632,-0.5108,-0.5405,-0.5636,-0.5636,-0.5636,-0.573,0.623,0.6045,0.583,0.5455,0.4901,0.4629,0.4493,0.4391,0.4274,0.4185,0.4087,0.4034,0.397,0.3841,0.3847,0.3662,0.3385,0.3263,0.3089,0.2821,0.2667,0.2534,0.2454,0.2385,0.2355,0.2331,0.2297,0.2269,0.2244,0.2247,0.2215,0.2192,0.2199,0.2188,0.2188,0.1985,0.1816,0.158,0.1412,0.1251,0.1127,0.1094,0.1135,0.1146,0.1147,0.1157,0.1138,0.1152,0.1167,0.1183,0.1234,0.1241,0.1241,0.1616,0.1653,0.128,0.1221,0.1239,0.1295,0.1061,0.0864,0.0786,0.0589,0.0393,0.0196,0.0196,0.0118,0.0,0.0,0.0,0.0,0.0,0.0,0.0,0.0,0.0,0.0,0.0,0.0,0.0,0.0,0.0,0.0,-0.0277,-0.0819,-0.1388,-0.17,-0.1733,-0.1965,-0.1873,-0.1804,-0.1947,-0.2318,-0.2787,-0.3056,-0.3192,-0.317,-0.3156,-0.3117,-0.3115,-0.3045,-0.302,-0.2987,-0.2981,-0.2972,-0.3129,-0.3543,-0.3738,-0.406,-0.4591,-0.5121,-0.543,-0.543,-0.543,-0.5474,0.6265,0.6244,0.5815,0.5435,0.5058,0.484,0.4607,0.443,0.4278,0.4101,0.3993,0.3901,0.3863,0.3861,0.3863,0.3744,0.3571,0.3526,0.332,0.295,0.2783,0.2601,0.2466,0.2319,0.2289,0.2271,0.2232,0.2202,0.2183,0.2213,0.2188,0.2188,0.2188,0.2188,0.2188,0.2052,0.1884,0.1681,0.1479,0.1311,0.1176,0.1109,0.1109,0.1109,0.1109,0.1086,0.1107,0.1082,0.1131,0.1153,0.1198,0.1276,0.1493,0.1929,0.2074,0.1823,0.1779,0.1817,0.1901,0.171,0.1597,0.1567,0.1412,0.1138,0.0823,0.0663,0.0468,0.0,0.0156,0.0,0.0,0.0,0.0,0.0,0.0,0.0,0.0,0.0,0.0,0.0,0.0,0.0,0.0,0.0,-0.0225,-0.0618,-0.0666,-0.0653,-0.1099,-0.1031,-0.0898,-0.108,-0.1474,-0.1907,-0.2685,-0.3049,-0.3081,-0.3079,-0.3032,-0.2981,-0.2954,-0.2937,-0.2911,-0.2861,-0.2898,-0.2985,-0.3183,-0.336,-0.3676,-0.4319,-0.4802,-0.5112,-0.5124,-0.5191,-0.5305,0.6265,0.6225,0.5826,0.5452,0.5168,0.4911,0.4592,0.4365,0.4244,0.4076,0.3934,0.3855,0.381,0.3808,0.3814,0.3808,0.3763,0.36,0.3405,0.3232,0.2872,0.2648,0.2592,0.2407,0.2268,0.2217,0.2206,0.2211,0.2199,0.219,0.2188,0.2188,0.2188,0.2188,0.2188,0.2188,0.2085,0.1849,0.1681,0.1479,0.1311,0.1176,0.1109,0.1109,0.1109,0.111,0.1116,0.1106,0.1121,0.1123,0.122,0.149,0.207,0.2178,0.2501,0.3049,0.3163,0.3204,0.3276,0.3215,0.3203,0.3184,0.2918,0.262,0.1872,0.1532,0.1148,0.0666,0.0615,0.0455,0.0,0.0,0.0,0.0,0.0,0.0,0.0,0.0,0.0,0.0,0.0,0.0,0.0,0.0124,0.0155,0.0031,-0.0185,-0.0401,-0.0372,-0.0279,-0.0402,-0.0714,-0.0716,-0.0656,-0.1793,-0.2548,-0.2929,-0.2927,-0.2768,-0.2822,-0.2809,-0.2772,-0.2768,-0.2746,-0.2738,-0.2795,-0.2848,-0.3091,-0.352,-0.4021,-0.4411,-0.466,-0.4715,-0.5046,-0.5187,0.588,0.5795,0.5545,0.5424,0.5312,0.5056,0.4826,0.4642,0.4322,0.411,0.4011,0.3855,0.3769,0.3677,0.3777,0.3802,0.3795,0.3625,0.3469,0.3281,0.3039,0.2797,0.2524,0.2414,0.2315,0.2191,0.2185,0.221,0.219,0.2188,0.2188,0.2188,0.2188,0.2188,0.2188,0.2188,0.2085,0.1918,0.1816,0.1648,0.1344,0.1244,0.121,0.1109,0.1109,0.1109,0.1109,0.1087,0.1297,0.1705,0.179,0.2109,0.2728,0.2832,0.3169,0.378,0.3542,0.3333,0.3375,0.3354,0.3364,0.3315,0.3285,0.3165,0.2696,0.2136,0.165,0.1464,0.1245,0.0961,0.0481,0.026,0.0149,0.0,0.0,0.0,0.0,0.0,0.0035,0.01,0.0194,0.0252,0.0247,0.0303,0.0333,0.0337,0.0298,0.0267,0.0304,0.0425,0.0391,0.0215,0.0031,-0.0215,-0.0546,-0.1736,-0.2418,-0.2453,-0.2455,-0.265,-0.2725,-0.2734,-0.2705,-0.2705,-0.2693,-0.2691,-0.2777,-0.3028,-0.3413,-0.3552,-0.3968,-0.4218,-0.4245,-0.4605,-0.4825,0.5561,0.5485,0.5404,0.5385,0.5311,0.5146,0.4961,0.4821,0.4499,0.426,0.4086,0.396,0.3789,0.3646,0.3691,0.374,0.3717,0.3638,0.3525,0.332,0.3169,0.2929,0.2658,0.248,0.2356,0.2251,0.2199,0.2149,0.2129,0.2128,0.2128,0.2125,0.2146,0.2159,0.216,0.2178,0.2119,0.2018,0.2118,0.2017,0.1781,0.1847,0.1879,0.1812,0.1779,0.1644,0.1443,0.1646,0.198,0.238,0.2447,0.2781,0.3451,0.3785,0.4121,0.4535,0.4235,0.401,0.4034,0.4018,0.4068,0.4099,0.4032,0.3921,0.3641,0.3058,0.261,0.2362,0.2214,0.1869,0.1491,0.1284,0.0919,0.0365,0.0144,0.0177,0.0174,0.0,0.02,0.0253,0.0336,0.0391,0.0418,0.047,0.0499,0.0508,0.0661,0.0747,0.0768,0.0826,0.0934,0.0924,0.0536,0.0354,0.0088,-0.0709,-0.1487,-0.1602,-0.206,-0.2315,-0.2495,-0.2531,-0.2635,-0.2663,-0.2691,-0.2691,-0.2802,-0.2996,-0.3135,-0.319,-0.3497,-0.383,-0.3968,-0.4162,-0.4301,0.5469,0.5363,0.5407,0.5325,0.5195,0.5146,0.5002,0.476,0.4672,0.4472,0.4176,0.4068,0.3885,0.3666,0.3616,0.3581,0.3518,0.3563,0.3485,0.3395,0.3186,0.3067,0.2935,0.2629,0.2417,0.2377,0.2191,0.21,0.2084,0.2115,0.2113,0.2085,0.2261,0.2352,0.2158,0.2339,0.231,0.2377,0.2608,0.2713,0.2753,0.295,0.305,0.3049,0.3082,0.2815,0.2213,0.2748,0.3082,0.3182,0.3182,0.3549,0.4251,0.4858,0.5329,0.5276,0.5302,0.5406,0.5459,0.5413,0.5361,0.5435,0.5493,0.5051,0.4588,0.4184,0.3787,0.3374,0.3254,0.3143,0.2909,0.2848,0.2271,0.0883,0.0716,0.0713,0.0638,0.0558,0.0505,0.0569,0.0664,0.0479,0.0506,0.079,0.0962,0.0962,0.0958,0.0983,0.0995,0.0965,0.0901,0.0902,0.077,0.0686,0.0566,0.0365,-0.0225,-0.0786,-0.138,-0.1825,-0.1968,-0.2043,-0.2352,-0.2437,-0.2663,-0.2663,-0.2691,-0.2858,-0.283,-0.2942,-0.3218,-0.3385,-0.3441,-0.358,-0.3771,0.5159,0.5127,0.5127,0.5108,0.5072,0.5069,0.5006,0.4898,0.4779,0.4578,0.4365,0.409,0.381,0.363,0.3542,0.3456,0.3328,0.3401,0.3449,0.3358,0.3231,0.3121,0.2995,0.2889,0.2662,0.2357,0.2171,0.2283,0.2564,0.2611,0.2801,0.3175,0.3226,0.3275,0.3212,0.3277,0.3348,0.3441,0.3452,0.3451,0.3447,0.3418,0.3351,0.3282,0.3685,0.3818,0.3651,0.3351,0.3451,0.392,0.3951,0.4287,0.4957,0.5292,0.5395,0.5395,0.5395,0.5405,0.5453,0.547,0.5491,0.5494,0.547,0.5418,0.524,0.4657,0.4301,0.413,0.401,0.3753,0.3381,0.3618,0.3261,0.214,0.2002,0.1929,0.1791,0.1813,0.1868,0.1883,0.194,0.1989,0.1956,0.2012,0.1956,0.1928,0.1734,0.1511,0.1484,0.1233,0.0898,0.0898,0.0897,0.0981,0.0869,0.0757,0.0364,-0.014,-0.0699,-0.1174,-0.1343,-0.1623,-0.1931,-0.2156,-0.2382,-0.2549,-0.2579,-0.2607,-0.2549,-0.2607,-0.28,-0.2856,-0.2828,-0.2965,-0.3186,0.5556,0.5326,0.5323,0.5171,0.5018,0.5018,0.4952,0.4914,0.4794,0.4614,0.4412,0.4175,0.3862,0.3637,0.3564,0.3399,0.3208,0.3289,0.3311,0.334,0.326,0.3161,0.3084,0.3152,0.2976,0.2666,0.2647,0.2848,0.315,0.3177,0.3352,0.3653,0.3751,0.3745,0.3751,0.379,0.3851,0.3937,0.4045,0.4051,0.4022,0.4134,0.412,0.4025,0.443,0.4686,0.4658,0.4253,0.4253,0.4622,0.4722,0.4957,0.5359,0.5395,0.5395,0.5395,0.5395,0.5395,0.5395,0.5402,0.5395,0.5395,0.5395,0.5433,0.5403,0.4928,0.4787,0.485,0.4757,0.4503,0.4264,0.4398,0.4296,0.3812,0.3145,0.2867,0.27,0.2603,0.2572,0.2535,0.2599,0.2689,0.2681,0.2681,0.2681,0.2625,0.2374,0.2124,0.2069,0.1846,0.1624,0.1456,0.1428,0.14,0.1261,0.1093,0.0897,0.0448,-0.0028,-0.0364,-0.0616,-0.1091,-0.1454,-0.1482,-0.1651,-0.1875,-0.1959,-0.2099,-0.2128,-0.2296,-0.2437,-0.2465,-0.2491,-0.2519,-0.2685,0.6518,0.5977,0.5902,0.5556,0.5093,0.5015,0.4917,0.4814,0.4804,0.4625,0.438,0.4287,0.4042,0.3676,0.3591,0.344,0.3274,0.32,0.3307,0.3335,0.3313,0.3332,0.3401,0.3526,0.3399,0.3161,0.3426,0.3621,0.3671,0.3666,0.3683,0.3837,0.3929,0.383,0.3961,0.3914,0.4016,0.416,0.4455,0.4565,0.4473,0.5,0.5236,0.5047,0.5193,0.5292,0.5259,0.5193,0.5259,0.5392,0.5296,0.5326,0.5395,0.5395,0.5395,0.5395,0.5395,0.5395,0.5395,0.5395,0.5395,0.5395,0.5395,0.5395,0.5376,0.5309,0.5272,0.5306,0.5289,0.5309,0.5276,0.5279,0.5243,0.5196,0.4119,0.3432,0.3162,0.3017,0.3003,0.2934,0.2822,0.282,0.2959,0.2959,0.2933,0.2903,0.2875,0.2764,0.2708,0.2599,0.2627,0.2402,0.204,0.1958,0.1818,0.1734,0.1568,0.1371,0.0867,0.042,0.0,-0.0503,-0.1006,-0.1034,-0.1006,-0.1202,-0.1398,-0.1566,-0.179,-0.2015,-0.2099,-0.2156,-0.2212,-0.2266,-0.224,0.6938,0.6595,0.6131,0.5786,0.5592,0.521,0.4944,0.4804,0.479,0.4739,0.4485,0.428,0.4183,0.3876,0.3671,0.3484,0.3466,0.3328,0.3525,0.3908,0.3871,0.3948,0.4071,0.4055,0.3895,0.3706,0.3764,0.3889,0.4245,0.4239,0.4432,0.4853,0.4786,0.4836,0.4902,0.4862,0.4987,0.51,0.5217,0.5288,0.5248,0.5389,0.5491,0.5341,0.5371,0.5428,0.5395,0.5395,0.5395,0.5395,0.5395,0.5395,0.5395,0.5395,0.5395,0.5395,0.5395,0.5395,0.5395,0.5425,0.5428,0.5395,0.5524,0.5395,0.5395,0.5428,0.5395,0.5395,0.5395,0.5462,0.5428,0.5462,0.5462,0.5332,0.4861,0.4394,0.4293,0.4187,0.4023,0.4024,0.3959,0.3932,0.3904,0.3935,0.3935,0.3876,0.3627,0.3378,0.3322,0.3098,0.3014,0.2792,0.2514,0.2486,0.243,0.2347,0.2293,0.2237,0.1789,0.1203,0.07,0.0112,-0.042,-0.0783,-0.0643,-0.0727,-0.0894,-0.109,-0.137,-0.1567,-0.1568,-0.1513,-0.1849,-0.2017,-0.1934,0.7744,0.7357,0.6899,0.6398,0.5931,0.5765,0.5434,0.5132,0.5277,0.5251,0.5077,0.4975,0.4833,0.4661,0.4492,0.4325,0.4259,0.4156,0.435,0.4617,0.4779,0.4713,0.4603,0.4475,0.4464,0.4346,0.4365,0.4541,0.4781,0.4825,0.5022,0.5191,0.5301,0.5301,0.5254,0.5305,0.5369,0.545,0.5468,0.5476,0.5525,0.5531,0.5442,0.5367,0.5372,0.5491,0.5785,0.6079,0.6017,0.5591,0.5395,0.5395,0.5395,0.5395,0.5395,0.5395,0.5395,0.5395,0.5458,0.562,0.5815,0.5881,0.6046,0.621,0.6276,0.6247,0.6243,0.6276,0.6243,0.6243,0.6243,0.6247,0.6247,0.6273,0.5935,0.5498,0.5009,0.4621,0.4518,0.4491,0.4491,0.4491,0.4491,0.4491,0.4491,0.4405,0.4156,0.4018,0.3962,0.3624,0.3456,0.3456,0.3234,0.3151,0.2984,0.2873,0.2681,0.2653,0.2541,0.1958,0.126,0.07,0.0336,-0.0056,-0.0112,-0.0224,-0.0364,-0.0448,-0.056,-0.0672,-0.0757,-0.0981,-0.1289,-0.1513,-0.1486,0.8746,0.8194,0.7936,0.7157,0.6276,0.646,0.6089,0.5633,0.5863,0.5958,0.5829,0.5863,0.5638,0.5617,0.5385,0.5448,0.5279,0.5113,0.5232,0.5389,0.5528,0.5506,0.4984,0.5059,0.5046,0.4997,0.5219,0.525,0.5215,0.5246,0.5274,0.5301,0.5301,0.5301,0.5301,0.5301,0.5325,0.5483,0.5581,0.5681,0.5785,0.5846,0.5836,0.5616,0.5738,0.6007,0.649,0.6896,0.6798,0.569,0.5624,0.5756,0.569,0.5657,0.569,0.5756,0.5818,0.5785,0.5752,0.6272,0.6498,0.6597,0.7022,0.7386,0.7223,0.7158,0.7158,0.7125,0.7354,0.7223,0.719,0.7321,0.7223,0.7108,0.6937,0.6263,0.5419,0.4801,0.4598,0.4574,0.457,0.4491,0.4491,0.4491,0.4519,0.4791,0.4649,0.4704,0.4759,0.4752,0.4642,0.4646,0.4312,0.3843,0.3622,0.3372,0.3123,0.2959,0.2959,0.2541,0.1762,0.1259,0.1092,0.0868,0.0616,0.042,0.0308,0.0224,0.0196,0.0056,-0.0112,-0.0364,-0.0645,-0.0785,-0.0813,0.9284,0.897,0.8318,0.7812,0.7352,0.682,0.6379,0.5974,0.6069,0.6124,0.5948,0.5925,0.5921,0.5888,0.5782,0.5583,0.5609,0.5522,0.5453,0.5743,0.6155,0.617,0.5883,0.5857,0.5661,0.5536,0.5513,0.5462,0.5356,0.5329,0.5301,0.5301,0.5301,0.5329,0.5352,0.5407,0.5563,0.5909,0.6137,0.6308,0.653,0.6743,0.6716,0.6406,0.6559,0.6843,0.713,0.7321,0.7256,0.706,0.6966,0.6961,0.6868,0.6835,0.6835,0.6802,0.6863,0.6896,0.6994,0.706,0.7181,0.72,0.7386,0.7386,0.7423,0.7474,0.7442,0.7386,0.7386,0.7517,0.7549,0.7419,0.7517,0.7524,0.7332,0.7066,0.6607,0.5781,0.5219,0.5073,0.4822,0.4515,0.4543,0.4625,0.4763,0.5034,0.5226,0.5363,0.5496,0.566,0.5578,0.5445,0.5195,0.4725,0.456,0.4257,0.3898,0.3594,0.3486,0.3347,0.2541,0.1928,0.1818,0.154,0.1205,0.1065,0.098,0.0981,0.0953,0.0757,0.0505,0.0252,0.0028,-0.0084,-0.0336,0.9549,0.9382,0.8783,0.8226,0.7781,0.7394,0.696,0.6577,0.668,0.673,0.6659,0.6642,0.6642,0.6642,0.6539,0.6502,0.6445,0.6274,0.623,0.6401,0.6711,0.6809,0.6747,0.6734,0.6561,0.5941,0.5645,0.554,0.5434,0.538,0.5301,0.5301,0.5329,0.5489,0.57,0.5727,0.6055,0.6495,0.6704,0.6893,0.7092,0.7207,0.7289,0.7083,0.7293,0.7597,0.7904,0.8264,0.8366,0.8371,0.8371,0.8042,0.7517,0.7386,0.7386,0.7386,0.7386,0.7386,0.7419,0.7702,0.7857,0.7725,0.7969,0.8159,0.8196,0.8196,0.827,0.8334,0.8404,0.8398,0.8371,0.8404,0.8366,0.8302,0.8079,0.7928,0.7707,0.6721,0.5901,0.5851,0.5586,0.5407,0.5308,0.5144,0.5304,0.5714,0.5741,0.585,0.5828,0.5964,0.6018,0.5937,0.5823,0.566,0.5523,0.5222,0.4756,0.4453,0.4233,0.407,0.3627,0.307,0.2569,0.2265,0.193,0.1762,0.1679,0.1708,0.1625,0.1346,0.1094,0.0869,0.0673,0.0505,0.0196,0.9906,0.9841,0.9348,0.8726,0.8096,0.8037,0.7627,0.7123,0.7376,0.741,0.7493,0.7493,0.7363,0.7451,0.7501,0.7556,0.7582,0.741,0.7195,0.7135,0.7304,0.7329,0.7317,0.745,0.7283,0.6322,0.6159,0.5996,0.5891,0.5677,0.5814,0.5654,0.5622,0.5946,0.6263,0.6372,0.6615,0.7139,0.7236,0.7367,0.7555,0.7553,0.7635,0.7853,0.7949,0.8335,0.8706,0.9081,0.9382,0.9478,0.9478,0.8833,0.806,0.7702,0.7678,0.77,0.7795,0.7819,0.7827,0.8159,0.8378,0.8214,0.8638,0.8979,0.9003,0.8964,0.9051,0.9293,0.9376,0.9448,0.9526,0.9503,0.9516,0.945,0.9119,0.8952,0.8679,0.7742,0.7228,0.6542,0.6151,0.5891,0.5937,0.5909,0.6127,0.6312,0.6367,0.6394,0.6421,0.648,0.6669,0.6588,0.6507,0.6122,0.5932,0.585,0.5441,0.5281,0.5007,0.4842,0.4677,0.4481,0.395,0.3098,0.271,0.2514,0.243,0.246,0.2294,0.1962,0.1794,0.168,0.1428,0.1121,0.0841,1.1357,1.1116,1.0143,0.95,0.9077,0.851,0.8014,0.7635,0.7681,0.7596,0.7559,0.7526,0.7619,0.7645,0.7823,0.8102,0.8223,0.8041,0.7931,0.7824,0.7891,0.7806,0.7836,0.8004,0.7818,0.7605,0.7305,0.7069,0.6837,0.6815,0.6593,0.6734,0.6707,0.681,0.6891,0.6972,0.7208,0.7691,0.7797,0.7958,0.8213,0.8447,0.8696,0.8969,0.8937,0.9156,0.9472,0.9542,0.9478,0.9478,0.9478,0.9257,0.9017,0.9047,0.8998,0.8828,0.8759,0.8726,0.8689,0.8639,0.8681,0.8628,0.8847,0.8992,0.9114,0.9168,0.9451,0.9636,0.9939,1.0065,0.9784,1.0089,1.0134,0.9982,0.9809,0.9675,0.9579,0.9112,0.8318,0.7471,0.6814,0.6448,0.674,0.6956,0.709,0.7278,0.7358,0.7498,0.7605,0.761,0.767,0.7488,0.7246,0.6729,0.6236,0.6209,0.6014,0.5991,0.5828,0.5714,0.5664,0.5828,0.5386,0.4419,0.3649,0.3236,0.3209,0.3211,0.31,0.2852,0.2683,0.2543,0.2293,0.2041,0.1821,1.1184,1.1035,1.06,1.0071,0.9538,0.9311,0.8832,0.8349,0.8528,0.8592,0.8554,0.8522,0.8517,0.8521,0.8487,0.8582,0.8522,0.8314,0.8207,0.8191,0.8313,0.8375,0.8455,0.8633,0.8718,0.8639,0.8455,0.7972,0.7369,0.7133,0.7187,0.7079,0.7106,0.7241,0.7482,0.753,0.7851,0.8256,0.8395,0.8474,0.8712,0.8998,0.9375,0.9731,0.991,1.0129,1.0525,1.0598,1.0528,1.0559,1.0528,1.0441,1.0388,1.035,1.0245,0.9792,0.9684,0.9804,0.9797,0.973,0.9542,0.9409,0.9495,0.9706,0.9873,1.0007,1.0087,1.0273,1.0428,1.0595,1.0461,1.0653,1.0576,1.0326,1.0154,1.0044,0.989,0.9685,0.9099,0.8401,0.8196,0.8051,0.8045,0.8184,0.8157,0.8217,0.8323,0.8461,0.8626,0.8626,0.8553,0.8441,0.815,0.7717,0.7203,0.6988,0.6826,0.6745,0.6642,0.6561,0.6394,0.6448,0.6231,0.5624,0.4913,0.434,0.3873,0.3846,0.379,0.3735,0.3458,0.3209,0.3125,0.2961,0.2685,1.1104,1.1119,1.0911,1.049,1.0007,0.9932,0.9597,0.918,0.939,0.9412,0.9414,0.9418,0.9356,0.9269,0.9096,0.8977,0.8902,0.8777,0.8783,0.8868,0.9203,0.9295,0.9295,0.9581,0.9873,0.9744,0.9588,0.8902,0.8037,0.7696,0.7563,0.7771,0.7691,0.7871,0.8369,0.8606,0.8778,0.8942,0.9106,0.9106,0.9185,0.9344,0.9705,1.0229,1.0471,1.0762,1.1059,1.1025,1.1128,1.1178,1.1276,1.1307,1.1406,1.1537,1.1214,1.0559,1.0472,1.0559,1.0473,1.0329,0.9881,0.9725,1.0218,1.0442,1.0617,1.0664,1.097,1.1107,1.1272,1.1238,1.1162,1.1267,1.1111,1.077,1.0537,1.0304,1.0161,1.0038,1.0019,0.9647,0.9603,0.9406,0.9183,0.8981,0.885,0.8876,0.8981,0.9033,0.9178,0.9283,0.9256,0.9283,0.9066,0.8725,0.8349,0.8031,0.7845,0.7631,0.7503,0.7396,0.7122,0.6907,0.674,0.6713,0.6394,0.5792,0.5164,0.4725,0.4917,0.4831,0.4257,0.3901,0.379,0.3541,0.3236,1.2444,1.2438,1.1136,1.074,1.0947,1.0281,0.9898,0.985,0.9831,0.9505,0.9334,0.9392,0.929,0.8991,0.9134,0.9549,0.9913,0.9971,0.9907,1.0004,1.0419,1.0431,1.0318,1.077,1.0753,1.0625,1.0549,0.9932,0.9066,0.8685,0.8811,0.9086,0.9157,0.947,0.9688,0.9721,1.0159,1.0192,1.0167,1.0141,1.0141,1.0192,1.0388,1.057,1.0654,1.0829,1.1197,1.1223,1.1114,1.1361,1.1248,1.1144,1.1219,1.1681,1.1739,1.1354,1.0891,1.0381,1.0124,1.0045,1.003,1.006,1.027,1.037,1.0985,1.1406,1.1675,1.1456,1.1849,1.2104,1.2047,1.2139,1.1938,1.1676,1.143,1.1167,1.0921,1.085,1.0778,1.0846,1.0787,1.0303,0.9935,0.971,0.9536,0.9588,0.964,0.9718,0.9769,0.9925,0.9795,0.9744,0.9692,0.938,0.9066,0.883,0.8692,0.8481,0.8355,0.8223,0.8057,0.7892,0.7845,0.7765,0.753,0.7343,0.687,0.6546,0.6416,0.5955,0.5378,0.4893,0.4457,0.4181,0.4091,1.2646,1.2643,1.2167,1.1687,1.1351,1.1603,1.1115,1.0391,1.0786,1.0763,1.0328,1.0147,0.9852,0.9595,0.9914,1.0215,1.0407,1.0454,1.06,1.0854,1.1108,1.1074,1.0956,1.1082,1.1158,1.1158,1.093,1.0625,1.0035,0.9873,0.9858,0.9987,1.0064,1.0064,1.0491,1.0415,1.0389,1.0372,1.0397,1.0397,1.0474,1.0684,1.0942,1.1206,1.1321,1.1764,1.2228,1.2282,1.2467,1.292,1.3084,1.3113,1.3261,1.3607,1.3789,1.343,1.2901,1.2115,1.1109,1.0703,1.0711,1.0912,1.1264,1.1828,1.236,1.2769,1.3045,1.3205,1.31,1.3137,1.3267,1.3508,1.3272,1.2923,1.2439,1.2228,1.1987,1.1856,1.1807,1.1891,1.19,1.1409,1.0922,1.0711,1.0584,1.0609,1.0635,1.0694,1.0694,1.0727,1.0472,1.0113,1.0061,0.9932,0.9614,0.9354,0.9347,0.9216,0.9164,0.9059,0.9086,0.9007,0.8902,0.8928,0.8869,0.8659,0.8428,0.7717,0.6966,0.6723,0.6507,0.6041,0.566,0.5878,0.5706,1.2846,1.2858,1.2854,1.2392,1.1827,1.2701,1.2217,1.1073,1.17,1.18,1.1383,1.0943,1.0649,1.0558,1.0798,1.0887,1.0896,1.0829,1.1057,1.1334,1.1535,1.1585,1.156,1.156,1.166,1.156,1.156,1.1426,1.1359,1.1149,1.0998,1.0652,1.0635,1.0762,1.083,1.0956,1.104,1.1191,1.1032,1.1074,1.125,1.1435,1.1684,1.1962,1.2304,1.2834,1.3575,1.3557,1.3747,1.4171,1.4419,1.442,1.4658,1.4821,1.485,1.4523,1.4096,1.3584,1.2679,1.2182,1.2112,1.2396,1.2778,1.3353,1.4044,1.446,1.451,1.4549,1.4341,1.4401,1.456,1.4574,1.4156,1.3756,1.3412,1.3261,1.3084,1.2819,1.2525,1.235,1.2399,1.2545,1.212,1.1792,1.1676,1.1676,1.1676,1.166,1.161,1.156,1.1426,1.1107,1.1107,1.1049,1.0847,1.0491,1.0295,1.002,0.9994,0.9814,0.9788,0.9832,0.9799,0.9884,0.9987,0.9729,0.9358,0.8375,0.7461,0.7316,0.7182,0.7106,0.6999,0.7192,0.7025,1.3532,1.3447,1.2527,1.2468,1.2887,1.252,1.2467,1.2225,1.2363,1.21,1.1597,1.1385,1.1427,1.1504,1.149,1.1658,1.202,1.2011,1.2119,1.2292,1.248,1.2539,1.2471,1.2525,1.2691,1.2618,1.2501,1.2589,1.2725,1.2511,1.2039,1.1418,1.1501,1.1635,1.181,1.195,1.2098,1.2206,1.2098,1.2286,1.253,1.2662,1.2661,1.2822,1.2905,1.2983,1.2998,1.354,1.4176,1.4713,1.5117,1.5401,1.5718,1.5924,1.582,1.5573,1.5328,1.4965,1.4513,1.3682,1.3633,1.4,1.4406,1.4777,1.5418,1.5362,1.5371,1.5575,1.5555,1.5478,1.537,1.5011,1.5121,1.4844,1.4682,1.4368,1.4077,1.3608,1.3298,1.2929,1.3034,1.343,1.3501,1.3239,1.2472,1.2374,1.2252,1.2236,1.2325,1.2325,1.2423,1.2365,1.2414,1.2414,1.2423,1.207,1.145,1.1133,1.1032,1.0677,1.0346,1.0448,1.0889,1.0737,1.0796,1.0542,1.0218,0.9366,0.8613,0.809,0.7851,0.7877,0.7696,0.7595,0.7429,1.4535,1.4478,1.405,1.351,1.2966,1.3266,1.2975,1.2407,1.2642,1.2306,1.1618,1.2157,1.2428,1.2422,1.2696,1.2943,1.3457,1.3826,1.3665,1.3693,1.3865,1.3876,1.3734,1.3583,1.3716,1.3621,1.3563,1.3443,1.3443,1.3518,1.3242,1.2808,1.2749,1.2783,1.2987,1.3001,1.3132,1.318,1.3142,1.3228,1.3314,1.3569,1.3606,1.3666,1.3914,1.4504,1.5121,1.5125,1.5748,1.6313,1.6658,1.6824,1.6992,1.7252,1.7306,1.71,1.6888,1.6803,1.6495,1.5337,1.44,1.5102,1.5579,1.6134,1.6725,1.6897,1.7113,1.7169,1.6985,1.6845,1.7192,1.7126,1.7003,1.6475,1.5994,1.5645,1.529,1.488,1.4717,1.4639,1.4649,1.4858,1.4835,1.4733,1.3807,1.3034,1.2899,1.2851,1.3058,1.3154,1.3273,1.3321,1.3345,1.3226,1.3188,1.2861,1.2482,1.2276,1.208,1.1724,1.1416,1.1888,1.2159,1.1913,1.1616,1.1466,1.1091,1.0372,0.9703,0.9079,0.8823,0.8778,0.8494,0.815,0.8037,1.5488,1.5488,1.5477,1.4732,1.3644,1.4136,1.3827,1.308,1.3392,1.314,1.234,1.3224,1.3477,1.3417,1.3571,1.3881,1.4248,1.4623,1.4714,1.4728,1.4725,1.5004,1.4876,1.469,1.4556,1.4636,1.4524,1.4376,1.4514,1.4352,1.4411,1.4491,1.4433,1.4329,1.3792,1.3956,1.405,1.412,1.4014,1.4131,1.426,1.4354,1.455,1.4619,1.4835,1.5223,1.5986,1.6196,1.6786,1.7467,1.7964,1.8247,1.8506,1.8766,1.899,1.8855,1.877,1.8708,1.8142,1.7371,1.6015,1.6822,1.7064,1.7573,1.7986,1.8251,1.8221,1.8405,1.8274,1.8317,1.87,1.8222,1.7921,1.7317,1.7368,1.7098,1.6908,1.6609,1.6546,1.6471,1.6312,1.5837,1.5521,1.5376,1.5095,1.4378,1.432,1.425,1.425,1.4273,1.4181,1.4181,1.4134,1.3971,1.376,1.3713,1.3619,1.3263,1.3072,1.2865,1.2793,1.3174,1.3208,1.2861,1.2609,1.2438,1.212,1.1641,1.0847,0.9969,0.9736,0.9529,0.9521,0.9235,0.9131,1.6384,1.6371,1.6384,1.586,1.5119,1.5074,1.4926,1.4675,1.4674,1.4489,1.4133,1.4336,1.4426,1.4414,1.4629,1.486,1.5134,1.5398,1.5549,1.5649,1.5943,1.5958,1.6004,1.5975,1.5956,1.603,1.5966,1.5871,1.5838,1.5826,1.6025,1.6262,1.6231,1.5768,1.4538,1.4744,1.5095,1.5263,1.4948,1.5174,1.5387,1.5376,1.5554,1.5885,1.6115,1.65,1.7119,1.7494,1.801,1.8483,1.8729,1.8892,1.9067,1.9318,1.9259,1.8812,1.9219,1.913,1.8605,1.8707,1.8642,1.845,1.8398,1.8724,1.8962,1.9097,1.9218,1.9582,1.9333,1.9176,1.8978,1.8759,1.8731,1.866,1.8773,1.8661,1.8475,1.8193,1.8077,1.7738,1.711,1.6526,1.6151,1.5908,1.5996,1.5808,1.5766,1.5656,1.5387,1.5186,1.4971,1.4926,1.4858,1.4881,1.4744,1.4858,1.4755,1.4389,1.4134,1.3971,1.3841,1.3969,1.3909,1.3718,1.3566,1.3426,1.327,1.3064,1.2144,1.1241,1.0466,1.0192,1.0261,1.021,0.9902,1.734,1.7327,1.7327,1.7272,1.6985,1.5935,1.5608,1.575,1.5862,1.5752,1.5475,1.5586,1.5924,1.6104,1.6245,1.6502,1.7276,1.7878,1.8077,1.7678,1.7867,1.827,1.8326,1.8077,1.7921,1.7935,1.775,1.7395,1.7083,1.7294,1.7258,1.7418,1.7831,1.7379,1.6265,1.594,1.6039,1.6083,1.5996,1.6051,1.6303,1.657,1.6952,1.748,1.7827,1.8283,1.8883,1.9119,1.9349,1.9767,1.9986,1.979,1.9974,2.0252,1.9847,1.9634,1.9942,1.9879,1.9671,1.9707,1.9661,1.9475,1.9216,1.9632,2.0662,2.0588,2.0719,2.0835,2.0756,2.0805,2.103,2.0952,2.086,2.0593,2.0525,2.0289,2.0052,1.9675,1.939,1.8836,1.8229,1.7919,1.7586,1.7232,1.719,1.694,1.6824,1.625,1.5908,1.5732,1.5543,1.5555,1.5533,1.5656,1.5744,1.5818,1.573,1.5364,1.523,1.5197,1.5073,1.4858,1.4892,1.4846,1.4617,1.4376,1.4143,1.3839,1.3328,1.2594,1.1756,1.1007,1.0864,1.0644,1.0287,1.8631,1.8612,1.8607,1.8708,1.8612,1.7227,1.673,1.7001,1.7184,1.706,1.6847,1.6972,1.7212,1.7491,1.7669,1.8065,1.9096,1.9588,2.004,1.975,2.0078,2.0293,2.0355,2.019,1.9841,1.9817,1.969,1.9362,1.9008,1.9051,1.8921,1.8889,1.9268,1.8809,1.8063,1.7864,1.7676,1.759,1.7409,1.734,1.7456,1.7659,1.8126,1.8625,1.9149,1.969,2.0422,2.0763,2.0791,2.1176,2.1039,2.067,2.0885,2.0921,2.056,2.0518,2.0416,2.0332,2.0155,2.0323,2.0372,2.0646,1.9892,2.0393,2.1671,2.1565,2.1667,2.1867,2.2146,2.2137,2.2161,2.2207,2.2135,2.1804,2.1845,2.1587,2.1382,2.1026,2.0521,1.9959,1.9274,1.9083,1.9018,1.8775,1.8535,1.818,1.7824,1.7219,1.6667,1.6523,1.6468,1.6523,1.6629,1.6862,1.6862,1.6756,1.6608,1.6309,1.6213,1.617,1.5908,1.5622,1.58,1.5923,1.5611,1.531,1.4937,1.4561,1.4215,1.3666,1.2942,1.2229,1.1607,1.1316,1.1116,2.0176,2.0208,2.0152,2.01,1.9912,1.8848,1.8431,1.8498,1.8512,1.844,1.8321,1.8287,1.8377,1.8349,1.8387,1.8936,1.9703,2.0238,2.0884,2.129,2.1635,2.1967,2.2004,2.1655,2.1701,2.1739,2.1624,2.1352,2.116,2.1049,2.0735,2.0494,2.0739,2.0519,2.0338,2.0231,1.9725,1.9082,1.8514,1.8403,1.835,1.8646,1.9016,1.9492,1.9996,2.0416,2.0848,2.1023,2.101,2.1048,2.0903,2.0956,2.1142,2.1428,2.1212,2.098,2.0769,2.0531,2.0371,2.0601,2.1283,2.1673,2.1572,2.1739,2.2101,2.2517,2.2562,2.2634,2.2794,2.2583,2.2446,2.2515,2.2569,2.2663,2.2878,2.2747,2.26,2.2204,2.167,2.1006,2.0188,1.9886,2.0063,1.9965,1.9803,1.9376,1.9009,1.8697,1.8192,1.7821,1.7787,1.7807,1.7961,1.8193,1.8074,1.7639,1.7483,1.7182,1.6993,1.6866,1.6612,1.6441,1.6475,1.6509,1.6466,1.6194,1.5688,1.5443,1.5285,1.4699,1.4148,1.343,1.2783,1.2633,1.2487,2.0328,2.0499,2.0449,2.0649,2.0927,2.0798,2.0133,1.9107,1.9229,1.9321,1.9306,1.9489,1.9534,1.9325,1.9753,2.0503,2.1223,2.1889,2.2758,2.3202,2.3432,2.3902,2.3972,2.3781,2.376,2.3657,2.3497,2.3136,2.2857,2.2794,2.2852,2.2776,2.2692,2.2666,2.2658,2.2907,2.1552,2.0406,1.9692,1.932,1.9422,1.9717,2.0025,2.0426,2.1539,2.197,2.2269,2.2159,2.2282,2.2646,2.1436,2.105,2.1518,2.1245,2.0872,2.0873,2.0777,2.0744,2.0742,2.122,2.1954,2.2712,2.2894,2.3506,2.3738,2.3712,2.3579,2.3583,2.3655,2.3606,2.3584,2.3606,2.3606,2.3728,2.384,2.3745,2.3508,2.2874,2.2374,2.1908,2.1085,2.1049,2.123,2.128,2.107,2.0592,2.021,1.9965,1.9543,1.9108,1.8745,1.8731,1.8774,1.885,1.8616,1.8226,1.8193,1.808,1.7814,1.7625,1.753,1.7366,1.7186,1.7052,1.6934,1.6701,1.6324,1.6191,1.6154,1.6017,1.5521,1.4732,1.4061,1.3802,1.3566,2.1086,2.1227,2.1165,2.1289,2.1505,2.1705,2.1134,2.0366,2.0433,2.0548,2.0549,2.07,2.0842,2.1075,2.1422,2.2145,2.3319,2.3554,2.419,2.4845,2.5223,2.5236,2.5363,2.5365,2.5081,2.5025,2.4913,2.4531,2.4365,2.4263,2.4289,2.3967,2.4434,2.4278,2.395,2.3647,2.3199,2.2173,2.1335,2.0566,2.0551,2.099,2.1431,2.1793,2.3205,2.379,2.397,2.3599,2.3629,2.3684,2.2127,2.1733,2.2177,2.1978,2.2041,2.2135,2.2151,2.1968,2.1855,2.2302,2.2947,2.3605,2.4292,2.5033,2.5082,2.4929,2.4705,2.457,2.4716,2.4823,2.4863,2.4883,2.4863,2.4843,2.4749,2.4689,2.4088,2.3459,2.3026,2.2643,2.2418,2.2359,2.239,2.2478,2.2374,2.1918,2.1532,2.1268,2.0667,1.9942,1.9483,1.9221,1.9262,1.9303,1.9058,1.8884,1.8808,1.8698,1.8442,1.8305,1.8338,1.8266,1.8068,1.7707,1.7372,1.7173,1.7026,1.706,1.7026,1.6829,1.6595,1.5996,1.5208,1.4606,1.4399,2.2206,2.2217,2.215,2.2051,2.194,2.1982,2.1938,2.1911,2.1878,2.1901,2.1893,2.1954,2.2353,2.282,2.3167,2.3903,2.4727,2.5128,2.5546,2.6248,2.6301,2.6335,2.6231,2.6053,2.6113,2.5913,2.5826,2.5844,2.574,2.5684,2.5443,2.4781,2.4988,2.511,2.5145,2.478,2.453,2.4313,2.3767,2.321,2.2198,2.2585,2.3427,2.3306,2.4085,2.4872,2.4879,2.4657,2.4288,2.3858,2.3271,2.2808,2.2939,2.3384,2.3638,2.3724,2.3625,2.3372,2.3258,2.3636,2.4237,2.4947,2.5697,2.622,2.6202,2.5921,2.5646,2.557,2.5677,2.5711,2.5711,2.573,2.5711,2.5693,2.5662,2.5538,2.5197,2.4473,2.3818,2.3541,2.3472,2.342,2.3405,2.3456,2.3324,2.3038,2.2744,2.2488,2.1855,2.0984,2.0387,1.9932,1.9841,1.9879,1.9806,1.9642,1.9424,1.9258,1.9058,1.8884,1.885,1.8884,1.8917,1.85,1.8068,1.7955,1.7875,1.7814,1.7639,1.7352,1.7165,1.7039,1.6484,1.572,1.531,2.2381,2.2682,2.2942,2.3028,2.3021,2.3021,2.2991,2.3021,2.3021,2.3003,2.3,2.3266,2.3766,2.4447,2.4904,2.5579,2.608,2.6469,2.6996,2.7309,2.7457,2.7337,2.7387,2.7199,2.7187,2.7239,2.7192,2.7029,2.6997,2.7027,2.7075,2.6882,2.6764,2.6666,2.6666,2.6335,2.6285,2.6055,2.6055,2.5212,2.3912,2.3918,2.4429,2.4597,2.5209,2.5796,2.5838,2.5668,2.5584,2.5382,2.4157,2.366,2.357,2.4303,2.4662,2.4732,2.4785,2.459,2.4594,2.4903,2.5493,2.5903,2.6444,2.6849,2.6985,2.679,2.664,2.659,2.6539,2.6522,2.6505,2.6505,2.6505,2.6505,2.6505,2.6351,2.621,2.5506,2.4726,2.4591,2.4519,2.4503,2.4493,2.4408,2.4214,2.3989,2.3736,2.3391,2.289,2.2168,2.1483,2.0995,2.0592,2.0529,2.0427,2.0309,2.007,1.9965,1.9811,1.963,1.9409,1.9332,1.9277,1.9087,1.8822,1.8586,1.8411,1.8338,1.8147,1.7922,1.77,1.7564,1.7462,1.6862,1.645,2.3118,2.3356,2.3592,2.3648,2.3637,2.3637,2.3608,2.3619,2.3619,2.4102,2.4669,2.4585,2.4953,2.592,2.6513,2.6983,2.7394,2.7644,2.7915,2.8234,2.8343,2.8247,2.8226,2.8161,2.8036,2.8044,2.7986,2.7927,2.799,2.7945,2.7899,2.7972,2.7972,2.7976,2.7976,2.7909,2.7729,2.7268,2.7703,2.6988,2.567,2.5908,2.5765,2.5911,2.6271,2.6831,2.6832,2.6682,2.6535,2.6293,2.5323,2.5169,2.5266,2.5737,2.5885,2.592,2.5881,2.5735,2.5735,2.6033,2.6571,2.6863,2.723,2.766,2.798,2.7766,2.7241,2.7147,2.6954,2.6906,2.6906,2.6906,2.6906,2.6906,2.6906,2.684,2.6757,2.6455,2.6067,2.5998,2.5963,2.598,2.598,2.5981,2.576,2.5468,2.513,2.4606,2.406,2.3505,2.2785,2.2134,2.1779,2.1118,2.0729,2.0697,2.0664,2.0582,2.0516,2.0364,2.0141,1.9823,1.9588,1.946,1.9273,1.8974,1.8822,1.8789,1.875,1.8558,1.8305,1.8068,1.7988,1.7908,1.7489,2.4013,2.4071,2.41,2.4063,2.4008,2.3999,2.4017,2.4017,2.4045,2.5115,2.6488,2.5697,2.6385,2.7359,2.788,2.8327,2.8611,2.8629,2.8802,2.882,2.8839,2.8831,2.8778,2.8718,2.8672,2.8602,2.853,2.8494,2.847,2.8476,2.8494,2.8433,2.8415,2.8433,2.8427,2.8403,2.8299,2.8198,2.8309,2.8275,2.8058,2.7926,2.7246,2.7155,2.7483,2.8016,2.787,2.7691,2.7407,2.7178,2.6756,2.6623,2.6731,2.7031,2.7179,2.7215,2.7228,2.691,2.67,2.7018,2.7365,2.7662,2.8079,2.8373,2.8658,2.8471,2.794,2.7713,2.7517,2.7352,2.7367,2.7367,2.7367,2.7338,2.7321,2.7291,2.726,2.7197,2.7115,2.7049,2.7066,2.71,2.7116,2.7165,2.7017,2.6752,2.6451,2.5964,2.5461,2.4937,2.4329,2.3636,2.3084,2.2341,2.1375,2.1167,2.1262,2.1135,2.1055,2.0991,2.0845,2.0532,2.0225,1.9942,1.9711,1.9533,1.931,1.9236,1.918,1.9186,1.8921,1.8693,1.8712,1.8597,1.8324,2.4251,2.4416,2.4572,2.4595,2.4567,2.4548,2.4562,2.4562,2.461,2.5688,2.701,2.7471,2.7963,2.9204,2.9223,2.9373,2.9364,2.943,2.9438,2.9428,2.9439,2.9391,2.9353,2.9336,2.9354,2.9277,2.9177,2.9119,2.9099,2.9122,2.9114,2.909,2.9098,2.9106,2.9103,2.9063,2.9034,2.8942,2.8938,2.8956,2.8742,2.8516,2.817,2.8161,2.8381,2.8547,2.8543,2.8632,2.8636,2.8574,2.8315,2.7976,2.7916,2.8069,2.8239,2.8233,2.8263,2.8172,2.8033,2.8076,2.8304,2.8399,2.8688,2.8712,2.8865,2.8849,2.8529,2.8491,2.828,2.8027,2.7971,2.7971,2.7989,2.7861,2.7818,2.7686,2.7597,2.743,2.7274,2.7274,2.7274,2.7291,2.7291,2.7307,2.7289,2.7126,2.7158,2.6738,2.6526,2.617,2.5772,2.5094,2.4373,2.3249,2.2165,2.1918,2.187,2.1727,2.1555,2.1416,2.1308,2.1229,2.0926,2.0531,2.0395,2.0277,2.0052,1.9843,1.9773,1.9766,1.9501,1.9347,1.9395,1.9217,1.8903]}]]